<?xml version="1.0" encoding="UTF-8" standalone="no" ?><gpx xmlns="http://www.topografix.com/GPX/1/1" xmlns:gpxx="http://www.garmin.com/xmlschemas/GpxExtensions/v3" xmlns:wptx1="http://www.garmin.com/xmlschemas/WaypointExtension/v1" xmlns:gpxtpx="http://www.garmin.com/xmlschemas/TrackPointExtension/v1" creator="GuideVTT.com" version="1.1" xmlns:xsi="http://www.w3.org/2001/XMLSchema-instance" xsi:schemaLocation="http://www.topografix.com/GPX/1/1 http://www.topografix.com/GPX/1/1/gpx.xsd http://www.garmin.com/xmlschemas/GpxExtensions/v3 http://www8.garmin.com/xmlschemas/GpxExtensionsv3.xsd http://www.garmin.com/xmlschemas/WaypointExtension/v1 http://www8.garmin.com/xmlschemas/WaypointExtensionv1.xsd http://www.garmin.com/xmlschemas/TrackPointExtension/v1 http://www.garmin.com/xmlschemas/TrackPointExtensionv1.xsd">
<metadata><link href="http://www.garmin.com"><text>Garmin International</text></link><time>2013-06-22T15:13:50Z</time></metadata>
<trk><name>essai_001.gpx</name><extensions><gpxx:TrackExtension><gpxx:DisplayColor>Cyan</gpxx:DisplayColor></gpxx:TrackExtension></extensions><trkseg>
<trkpt lat="47.52726576" lon="-2.76942858"><ele></ele><time>2014-5-9T14:44:18Z</time></trkpt>
<trkpt lat="47.52726576" lon="-2.76942858"><ele></ele><time>2014-5-9T14:44:21Z</time></trkpt>
<trkpt lat="47.52726576" lon="-2.76942858"><ele></ele><time>2014-5-9T14:44:24Z</time></trkpt>
<trkpt lat="47.52726576" lon="-2.76942858"><ele></ele><time>2014-5-9T14:44:27Z</time></trkpt>
<trkpt lat="47.52726576" lon="-2.76942858"><ele></ele><time>2014-5-9T14:44:30Z</time></trkpt>
<trkpt lat="47.52726576" lon="-2.76942858"><ele></ele><time>2014-5-9T14:44:33Z</time></trkpt>
<trkpt lat="47.52726576" lon="-2.76942858"><ele></ele><time>2014-5-9T14:44:36Z</time></trkpt>
<trkpt lat="47.52726576" lon="-2.76942858"><ele></ele><time>2014-5-9T14:44:39Z</time></trkpt>
<trkpt lat="" lon=""><ele></ele><time>2014-5-9T14:44:42Z</time></trkpt>
<trkpt lat="47.52741337" lon="-2.76533604"><ele></ele><time>2014-5-9T14:44:45Z</time></trkpt>
<trkpt lat="47.52728462" lon="-2.76527166"><ele></ele><time>2014-5-9T14:44:48Z</time></trkpt>
<trkpt lat="47.52670527" lon="-2.76527166"><ele></ele><time>2014-5-9T14:44:51Z</time></trkpt>
<trkpt lat="47.52655506" lon="-2.76531458"><ele></ele><time>2014-5-9T14:44:54Z</time></trkpt>
<trkpt lat="47.52646923" lon="-2.76537895"><ele></ele><time>2014-5-9T14:44:57Z</time></trkpt>
<trkpt lat="47.52629757" lon="-2.76552916"><ele></ele><time>2014-5-9T14:45:0Z</time></trkpt>
<trkpt lat="47.52621174" lon="-2.76557207"><ele></ele><time>2014-5-9T14:45:3Z</time></trkpt>
<trkpt lat="47.52627611" lon="-2.76533604"><ele></ele><time>2014-5-9T14:45:6Z</time></trkpt>
<trkpt lat="47.52621174" lon="-2.76529312"><ele></ele><time>2014-5-9T14:45:9Z</time></trkpt>
<trkpt lat="47.52614737" lon="-2.76471376"><ele></ele><time>2014-5-9T14:45:12Z</time></trkpt>
<trkpt lat="47.52593279" lon="-2.76351213"><ele></ele><time>2014-5-9T14:45:15Z</time></trkpt>
<trkpt lat="47.52584696" lon="-2.76336193"><ele></ele><time>2014-5-9T14:45:18Z</time></trkpt>
<trkpt lat="47.52586842" lon="-2.76327610"><ele></ele><time>2014-5-9T14:45:21Z</time></trkpt>
<trkpt lat="47.52588987" lon="-2.76310444"><ele></ele><time>2014-5-9T14:45:24Z</time></trkpt>
<trkpt lat="47.52591133" lon="-2.76271820"><ele></ele><time>2014-5-9T14:45:27Z</time></trkpt>
<trkpt lat="47.52591133" lon="-2.76254654"><ele></ele><time>2014-5-9T14:45:30Z</time></trkpt>
<trkpt lat="47.52582550" lon="-2.76153803"><ele></ele><time>2014-5-9T14:45:33Z</time></trkpt>
<trkpt lat="47.52578259" lon="-2.76067972"><ele></ele><time>2014-5-9T14:45:36Z</time></trkpt>
<trkpt lat="47.52584696" lon="-2.76057243"><ele></ele><time>2014-5-9T14:45:39Z</time></trkpt>
<trkpt lat="47.52584696" lon="-2.76046515"><ele></ele><time>2014-5-9T14:45:42Z</time></trkpt>
<trkpt lat="47.52571821" lon="-2.76027203"><ele></ele><time>2014-5-9T14:45:45Z</time></trkpt>
<trkpt lat="47.52524614" lon="-2.75979996"><ele></ele><time>2014-5-9T14:45:48Z</time></trkpt>
<trkpt lat="47.52513885" lon="-2.75979996"><ele></ele><time>2014-5-9T14:45:51Z</time></trkpt>
<trkpt lat="47.52492428" lon="-2.75958538"><ele></ele><time>2014-5-9T14:45:54Z</time></trkpt>
<trkpt lat="47.52477407" lon="-2.75924206"><ele></ele><time>2014-5-9T14:45:57Z</time></trkpt>
<trkpt lat="47.52475262" lon="-2.75917768"><ele></ele><time>2014-5-9T14:46:0Z</time></trkpt>
<trkpt lat="47.52473116" lon="-2.75896311"><ele></ele><time>2014-5-9T14:46:3Z</time></trkpt>
<trkpt lat="47.52460241" lon="-2.75823355"><ele></ele><time>2014-5-9T14:46:6Z</time></trkpt>
<trkpt lat="47.52447367" lon="-2.75814772"><ele></ele><time>2014-5-9T14:46:9Z</time></trkpt>
<trkpt lat="47.52421618" lon="-2.75814772"><ele></ele><time>2014-5-9T14:46:12Z</time></trkpt>
<trkpt lat="47.52406597" lon="-2.75806189"><ele></ele><time>2014-5-9T14:46:15Z</time></trkpt>
<trkpt lat="47.52335787" lon="-2.75690317"><ele></ele><time>2014-5-9T14:46:18Z</time></trkpt>
<trkpt lat="47.52327204" lon="-2.75677443"><ele></ele><time>2014-5-9T14:46:21Z</time></trkpt>
<trkpt lat="47.52239227" lon="-2.75623798"><ele></ele><time>2014-5-9T14:46:24Z</time></trkpt>
<trkpt lat="47.52232790" lon="-2.75619507"><ele></ele><time>2014-5-9T14:46:27Z</time></trkpt>
<trkpt lat="47.52219915" lon="-2.75617361"><ele></ele><time>2014-5-9T14:46:30Z</time></trkpt>
<trkpt lat="47.52200603" lon="-2.75610924"><ele></ele><time>2014-5-9T14:46:33Z</time></trkpt>
<trkpt lat="47.52119064" lon="-2.75613070"><ele></ele><time>2014-5-9T14:46:36Z</time></trkpt>
<trkpt lat="47.52041817" lon="-2.75595903"><ele></ele><time>2014-5-9T14:46:39Z</time></trkpt>
<trkpt lat="47.52028942" lon="-2.75630236"><ele></ele><time>2014-5-9T14:46:42Z</time></trkpt>
<trkpt lat="47.52013922" lon="-2.75668859"><ele></ele><time>2014-5-9T14:46:45Z</time></trkpt>
<trkpt lat="47.51996756" lon="-2.75771856"><ele></ele><time>2014-5-9T14:46:48Z</time></trkpt>
<trkpt lat="47.51975298" lon="-2.75892019"><ele></ele><time>2014-5-9T14:46:51Z</time></trkpt>
<trkpt lat="47.51960278" lon="-2.75922060"><ele></ele><time>2014-5-9T14:46:54Z</time></trkpt>
<trkpt lat="47.51906633" lon="-2.76014328"><ele></ele><time>2014-5-9T14:46:57Z</time></trkpt>
<trkpt lat="47.51865864" lon="-2.76115179"><ele></ele><time>2014-5-9T14:47:0Z</time></trkpt>
<trkpt lat="47.51850843" lon="-2.76166677"><ele></ele><time>2014-5-9T14:47:3Z</time></trkpt>
<trkpt lat="47.51848698" lon="-2.76194572"><ele></ele><time>2014-5-9T14:47:6Z</time></trkpt>
<trkpt lat="47.51857281" lon="-2.76342630"><ele></ele><time>2014-5-9T14:47:9Z</time></trkpt>
<trkpt lat="47.51857281" lon="-2.76364088"><ele></ele><time>2014-5-9T14:47:12Z</time></trkpt>
<trkpt lat="47.51837969" lon="-2.76398420"><ele></ele><time>2014-5-9T14:47:15Z</time></trkpt>
<trkpt lat="47.51754284" lon="-2.76473522"><ele></ele><time>2014-5-9T14:47:18Z</time></trkpt>
<trkpt lat="47.51724243" lon="-2.76518583"><ele></ele><time>2014-5-9T14:47:21Z</time></trkpt>
<trkpt lat="47.51670599" lon="-2.76514292"><ele></ele><time>2014-5-9T14:47:24Z</time></trkpt>
<trkpt lat="47.51608372" lon="-2.76499271"><ele></ele><time>2014-5-9T14:47:27Z</time></trkpt>
<trkpt lat="47.51595497" lon="-2.76499271"><ele></ele><time>2014-5-9T14:47:30Z</time></trkpt>
<trkpt lat="47.51580477" lon="-2.76520729"><ele></ele><time>2014-5-9T14:47:33Z</time></trkpt>
<trkpt lat="47.51559019" lon="-2.76612997"><ele></ele><time>2014-5-9T14:47:36Z</time></trkpt>
<trkpt lat="47.51556873" lon="-2.76634455"><ele></ele><time>2014-5-9T14:47:39Z</time></trkpt>
<trkpt lat="47.51511812" lon="-2.76645184"><ele></ele><time>2014-5-9T14:47:42Z</time></trkpt>
<trkpt lat="47.51468897" lon="-2.76645184"><ele></ele><time>2014-5-9T14:47:45Z</time></trkpt>
<trkpt lat="47.51430273" lon="-2.76640892"><ele></ele><time>2014-5-9T14:47:48Z</time></trkpt>
<trkpt lat="47.51387358" lon="-2.76647329"><ele></ele><time>2014-5-9T14:47:51Z</time></trkpt>
<trkpt lat="47.51344442" lon="-2.76660204"><ele></ele><time>2014-5-9T14:47:54Z</time></trkpt>
<trkpt lat="47.51322985" lon="-2.76660204"><ele></ele><time>2014-5-9T14:47:57Z</time></trkpt>
<trkpt lat="47.51286507" lon="-2.76670933"><ele></ele><time>2014-5-9T14:48:0Z</time></trkpt>
<trkpt lat="47.51262903" lon="-2.76675224"><ele></ele><time>2014-5-9T14:48:3Z</time></trkpt>
<trkpt lat="47.51239300" lon="-2.76677370"><ele></ele><time>2014-5-9T14:48:6Z</time></trkpt>
<trkpt lat="47.51198530" lon="-2.76673079"><ele></ele><time>2014-5-9T14:48:9Z</time></trkpt>
<trkpt lat="47.51162052" lon="-2.76660204"><ele></ele><time>2014-5-9T14:48:12Z</time></trkpt>
<trkpt lat="47.51125574" lon="-2.76621580"><ele></ele><time>2014-5-9T14:48:15Z</time></trkpt>
<trkpt lat="47.51108408" lon="-2.76597977"><ele></ele><time>2014-5-9T14:48:18Z</time></trkpt>
<trkpt lat="47.51052618" lon="-2.76529312"><ele></ele><time>2014-5-9T14:48:21Z</time></trkpt>
<trkpt lat="47.50966787" lon="-2.76458502"><ele></ele><time>2014-5-9T14:48:24Z</time></trkpt>
<trkpt lat="47.50865936" lon="-2.76370525"><ele></ele><time>2014-5-9T14:48:27Z</time></trkpt>
<trkpt lat="47.50777960" lon="-2.76291132"><ele></ele><time>2014-5-9T14:48:30Z</time></trkpt>
<trkpt lat="47.50747919" lon="-2.76252508"><ele></ele><time>2014-5-9T14:48:33Z</time></trkpt>
<trkpt lat="47.50702858" lon="-2.76228905"><ele></ele><time>2014-5-9T14:48:36Z</time></trkpt>
<trkpt lat="47.50647068" lon="-2.76235342"><ele></ele><time>2014-5-9T14:48:39Z</time></trkpt>
<trkpt lat="47.50625610" lon="-2.76250362"><ele></ele><time>2014-5-9T14:48:42Z</time></trkpt>
<trkpt lat="47.50599861" lon="-2.76271820"><ele></ele><time>2014-5-9T14:48:45Z</time></trkpt>
<trkpt lat="47.50531197" lon="-2.76271820"><ele></ele><time>2014-5-9T14:48:48Z</time></trkpt>
<trkpt lat="47.50449657" lon="-2.76256800"><ele></ele><time>2014-5-9T14:48:51Z</time></trkpt>
<trkpt lat="47.50436783" lon="-2.76263237"><ele></ele><time>2014-5-9T14:48:54Z</time></trkpt>
<trkpt lat="47.50417471" lon="-2.76334047"><ele></ele><time>2014-5-9T14:48:57Z</time></trkpt>
<trkpt lat="47.50402451" lon="-2.76351213"><ele></ele><time>2014-5-9T14:49:0Z</time></trkpt>
<trkpt lat="47.50353098" lon="-2.76359797"><ele></ele><time>2014-5-9T14:49:3Z</time></trkpt>
<trkpt lat="47.50241518" lon="-2.76374817"><ele></ele><time>2014-5-9T14:49:6Z</time></trkpt>
<trkpt lat="47.50144958" lon="-2.76394129"><ele></ele><time>2014-5-9T14:49:9Z</time></trkpt>
<trkpt lat="47.50097752" lon="-2.76417732"><ele></ele><time>2014-5-9T14:49:12Z</time></trkpt>
<trkpt lat="47.50087023" lon="-2.76437044"><ele></ele><time>2014-5-9T14:49:15Z</time></trkpt>
<trkpt lat="47.50087023" lon="-2.76462793"><ele></ele><time>2014-5-9T14:49:18Z</time></trkpt>
<trkpt lat="47.50089169" lon="-2.76473522"><ele></ele><time>2014-5-9T14:49:21Z</time></trkpt>
<trkpt lat="47.50106335" lon="-2.76632309"><ele></ele><time>2014-5-9T14:49:24Z</time></trkpt>
<trkpt lat="47.50112772" lon="-2.76673079"><ele></ele><time>2014-5-9T14:49:27Z</time></trkpt>
<trkpt lat="47.50125647" lon="-2.76737452"><ele></ele><time>2014-5-9T14:49:30Z</time></trkpt>
<trkpt lat="47.50104189" lon="-2.76808262"><ele></ele><time>2014-5-9T14:49:33Z</time></trkpt>
<trkpt lat="47.50102043" lon="-2.76808262"><ele></ele><time>2014-5-9T14:49:36Z</time></trkpt>
<trkpt lat="47.50069857" lon="-2.76799679"><ele></ele><time>2014-5-9T14:49:39Z</time></trkpt>
<trkpt lat="47.50016212" lon="-2.76748180"><ele></ele><time>2014-5-9T14:49:42Z</time></trkpt>
<trkpt lat="47.49951839" lon="-2.76694536"><ele></ele><time>2014-5-9T14:49:45Z</time></trkpt>
<trkpt lat="47.49943256" lon="-2.76688099"><ele></ele><time>2014-5-9T14:49:48Z</time></trkpt>
<trkpt lat="47.49911070" lon="-2.76692390"><ele></ele><time>2014-5-9T14:49:51Z</time></trkpt>
<trkpt lat="47.49840260" lon="-2.76750326"><ele></ele><time>2014-5-9T14:49:54Z</time></trkpt>
<trkpt lat="47.49801636" lon="-2.76776075"><ele></ele><time>2014-5-9T14:49:57Z</time></trkpt>
<trkpt lat="47.49784470" lon="-2.76769638"><ele></ele><time>2014-5-9T14:50:0Z</time></trkpt>
<trkpt lat="47.49780178" lon="-2.76765347"><ele></ele><time>2014-5-9T14:50:3Z</time></trkpt>
<trkpt lat="47.49782324" lon="-2.76767492"><ele></ele><time>2014-5-9T14:50:6Z</time></trkpt>
<trkpt lat="47.49790907" lon="-2.76750326"><ele></ele><time>2014-5-9T14:50:9Z</time></trkpt>
<trkpt lat="47.49790907" lon="-2.76720285"><ele></ele><time>2014-5-9T14:50:12Z</time></trkpt>
<trkpt lat="47.49782324" lon="-2.76705265"><ele></ele><time>2014-5-9T14:50:15Z</time></trkpt>
<trkpt lat="47.49782324" lon="-2.76696682"><ele></ele><time>2014-5-9T14:50:18Z</time></trkpt>
<trkpt lat="47.49782324" lon="-2.76615143"><ele></ele><time>2014-5-9T14:50:21Z</time></trkpt>
<trkpt lat="47.49782324" lon="-2.76531458"><ele></ele><time>2014-5-9T14:50:24Z</time></trkpt>
<trkpt lat="47.49784470" lon="-2.76525021"><ele></ele><time>2014-5-9T14:50:27Z</time></trkpt>
<trkpt lat="47.49790907" lon="-2.76499271"><ele></ele><time>2014-5-9T14:50:30Z</time></trkpt>
<trkpt lat="47.49788761" lon="-2.76441336"><ele></ele><time>2014-5-9T14:50:33Z</time></trkpt>
<trkpt lat="47.49788761" lon="-2.76396275"><ele></ele><time>2014-5-9T14:50:36Z</time></trkpt>
<trkpt lat="47.49784470" lon="-2.76325464"><ele></ele><time>2014-5-9T14:50:39Z</time></trkpt>
<trkpt lat="47.49784470" lon="-2.76269674"><ele></ele><time>2014-5-9T14:50:42Z</time></trkpt>
<trkpt lat="47.49780178" lon="-2.76207447"><ele></ele><time>2014-5-9T14:50:45Z</time></trkpt>
<trkpt lat="47.49775887" lon="-2.76130199"><ele></ele><time>2014-5-9T14:50:48Z</time></trkpt>
<trkpt lat="47.49778032" lon="-2.76076555"><ele></ele><time>2014-5-9T14:50:51Z</time></trkpt>
<trkpt lat="47.49780178" lon="-2.76033640"><ele></ele><time>2014-5-9T14:50:54Z</time></trkpt>
<trkpt lat="47.49780178" lon="-2.75971413"><ele></ele><time>2014-5-9T14:50:57Z</time></trkpt>
<trkpt lat="47.49771595" lon="-2.75922060"><ele></ele><time>2014-5-9T14:51:0Z</time></trkpt>
<trkpt lat="47.49760866" lon="-2.75872707"><ele></ele><time>2014-5-9T14:51:3Z</time></trkpt>
<trkpt lat="47.49756575" lon="-2.75834084"><ele></ele><time>2014-5-9T14:51:6Z</time></trkpt>
<trkpt lat="47.49750137" lon="-2.75780439"><ele></ele><time>2014-5-9T14:51:9Z</time></trkpt>
<trkpt lat="47.49752283" lon="-2.75752544"><ele></ele><time>2014-5-9T14:51:12Z</time></trkpt>
<trkpt lat="47.49743700" lon="-2.75731087"><ele></ele><time>2014-5-9T14:51:15Z</time></trkpt>
<trkpt lat="47.49743700" lon="-2.75718212"><ele></ele><time>2014-5-9T14:51:18Z</time></trkpt>
<trkpt lat="47.49745846" lon="-2.75690317"><ele></ele><time>2014-5-9T14:51:21Z</time></trkpt>
<trkpt lat="47.49752283" lon="-2.75673151"><ele></ele><time>2014-5-9T14:51:24Z</time></trkpt>
<trkpt lat="47.49754429" lon="-2.75668859"><ele></ele><time>2014-5-9T14:51:27Z</time></trkpt>
<trkpt lat="47.49754429" lon="-2.75662422"><ele></ele><time>2014-5-9T14:51:30Z</time></trkpt>
<trkpt lat="47.49756575" lon="-2.75655985"><ele></ele><time>2014-5-9T14:51:33Z</time></trkpt>
<trkpt lat="47.49758720" lon="-2.75647402"><ele></ele><time>2014-5-9T14:51:36Z</time></trkpt>
<trkpt lat="47.49763012" lon="-2.75634527"><ele></ele><time>2014-5-9T14:51:39Z</time></trkpt>
<trkpt lat="47.49771595" lon="-2.75619507"><ele></ele><time>2014-5-9T14:51:42Z</time></trkpt>
<trkpt lat="47.49782324" lon="-2.75589466"><ele></ele><time>2014-5-9T14:51:45Z</time></trkpt>
<trkpt lat="47.49799490" lon="-2.75555134"><ele></ele><time>2014-5-9T14:51:48Z</time></trkpt>
<trkpt lat="47.49818802" lon="-2.75516510"><ele></ele><time>2014-5-9T14:51:51Z</time></trkpt>
<trkpt lat="47.49835968" lon="-2.75471449"><ele></ele><time>2014-5-9T14:51:54Z</time></trkpt>
<trkpt lat="47.49848843" lon="-2.75404930"><ele></ele><time>2014-5-9T14:51:57Z</time></trkpt>
<trkpt lat="47.49855280" lon="-2.75366306"><ele></ele><time>2014-5-9T14:52:0Z</time></trkpt>
<trkpt lat="47.49870300" lon="-2.75319099"><ele></ele><time>2014-5-9T14:52:3Z</time></trkpt>
<trkpt lat="47.49863863" lon="-2.75295496"><ele></ele><time>2014-5-9T14:52:6Z</time></trkpt>
<trkpt lat="47.49861717" lon="-2.75265455"><ele></ele><time>2014-5-9T14:52:9Z</time></trkpt>
<trkpt lat="47.49861717" lon="-2.75213957"><ele></ele><time>2014-5-9T14:52:12Z</time></trkpt>
<trkpt lat="47.49872446" lon="-2.75151730"><ele></ele><time>2014-5-9T14:52:15Z</time></trkpt>
<trkpt lat="47.49881029" lon="-2.75098085"><ele></ele><time>2014-5-9T14:52:18Z</time></trkpt>
<trkpt lat="47.49883175" lon="-2.75046587"><ele></ele><time>2014-5-9T14:52:21Z</time></trkpt>
<trkpt lat="47.49887466" lon="-2.74984360"><ele></ele><time>2014-5-9T14:52:24Z</time></trkpt>
<trkpt lat="47.49908924" lon="-2.74919987"><ele></ele><time>2014-5-9T14:52:27Z</time></trkpt>
<trkpt lat="47.49936819" lon="-2.74842739"><ele></ele><time>2014-5-9T14:52:30Z</time></trkpt>
<trkpt lat="47.49947548" lon="-2.74782658"><ele></ele><time>2014-5-9T14:52:33Z</time></trkpt>
<trkpt lat="47.49962568" lon="-2.74724722"><ele></ele><time>2014-5-9T14:52:36Z</time></trkpt>
<trkpt lat="47.49979734" lon="-2.74690390"><ele></ele><time>2014-5-9T14:52:39Z</time></trkpt>
<trkpt lat="47.49992609" lon="-2.74686098"><ele></ele><time>2014-5-9T14:52:42Z</time></trkpt>
<trkpt lat="47.50018358" lon="-2.74647474"><ele></ele><time>2014-5-9T14:52:45Z</time></trkpt>
<trkpt lat="47.50020504" lon="-2.74641037"><ele></ele><time>2014-5-9T14:52:48Z</time></trkpt>
<trkpt lat="47.50031233" lon="-2.74583101"><ele></ele><time>2014-5-9T14:52:51Z</time></trkpt>
<trkpt lat="47.50035524" lon="-2.74572372"><ele></ele><time>2014-5-9T14:52:54Z</time></trkpt>
<trkpt lat="47.50039816" lon="-2.74531603"><ele></ele><time>2014-5-9T14:52:57Z</time></trkpt>
<trkpt lat="47.50050545" lon="-2.74482250"><ele></ele><time>2014-5-9T14:53:0Z</time></trkpt>
<trkpt lat="47.50052691" lon="-2.74456501"><ele></ele><time>2014-5-9T14:53:3Z</time></trkpt>
<trkpt lat="47.50048399" lon="-2.74424314"><ele></ele><time>2014-5-9T14:53:6Z</time></trkpt>
<trkpt lat="47.50048399" lon="-2.74411440"><ele></ele><time>2014-5-9T14:53:9Z</time></trkpt>
<trkpt lat="47.50046253" lon="-2.74413586"><ele></ele><time>2014-5-9T14:53:12Z</time></trkpt>
<trkpt lat="47.50046253" lon="-2.74396420"><ele></ele><time>2014-5-9T14:53:15Z</time></trkpt>
<trkpt lat="47.50041962" lon="-2.74340630"><ele></ele><time>2014-5-9T14:53:18Z</time></trkpt>
<trkpt lat="47.50041962" lon="-2.74308443"><ele></ele><time>2014-5-9T14:53:21Z</time></trkpt>
<trkpt lat="47.50039816" lon="-2.74286985"><ele></ele><time>2014-5-9T14:53:24Z</time></trkpt>
<trkpt lat="47.50035524" lon="-2.74250507"><ele></ele><time>2014-5-9T14:53:27Z</time></trkpt>
<trkpt lat="47.50037670" lon="-2.74196863"><ele></ele><time>2014-5-9T14:53:30Z</time></trkpt>
<trkpt lat="47.50041962" lon="-2.74175406"><ele></ele><time>2014-5-9T14:53:33Z</time></trkpt>
<trkpt lat="47.50044107" lon="-2.74156094"><ele></ele><time>2014-5-9T14:53:36Z</time></trkpt>
<trkpt lat="47.50046253" lon="-2.74138927"><ele></ele><time>2014-5-9T14:53:39Z</time></trkpt>
<trkpt lat="47.50054836" lon="-2.74111032"><ele></ele><time>2014-5-9T14:53:42Z</time></trkpt>
<trkpt lat="47.50056982" lon="-2.74104595"><ele></ele><time>2014-5-9T14:53:45Z</time></trkpt>
<trkpt lat="47.50097752" lon="-2.74087429"><ele></ele><time>2014-5-9T14:53:48Z</time></trkpt>
<trkpt lat="47.50123501" lon="-2.74089575"><ele></ele><time>2014-5-9T14:53:51Z</time></trkpt>
<trkpt lat="47.50149250" lon="-2.74087429"><ele></ele><time>2014-5-9T14:53:54Z</time></trkpt>
<trkpt lat="47.50174999" lon="-2.74087429"><ele></ele><time>2014-5-9T14:53:57Z</time></trkpt>
<trkpt lat="47.50190020" lon="-2.74098158"><ele></ele><time>2014-5-9T14:54:0Z</time></trkpt>
<trkpt lat="47.50211477" lon="-2.74117470"><ele></ele><time>2014-5-9T14:54:3Z</time></trkpt>
<trkpt lat="47.50215769" lon="-2.74121761"><ele></ele><time>2014-5-9T14:54:6Z</time></trkpt>
<trkpt lat="47.50226498" lon="-2.74123907"><ele></ele><time>2014-5-9T14:54:9Z</time></trkpt>
<trkpt lat="47.50262976" lon="-2.74117470"><ele></ele><time>2014-5-9T14:54:12Z</time></trkpt>
<trkpt lat="47.50308037" lon="-2.74096012"><ele></ele><time>2014-5-9T14:54:15Z</time></trkpt>
<trkpt lat="47.50316620" lon="-2.74089575"><ele></ele><time>2014-5-9T14:54:18Z</time></trkpt>
<trkpt lat="47.50318766" lon="-2.74076700"><ele></ele><time>2014-5-9T14:54:21Z</time></trkpt>
<trkpt lat="47.50316620" lon="-2.74068117"><ele></ele><time>2014-5-9T14:54:24Z</time></trkpt>
<trkpt lat="47.50320911" lon="-2.74070263"><ele></ele><time>2014-5-9T14:54:27Z</time></trkpt>
<trkpt lat="47.50325203" lon="-2.74078846"><ele></ele><time>2014-5-9T14:54:30Z</time></trkpt>
<trkpt lat="47.50340223" lon="-2.74070263"><ele></ele><time>2014-5-9T14:54:33Z</time></trkpt>
<trkpt lat="47.50374556" lon="-2.74038076"><ele></ele><time>2014-5-9T14:54:36Z</time></trkpt>
<trkpt lat="47.50398159" lon="-2.73999453"><ele></ele><time>2014-5-9T14:54:39Z</time></trkpt>
<trkpt lat="47.50430346" lon="-2.73947954"><ele></ele><time>2014-5-9T14:54:42Z</time></trkpt>
<trkpt lat="47.50449657" lon="-2.73911476"><ele></ele><time>2014-5-9T14:54:45Z</time></trkpt>
<trkpt lat="47.50464678" lon="-2.73870707"><ele></ele><time>2014-5-9T14:54:48Z</time></trkpt>
<trkpt lat="47.50481844" lon="-2.73829937"><ele></ele><time>2014-5-9T14:54:51Z</time></trkpt>
<trkpt lat="47.50494719" lon="-2.73808479"><ele></ele><time>2014-5-9T14:54:54Z</time></trkpt>
<trkpt lat="47.50505447" lon="-2.73789167"><ele></ele><time>2014-5-9T14:54:57Z</time></trkpt>
<trkpt lat="47.50505447" lon="-2.73784876"><ele></ele><time>2014-5-9T14:55:0Z</time></trkpt>
<trkpt lat="47.50511885" lon="-2.73767710"><ele></ele><time>2014-5-9T14:55:3Z</time></trkpt>
<trkpt lat="47.50516176" lon="-2.73750544"><ele></ele><time>2014-5-9T14:55:6Z</time></trkpt>
<trkpt lat="47.50522614" lon="-2.73735523"><ele></ele><time>2014-5-9T14:55:9Z</time></trkpt>
<trkpt lat="47.50529051" lon="-2.73716211"><ele></ele><time>2014-5-9T14:55:12Z</time></trkpt>
<trkpt lat="47.50535488" lon="-2.73705482"><ele></ele><time>2014-5-9T14:55:15Z</time></trkpt>
<trkpt lat="47.50544071" lon="-2.73684025"><ele></ele><time>2014-5-9T14:55:18Z</time></trkpt>
<trkpt lat="47.50556946" lon="-2.73651838"><ele></ele><time>2014-5-9T14:55:21Z</time></trkpt>
<trkpt lat="47.50563383" lon="-2.73634672"><ele></ele><time>2014-5-9T14:55:24Z</time></trkpt>
<trkpt lat="47.50571966" lon="-2.73617506"><ele></ele><time>2014-5-9T14:55:27Z</time></trkpt>
<trkpt lat="47.50574112" lon="-2.73615360"><ele></ele><time>2014-5-9T14:55:30Z</time></trkpt>
<trkpt lat="47.50578403" lon="-2.73591757"><ele></ele><time>2014-5-9T14:55:33Z</time></trkpt>
<trkpt lat="47.50582695" lon="-2.73583174"><ele></ele><time>2014-5-9T14:55:36Z</time></trkpt>
<trkpt lat="47.50586987" lon="-2.73568153"><ele></ele><time>2014-5-9T14:55:39Z</time></trkpt>
<trkpt lat="47.50589132" lon="-2.73559570"><ele></ele><time>2014-5-9T14:55:42Z</time></trkpt>
<trkpt lat="47.50597715" lon="-2.73540258"><ele></ele><time>2014-5-9T14:55:45Z</time></trkpt>
<trkpt lat="47.50608444" lon="-2.73510218"><ele></ele><time>2014-5-9T14:55:48Z</time></trkpt>
<trkpt lat="47.50617027" lon="-2.73475885"><ele></ele><time>2014-5-9T14:55:51Z</time></trkpt>
<trkpt lat="47.50625610" lon="-2.73439407"><ele></ele><time>2014-5-9T14:55:54Z</time></trkpt>
<trkpt lat="47.50629902" lon="-2.73415804"><ele></ele><time>2014-5-9T14:55:57Z</time></trkpt>
<trkpt lat="47.50636339" lon="-2.73385763"><ele></ele><time>2014-5-9T14:56:0Z</time></trkpt>
<trkpt lat="47.50647068" lon="-2.73353577"><ele></ele><time>2014-5-9T14:56:3Z</time></trkpt>
<trkpt lat="47.50653505" lon="-2.73325682"><ele></ele><time>2014-5-9T14:56:6Z</time></trkpt>
<trkpt lat="47.50659943" lon="-2.73295641"><ele></ele><time>2014-5-9T14:56:9Z</time></trkpt>
<trkpt lat="47.50666380" lon="-2.73278475"><ele></ele><time>2014-5-9T14:56:12Z</time></trkpt>
<trkpt lat="47.50666380" lon="-2.73265600"><ele></ele><time>2014-5-9T14:56:15Z</time></trkpt>
<trkpt lat="47.50666380" lon="-2.73261309"><ele></ele><time>2014-5-9T14:56:18Z</time></trkpt>
<trkpt lat="47.50666380" lon="-2.73259163"><ele></ele><time>2014-5-9T14:56:21Z</time></trkpt>
<trkpt lat="47.50662088" lon="-2.73229122"><ele></ele><time>2014-5-9T14:56:24Z</time></trkpt>
<trkpt lat="47.50657797" lon="-2.73194790"><ele></ele><time>2014-5-9T14:56:27Z</time></trkpt>
<trkpt lat="47.50657797" lon="-2.73156166"><ele></ele><time>2014-5-9T14:56:30Z</time></trkpt>
<trkpt lat="47.50664234" lon="-2.73123980"><ele></ele><time>2014-5-9T14:56:33Z</time></trkpt>
<trkpt lat="47.50670671" lon="-2.73083210"><ele></ele><time>2014-5-9T14:56:36Z</time></trkpt>
<trkpt lat="47.50681400" lon="-2.73036003"><ele></ele><time>2014-5-9T14:56:39Z</time></trkpt>
<trkpt lat="47.50679255" lon="-2.73025274"><ele></ele><time>2014-5-9T14:56:42Z</time></trkpt>
<trkpt lat="47.50679255" lon="-2.73025274"><ele></ele><time>2014-5-9T14:56:45Z</time></trkpt>
<trkpt lat="47.50666380" lon="-2.73008108"><ele></ele><time>2014-5-9T14:56:48Z</time></trkpt>
<trkpt lat="47.50666380" lon="-2.73008108"><ele></ele><time>2014-5-9T14:56:51Z</time></trkpt>
<trkpt lat="47.50668526" lon="-2.73010254"><ele></ele><time>2014-5-9T14:56:54Z</time></trkpt>
<trkpt lat="47.50670671" lon="-2.73012400"><ele></ele><time>2014-5-9T14:56:57Z</time></trkpt>
<trkpt lat="47.50672817" lon="-2.73018837"><ele></ele><time>2014-5-9T14:57:0Z</time></trkpt>
<trkpt lat="47.50683546" lon="-2.73029566"><ele></ele><time>2014-5-9T14:57:3Z</time></trkpt>
<trkpt lat="47.50689983" lon="-2.73016691"><ele></ele><time>2014-5-9T14:57:6Z</time></trkpt>
<trkpt lat="47.50698566" lon="-2.73001671"><ele></ele><time>2014-5-9T14:57:9Z</time></trkpt>
<trkpt lat="47.50707150" lon="-2.72956610"><ele></ele><time>2014-5-9T14:57:12Z</time></trkpt>
<trkpt lat="47.50720024" lon="-2.72900820"><ele></ele><time>2014-5-9T14:57:15Z</time></trkpt>
<trkpt lat="47.50726461" lon="-2.72860050"><ele></ele><time>2014-5-9T14:57:18Z</time></trkpt>
<trkpt lat="47.50745773" lon="-2.72810698"><ele></ele><time>2014-5-9T14:57:21Z</time></trkpt>
<trkpt lat="47.50773668" lon="-2.72767782"><ele></ele><time>2014-5-9T14:57:24Z</time></trkpt>
<trkpt lat="47.50792980" lon="-2.72761345"><ele></ele><time>2014-5-9T14:57:27Z</time></trkpt>
<trkpt lat="47.50855207" lon="-2.72750616"><ele></ele><time>2014-5-9T14:57:30Z</time></trkpt>
<trkpt lat="47.50913143" lon="-2.72724867"><ele></ele><time>2014-5-9T14:57:33Z</time></trkpt>
<trkpt lat="47.50921726" lon="-2.72718430"><ele></ele><time>2014-5-9T14:57:36Z</time></trkpt>
<trkpt lat="47.50966787" lon="-2.72651911"><ele></ele><time>2014-5-9T14:57:39Z</time></trkpt>
<trkpt lat="47.50977516" lon="-2.72636890"><ele></ele><time>2014-5-9T14:57:42Z</time></trkpt>
<trkpt lat="47.51001120" lon="-2.72626162"><ele></ele><time>2014-5-9T14:57:45Z</time></trkpt>
<trkpt lat="47.51054764" lon="-2.72643328"><ele></ele><time>2014-5-9T14:57:48Z</time></trkpt>
<trkpt lat="47.51127720" lon="-2.72666931"><ele></ele><time>2014-5-9T14:57:51Z</time></trkpt>
<trkpt lat="47.51155615" lon="-2.72669077"><ele></ele><time>2014-5-9T14:57:54Z</time></trkpt>
<trkpt lat="47.51159906" lon="-2.72722721"><ele></ele><time>2014-5-9T14:57:57Z</time></trkpt>
<trkpt lat="47.51157761" lon="-2.72819281"><ele></ele><time>2014-5-9T14:58:0Z</time></trkpt>
<trkpt lat="47.51162052" lon="-2.72894382"><ele></ele><time>2014-5-9T14:58:3Z</time></trkpt>
<trkpt lat="47.51168489" lon="-2.72902966"><ele></ele><time>2014-5-9T14:58:6Z</time></trkpt>
<trkpt lat="47.51204967" lon="-2.72892237"><ele></ele><time>2014-5-9T14:58:9Z</time></trkpt>
<trkpt lat="47.51245737" lon="-2.72875071"><ele></ele><time>2014-5-9T14:58:12Z</time></trkpt>
<trkpt lat="47.51271486" lon="-2.72860050"><ele></ele><time>2014-5-9T14:58:15Z</time></trkpt>
<trkpt lat="47.51322985" lon="-2.72866488"><ele></ele><time>2014-5-9T14:58:18Z</time></trkpt>
<trkpt lat="47.51340151" lon="-2.72868633"><ele></ele><time>2014-5-9T14:58:21Z</time></trkpt>
<trkpt lat="47.51387358" lon="-2.72849321"><ele></ele><time>2014-5-9T14:58:24Z</time></trkpt>
<trkpt lat="47.51436710" lon="-2.72810698"><ele></ele><time>2014-5-9T14:58:27Z</time></trkpt>
<trkpt lat="47.51492500" lon="-2.72767782"><ele></ele><time>2014-5-9T14:58:30Z</time></trkpt>
<trkpt lat="47.51561165" lon="-2.72739887"><ele></ele><time>2014-5-9T14:58:33Z</time></trkpt>
<trkpt lat="47.51625538" lon="-2.72722721"><ele></ele><time>2014-5-9T14:58:36Z</time></trkpt>
<trkpt lat="47.51683474" lon="-2.72705555"><ele></ele><time>2014-5-9T14:58:39Z</time></trkpt>
<trkpt lat="47.51687765" lon="-2.72699118"><ele></ele><time>2014-5-9T14:58:42Z</time></trkpt>
<trkpt lat="47.51689911" lon="-2.72701263"><ele></ele><time>2014-5-9T14:58:45Z</time></trkpt>
<trkpt lat="47.51683474" lon="-2.72714138"><ele></ele><time>2014-5-9T14:58:48Z</time></trkpt>
<trkpt lat="47.51674891" lon="-2.72720575"><ele></ele><time>2014-5-9T14:58:51Z</time></trkpt>
<trkpt lat="47.51672745" lon="-2.72737741"><ele></ele><time>2014-5-9T14:58:54Z</time></trkpt>
<trkpt lat="47.51674891" lon="-2.72733450"><ele></ele><time>2014-5-9T14:58:57Z</time></trkpt>
<trkpt lat="47.51674891" lon="-2.72733450"><ele></ele><time>2014-5-9T14:59:0Z</time></trkpt>
<trkpt lat="47.51674891" lon="-2.72720575"><ele></ele><time>2014-5-9T14:59:3Z</time></trkpt>
<trkpt lat="47.51674891" lon="-2.72714138"><ele></ele><time>2014-5-9T14:59:6Z</time></trkpt>
<trkpt lat="47.51696348" lon="-2.72699118"><ele></ele><time>2014-5-9T14:59:9Z</time></trkpt>
<trkpt lat="47.51704931" lon="-2.72696972"><ele></ele><time>2014-5-9T14:59:12Z</time></trkpt>
<trkpt lat="47.51707077" lon="-2.72694826"><ele></ele><time>2014-5-9T14:59:15Z</time></trkpt>
<trkpt lat="47.51722097" lon="-2.72718430"><ele></ele><time>2014-5-9T14:59:18Z</time></trkpt>
<trkpt lat="47.51762867" lon="-2.72806406"><ele></ele><time>2014-5-9T14:59:21Z</time></trkpt>
<trkpt lat="47.51801491" lon="-2.72872925"><ele></ele><time>2014-5-9T14:59:24Z</time></trkpt>
<trkpt lat="47.51840115" lon="-2.72933006"><ele></ele><time>2014-5-9T14:59:27Z</time></trkpt>
<trkpt lat="47.51883030" lon="-2.72997379"><ele></ele><time>2014-5-9T14:59:30Z</time></trkpt>
<trkpt lat="47.51923800" lon="-2.73057461"><ele></ele><time>2014-5-9T14:59:33Z</time></trkpt>
<trkpt lat="47.51992464" lon="-2.73156166"><ele></ele><time>2014-5-9T14:59:36Z</time></trkpt>
<trkpt lat="47.52024651" lon="-2.73205519"><ele></ele><time>2014-5-9T14:59:39Z</time></trkpt>
<trkpt lat="47.52024651" lon="-2.73203373"><ele></ele><time>2014-5-9T14:59:42Z</time></trkpt>
<trkpt lat="47.52024651" lon="-2.73205519"><ele></ele><time>2014-5-9T14:59:45Z</time></trkpt>
<trkpt lat="47.52020359" lon="-2.73214102"><ele></ele><time>2014-5-9T14:59:48Z</time></trkpt>
<trkpt lat="47.51992464" lon="-2.73261309"><ele></ele><time>2014-5-9T14:59:51Z</time></trkpt>
<trkpt lat="47.51975298" lon="-2.73327827"><ele></ele><time>2014-5-9T14:59:54Z</time></trkpt>
<trkpt lat="47.51973152" lon="-2.73334265"><ele></ele><time>2014-5-9T14:59:57Z</time></trkpt>
<trkpt lat="47.51962423" lon="-2.73381472"><ele></ele><time>2014-5-9T15:0:0Z</time></trkpt>
<trkpt lat="47.51962423" lon="-2.73405075"><ele></ele><time>2014-5-9T15:0:3Z</time></trkpt>
<trkpt lat="47.51966715" lon="-2.73456573"><ele></ele><time>2014-5-9T15:0:6Z</time></trkpt>
<trkpt lat="47.51973152" lon="-2.73531675"><ele></ele><time>2014-5-9T15:0:9Z</time></trkpt>
<trkpt lat="47.51973152" lon="-2.73600340"><ele></ele><time>2014-5-9T15:0:12Z</time></trkpt>
<trkpt lat="47.51966715" lon="-2.73686171"><ele></ele><time>2014-5-9T15:0:15Z</time></trkpt>
<trkpt lat="47.51958132" lon="-2.73748398"><ele></ele><time>2014-5-9T15:0:18Z</time></trkpt>
<trkpt lat="47.51960278" lon="-2.73844957"><ele></ele><time>2014-5-9T15:0:21Z</time></trkpt>
<trkpt lat="47.51962423" lon="-2.73935080"><ele></ele><time>2014-5-9T15:0:24Z</time></trkpt>
<trkpt lat="47.51966715" lon="-2.74020910"><ele></ele><time>2014-5-9T15:0:27Z</time></trkpt>
<trkpt lat="47.51966715" lon="-2.74100304"><ele></ele><time>2014-5-9T15:0:30Z</time></trkpt>
<trkpt lat="47.51964569" lon="-2.74138927"><ele></ele><time>2014-5-9T15:0:33Z</time></trkpt>
<trkpt lat="47.51966715" lon="-2.74141073"><ele></ele><time>2014-5-9T15:0:36Z</time></trkpt>
<trkpt lat="47.51968861" lon="-2.74156094"><ele></ele><time>2014-5-9T15:0:39Z</time></trkpt>
<trkpt lat="47.51968861" lon="-2.74220467"><ele></ele><time>2014-5-9T15:0:42Z</time></trkpt>
<trkpt lat="47.51971006" lon="-2.74280548"><ele></ele><time>2014-5-9T15:0:45Z</time></trkpt>
<trkpt lat="47.51971006" lon="-2.74289131"><ele></ele><time>2014-5-9T15:0:48Z</time></trkpt>
<trkpt lat="47.51975298" lon="-2.74312735"><ele></ele><time>2014-5-9T15:0:51Z</time></trkpt>
<trkpt lat="47.51977444" lon="-2.74344921"><ele></ele><time>2014-5-9T15:0:54Z</time></trkpt>
<trkpt lat="47.51977444" lon="-2.74385691"><ele></ele><time>2014-5-9T15:0:57Z</time></trkpt>
<trkpt lat="47.51971006" lon="-2.74411440"><ele></ele><time>2014-5-9T15:1:0Z</time></trkpt>
<trkpt lat="47.51973152" lon="-2.74407148"><ele></ele><time>2014-5-9T15:1:3Z</time></trkpt>
<trkpt lat="47.51975298" lon="-2.74400711"><ele></ele><time>2014-5-9T15:1:6Z</time></trkpt>
<trkpt lat="47.51977444" lon="-2.74394274"><ele></ele><time>2014-5-9T15:1:9Z</time></trkpt>
<trkpt lat="47.51975298" lon="-2.74392128"><ele></ele><time>2014-5-9T15:1:12Z</time></trkpt>
<trkpt lat="47.51968861" lon="-2.74355650"><ele></ele><time>2014-5-9T15:1:15Z</time></trkpt>
<trkpt lat="47.51962423" lon="-2.74308443"><ele></ele><time>2014-5-9T15:1:18Z</time></trkpt>
<trkpt lat="47.51962423" lon="-2.74250507"><ele></ele><time>2014-5-9T15:1:21Z</time></trkpt>
<trkpt lat="47.51964569" lon="-2.74196863"><ele></ele><time>2014-5-9T15:1:24Z</time></trkpt>
<trkpt lat="47.51964569" lon="-2.74147511"><ele></ele><time>2014-5-9T15:1:27Z</time></trkpt>
<trkpt lat="47.51966715" lon="-2.74111032"><ele></ele><time>2014-5-9T15:1:30Z</time></trkpt>
<trkpt lat="47.51966715" lon="-2.74053097"><ele></ele><time>2014-5-9T15:1:33Z</time></trkpt>
<trkpt lat="47.51964569" lon="-2.74001598"><ele></ele><time>2014-5-9T15:1:36Z</time></trkpt>
<trkpt lat="47.51962423" lon="-2.73941517"><ele></ele><time>2014-5-9T15:1:39Z</time></trkpt>
<trkpt lat="47.51960278" lon="-2.73885727"><ele></ele><time>2014-5-9T15:1:42Z</time></trkpt>
<trkpt lat="47.51955986" lon="-2.73804188"><ele></ele><time>2014-5-9T15:1:45Z</time></trkpt>
<trkpt lat="47.51955986" lon="-2.73741961"><ele></ele><time>2014-5-9T15:1:48Z</time></trkpt>
<trkpt lat="47.51964569" lon="-2.73703337"><ele></ele><time>2014-5-9T15:1:51Z</time></trkpt>
<trkpt lat="47.51971006" lon="-2.73628235"><ele></ele><time>2014-5-9T15:1:54Z</time></trkpt>
<trkpt lat="47.51971006" lon="-2.73540258"><ele></ele><time>2014-5-9T15:1:57Z</time></trkpt>
<trkpt lat="47.51966715" lon="-2.73452282"><ele></ele><time>2014-5-9T15:2:0Z</time></trkpt>
<trkpt lat="47.51966715" lon="-2.73422241"><ele></ele><time>2014-5-9T15:2:3Z</time></trkpt>
<trkpt lat="47.51964569" lon="-2.73407221"><ele></ele><time>2014-5-9T15:2:6Z</time></trkpt>
<trkpt lat="47.51962423" lon="-2.73394346"><ele></ele><time>2014-5-9T15:2:9Z</time></trkpt>
<trkpt lat="47.51966715" lon="-2.73357868"><ele></ele><time>2014-5-9T15:2:12Z</time></trkpt>
<trkpt lat="47.51981735" lon="-2.73291349"><ele></ele><time>2014-5-9T15:2:15Z</time></trkpt>
<trkpt lat="47.52003193" lon="-2.73237705"><ele></ele><time>2014-5-9T15:2:18Z</time></trkpt>
<trkpt lat="47.52016068" lon="-2.73211956"><ele></ele><time>2014-5-9T15:2:21Z</time></trkpt>
<trkpt lat="47.52018213" lon="-2.73209810"><ele></ele><time>2014-5-9T15:2:24Z</time></trkpt>
<trkpt lat="47.52018213" lon="-2.73209810"><ele></ele><time>2014-5-9T15:2:27Z</time></trkpt>
<trkpt lat="47.52026796" lon="-2.73207664"><ele></ele><time>2014-5-9T15:2:30Z</time></trkpt>
<trkpt lat="47.52058983" lon="-2.73259163"><ele></ele><time>2014-5-9T15:2:33Z</time></trkpt>
<trkpt lat="47.52104044" lon="-2.73323536"><ele></ele><time>2014-5-9T15:2:36Z</time></trkpt>
<trkpt lat="47.52151251" lon="-2.73396492"><ele></ele><time>2014-5-9T15:2:39Z</time></trkpt>
<trkpt lat="47.52189875" lon="-2.73452282"><ele></ele><time>2014-5-9T15:2:42Z</time></trkpt>
<trkpt lat="47.52228498" lon="-2.73510218"><ele></ele><time>2014-5-9T15:2:45Z</time></trkpt>
<trkpt lat="47.52269268" lon="-2.73568153"><ele></ele><time>2014-5-9T15:2:48Z</time></trkpt>
<trkpt lat="47.52303600" lon="-2.73619652"><ele></ele><time>2014-5-9T15:2:51Z</time></trkpt>
<trkpt lat="47.52333641" lon="-2.73641109"><ele></ele><time>2014-5-9T15:2:54Z</time></trkpt>
<trkpt lat="47.52376556" lon="-2.73664713"><ele></ele><time>2014-5-9T15:2:57Z</time></trkpt>
<trkpt lat="47.52404451" lon="-2.73709774"><ele></ele><time>2014-5-9T15:3:0Z</time></trkpt>
<trkpt lat="47.52428055" lon="-2.73765564"><ele></ele><time>2014-5-9T15:3:3Z</time></trkpt>
<trkpt lat="47.52447367" lon="-2.73823500"><ele></ele><time>2014-5-9T15:3:6Z</time></trkpt>
<trkpt lat="47.52468824" lon="-2.73896456"><ele></ele><time>2014-5-9T15:3:9Z</time></trkpt>
<trkpt lat="47.52505302" lon="-2.74008036"><ele></ele><time>2014-5-9T15:3:12Z</time></trkpt>
<trkpt lat="47.52533197" lon="-2.74068117"><ele></ele><time>2014-5-9T15:3:15Z</time></trkpt>
<trkpt lat="47.52565384" lon="-2.74196863"><ele></ele><time>2014-5-9T15:3:18Z</time></trkpt>
<trkpt lat="47.52578259" lon="-2.74329901"><ele></ele><time>2014-5-9T15:3:21Z</time></trkpt>
<trkpt lat="47.52582550" lon="-2.74379253"><ele></ele><time>2014-5-9T15:3:24Z</time></trkpt>
<trkpt lat="47.52593279" lon="-2.74402857"><ele></ele><time>2014-5-9T15:3:27Z</time></trkpt>
<trkpt lat="47.52593279" lon="-2.74437189"><ele></ele><time>2014-5-9T15:3:30Z</time></trkpt>
<trkpt lat="47.52595425" lon="-2.74473667"><ele></ele><time>2014-5-9T15:3:33Z</time></trkpt>
<trkpt lat="47.52604008" lon="-2.74529457"><ele></ele><time>2014-5-9T15:3:36Z</time></trkpt>
<trkpt lat="47.52606153" lon="-2.74580956"><ele></ele><time>2014-5-9T15:3:39Z</time></trkpt>
<trkpt lat="47.52619028" lon="-2.74673223"><ele></ele><time>2014-5-9T15:3:42Z</time></trkpt>
<trkpt lat="47.52636194" lon="-2.74776220"><ele></ele><time>2014-5-9T15:3:45Z</time></trkpt>
<trkpt lat="47.52651215" lon="-2.74868488"><ele></ele><time>2014-5-9T15:3:48Z</time></trkpt>
<trkpt lat="47.52670527" lon="-2.74947882"><ele></ele><time>2014-5-9T15:3:51Z</time></trkpt>
<trkpt lat="47.52689838" lon="-2.75035858"><ele></ele><time>2014-5-9T15:3:54Z</time></trkpt>
<trkpt lat="47.52715588" lon="-2.75110960"><ele></ele><time>2014-5-9T15:3:57Z</time></trkpt>
<trkpt lat="47.52752066" lon="-2.75164604"><ele></ele><time>2014-5-9T15:4:0Z</time></trkpt>
<trkpt lat="47.52801418" lon="-2.75209665"><ele></ele><time>2014-5-9T15:4:3Z</time></trkpt>
<trkpt lat="47.52825022" lon="-2.75224686"><ele></ele><time>2014-5-9T15:4:6Z</time></trkpt>
<trkpt lat="47.52833605" lon="-2.75235415"><ele></ele><time>2014-5-9T15:4:9Z</time></trkpt>
<trkpt lat="47.52867937" lon="-2.75286913"><ele></ele><time>2014-5-9T15:4:12Z</time></trkpt>
<trkpt lat="47.52870083" lon="-2.75297642"><ele></ele><time>2014-5-9T15:4:15Z</time></trkpt>
<trkpt lat="47.52887249" lon="-2.75329828"><ele></ele><time>2014-5-9T15:4:18Z</time></trkpt>
<trkpt lat="47.52891541" lon="-2.75379181"><ele></ele><time>2014-5-9T15:4:21Z</time></trkpt>
<trkpt lat="47.52887249" lon="-2.75407076"><ele></ele><time>2014-5-9T15:4:24Z</time></trkpt>
<trkpt lat="47.52876520" lon="-2.75432825"><ele></ele><time>2014-5-9T15:4:27Z</time></trkpt>
<trkpt lat="47.52850771" lon="-2.75465012"><ele></ele><time>2014-5-9T15:4:30Z</time></trkpt>
<trkpt lat="47.52812147" lon="-2.75507927"><ele></ele><time>2014-5-9T15:4:33Z</time></trkpt>
<trkpt lat="47.52779961" lon="-2.75544405"><ele></ele><time>2014-5-9T15:4:36Z</time></trkpt>
<trkpt lat="47.52767086" lon="-2.75574446"><ele></ele><time>2014-5-9T15:4:39Z</time></trkpt>
<trkpt lat="47.52769232" lon="-2.75583029"><ele></ele><time>2014-5-9T15:4:42Z</time></trkpt>
<trkpt lat="47.52771378" lon="-2.75587320"><ele></ele><time>2014-5-9T15:4:45Z</time></trkpt>
<trkpt lat="47.52769232" lon="-2.75598049"><ele></ele><time>2014-5-9T15:4:48Z</time></trkpt>
<trkpt lat="47.52769232" lon="-2.75625944"><ele></ele><time>2014-5-9T15:4:51Z</time></trkpt>
<trkpt lat="47.52754211" lon="-2.75636673"><ele></ele><time>2014-5-9T15:4:54Z</time></trkpt>
<trkpt lat="47.52756357" lon="-2.75655985"><ele></ele><time>2014-5-9T15:4:57Z</time></trkpt>
<trkpt lat="47.52767086" lon="-2.75713921"><ele></ele><time>2014-5-9T15:5:0Z</time></trkpt>
<trkpt lat="47.52775669" lon="-2.75771856"><ele></ele><time>2014-5-9T15:5:3Z</time></trkpt>
<trkpt lat="47.52786398" lon="-2.75861979"><ele></ele><time>2014-5-9T15:5:6Z</time></trkpt>
<trkpt lat="47.52788544" lon="-2.75922060"><ele></ele><time>2014-5-9T15:5:9Z</time></trkpt>
<trkpt lat="47.52786398" lon="-2.76005745"><ele></ele><time>2014-5-9T15:5:12Z</time></trkpt>
<trkpt lat="47.52779961" lon="-2.76106596"><ele></ele><time>2014-5-9T15:5:15Z</time></trkpt>
<trkpt lat="47.52775669" lon="-2.76201010"><ele></ele><time>2014-5-9T15:5:18Z</time></trkpt>
<trkpt lat="47.52771378" lon="-2.76295424"><ele></ele><time>2014-5-9T15:5:21Z</time></trkpt>
<trkpt lat="47.52767086" lon="-2.76402712"><ele></ele><time>2014-5-9T15:5:24Z</time></trkpt>
<trkpt lat="47.52760649" lon="-2.76514292"><ele></ele><time>2014-5-9T15:5:27Z</time></trkpt>
<trkpt lat="47.52741337" lon="-2.76525021"><ele></ele><time>2014-5-9T15:5:30Z</time></trkpt>
<trkpt lat="47.52681255" lon="-2.76522875"><ele></ele><time>2014-5-9T15:5:33Z</time></trkpt>
<trkpt lat="47.52642632" lon="-2.76540041"><ele></ele><time>2014-5-9T15:5:36Z</time></trkpt>
<trkpt lat="47.52627611" lon="-2.76587248"><ele></ele><time>2014-5-9T15:5:39Z</time></trkpt>
<trkpt lat="47.52629757" lon="-2.76617289"><ele></ele><time>2014-5-9T15:5:42Z</time></trkpt>
<trkpt lat="47.52644777" lon="-2.76647329"><ele></ele><time>2014-5-9T15:5:45Z</time></trkpt>
<trkpt lat="47.52655506" lon="-2.76673079"><ele></ele><time>2014-5-9T15:5:48Z</time></trkpt>
<trkpt lat="47.52651215" lon="-2.76707411"><ele></ele><time>2014-5-9T15:5:51Z</time></trkpt>
<trkpt lat="47.52646923" lon="-2.76756763"><ele></ele><time>2014-5-9T15:5:54Z</time></trkpt>
<trkpt lat="47.52642632" lon="-2.76803970"><ele></ele><time>2014-5-9T15:5:57Z</time></trkpt>
<trkpt lat="47.52653360" lon="-2.76838303"><ele></ele><time>2014-5-9T15:6:0Z</time></trkpt>
<trkpt lat="47.52651215" lon="-2.76844740"><ele></ele><time>2014-5-9T15:6:3Z</time></trkpt>
<trkpt lat="47.52649069" lon="-2.76881218"><ele></ele><time>2014-5-9T15:6:6Z</time></trkpt>
<trkpt lat="47.52651215" lon="-2.76911259"><ele></ele><time>2014-5-9T15:6:9Z</time></trkpt>
<trkpt lat="47.52649069" lon="-2.76934862"><ele></ele><time>2014-5-9T15:6:12Z</time></trkpt>
<trkpt lat="47.52657652" lon="-2.76958466"><ele></ele><time>2014-5-9T15:6:15Z</time></trkpt>
<trkpt lat="47.52666235" lon="-2.76969194"><ele></ele><time>2014-5-9T15:6:18Z</time></trkpt>
<trkpt lat="47.52683401" lon="-2.76952028"><ele></ele><time>2014-5-9T15:6:21Z</time></trkpt>
<trkpt lat="47.52719879" lon="-2.76913404"><ele></ele><time>2014-5-9T15:6:24Z</time></trkpt>
<trkpt lat="47.52722025" lon="-2.76909113"><ele></ele><time>2014-5-9T15:6:27Z</time></trkpt>
<trkpt lat="47.52739191" lon="-2.76913404"><ele></ele><time>2014-5-9T15:6:30Z</time></trkpt>
<trkpt lat="47.52754211" lon="-2.76919842"><ele></ele><time>2014-5-9T15:6:33Z</time></trkpt>
<trkpt lat="47.52754211" lon="-2.76947737"><ele></ele><time>2014-5-9T15:6:36Z</time></trkpt>
<trkpt lat="47.52756357" lon="-2.76967049"><ele></ele><time>2014-5-9T15:6:39Z</time></trkpt>
<trkpt lat="47.52758503" lon="-2.76932716"><ele></ele><time>2014-5-9T15:6:42Z</time></trkpt>
<trkpt lat="47.52756357" lon="-2.76930571"><ele></ele><time>2014-5-9T15:6:45Z</time></trkpt>
<trkpt lat="47.52756357" lon="-2.76932716"><ele></ele><time>2014-5-9T15:6:48Z</time></trkpt>
<trkpt lat="47.52756357" lon="-2.76930571"><ele></ele><time>2014-5-9T15:6:51Z</time></trkpt>
<trkpt lat="47.52756357" lon="-2.76928425"><ele></ele><time>2014-5-9T15:6:54Z</time></trkpt>
<trkpt lat="47.52752066" lon="-2.76915550"><ele></ele><time>2014-5-9T15:6:57Z</time></trkpt>
<trkpt lat="47.52752066" lon="-2.76937008"><ele></ele><time>2014-5-9T15:7:0Z</time></trkpt>
<trkpt lat="47.52752066" lon="-2.76934862"><ele></ele><time>2014-5-9T15:7:3Z</time></trkpt>
<trkpt lat="47.52747774" lon="-2.76932716"><ele></ele><time>2014-5-9T15:7:6Z</time></trkpt>
<trkpt lat="47.52749920" lon="-2.76930571"><ele></ele><time>2014-5-9T15:7:9Z</time></trkpt>
<trkpt lat="47.52749920" lon="-2.76930571"><ele></ele><time>2014-5-9T15:7:12Z</time></trkpt>
<trkpt lat="47.52749920" lon="-2.76930571"><ele></ele><time>2014-5-9T15:7:15Z</time></trkpt>
<trkpt lat="47.52749920" lon="-2.76930571"><ele></ele><time>2014-5-9T15:7:18Z</time></trkpt>
<trkpt lat="47.52752066" lon="-2.76932716"><ele></ele><time>2014-5-9T15:7:21Z</time></trkpt>
<trkpt lat="47.52752066" lon="-2.76932716"><ele></ele><time>2014-5-9T15:7:24Z</time></trkpt>
<trkpt lat="47.52752066" lon="-2.76932716"><ele></ele><time>2014-5-9T15:7:27Z</time></trkpt>
<trkpt lat="47.49782324" lon="-2.76801825"><ele></ele><time>2014-5-9T15:7:30Z</time></trkpt>
<trkpt lat="47.49782324" lon="-2.76808262"><ele></ele><time>2014-5-9T15:7:33Z</time></trkpt>
<trkpt lat="47.49778032" lon="-2.76801825"><ele></ele><time>2014-5-9T15:7:36Z</time></trkpt>
<trkpt lat="47.49778032" lon="-2.76797533"><ele></ele><time>2014-5-9T15:7:39Z</time></trkpt>
<trkpt lat="47.49782324" lon="-2.76758909"><ele></ele><time>2014-5-9T15:7:42Z</time></trkpt>
<trkpt lat="47.49782324" lon="-2.76754618"><ele></ele><time>2014-5-9T15:7:45Z</time></trkpt>
<trkpt lat="47.49778032" lon="-2.76707411"><ele></ele><time>2014-5-9T15:7:48Z</time></trkpt>
<trkpt lat="47.49782324" lon="-2.76658058"><ele></ele><time>2014-5-9T15:7:51Z</time></trkpt>
<trkpt lat="47.49788761" lon="-2.76610851"><ele></ele><time>2014-5-9T15:7:54Z</time></trkpt>
<trkpt lat="47.49786615" lon="-2.76576519"><ele></ele><time>2014-5-9T15:7:57Z</time></trkpt>
<trkpt lat="47.49786615" lon="-2.76548624"><ele></ele><time>2014-5-9T15:8:0Z</time></trkpt>
<trkpt lat="47.49790907" lon="-2.76512146"><ele></ele><time>2014-5-9T15:8:3Z</time></trkpt>
<trkpt lat="47.49793053" lon="-2.76505709"><ele></ele><time>2014-5-9T15:8:6Z</time></trkpt>
<trkpt lat="47.49790907" lon="-2.76490688"><ele></ele><time>2014-5-9T15:8:9Z</time></trkpt>
<trkpt lat="47.49788761" lon="-2.76458502"><ele></ele><time>2014-5-9T15:8:12Z</time></trkpt>
<trkpt lat="47.49793053" lon="-2.76445627"><ele></ele><time>2014-5-9T15:8:15Z</time></trkpt>
<trkpt lat="47.49793053" lon="-2.76437044"><ele></ele><time>2014-5-9T15:8:18Z</time></trkpt>
<trkpt lat="47.49793053" lon="-2.76419878"><ele></ele><time>2014-5-9T15:8:21Z</time></trkpt>
<trkpt lat="47.49795198" lon="-2.76387691"><ele></ele><time>2014-5-9T15:8:24Z</time></trkpt>
<trkpt lat="47.49786615" lon="-2.76340485"><ele></ele><time>2014-5-9T15:8:27Z</time></trkpt>
<trkpt lat="47.49778032" lon="-2.76314735"><ele></ele><time>2014-5-9T15:8:30Z</time></trkpt>
<trkpt lat="47.49782324" lon="-2.76288986"><ele></ele><time>2014-5-9T15:8:33Z</time></trkpt>
<trkpt lat="47.49782324" lon="-2.76250362"><ele></ele><time>2014-5-9T15:8:36Z</time></trkpt>
<trkpt lat="47.49780178" lon="-2.76218176"><ele></ele><time>2014-5-9T15:8:39Z</time></trkpt>
<trkpt lat="47.49782324" lon="-2.76177406"><ele></ele><time>2014-5-9T15:8:42Z</time></trkpt>
<trkpt lat="47.49786615" lon="-2.76143074"><ele></ele><time>2014-5-9T15:8:45Z</time></trkpt>
<trkpt lat="47.49786615" lon="-2.76115179"><ele></ele><time>2014-5-9T15:8:48Z</time></trkpt>
<trkpt lat="47.49782324" lon="-2.76076555"><ele></ele><time>2014-5-9T15:8:51Z</time></trkpt>
<trkpt lat="47.49780178" lon="-2.76040077"><ele></ele><time>2014-5-9T15:8:54Z</time></trkpt>
<trkpt lat="47.49780178" lon="-2.76016474"><ele></ele><time>2014-5-9T15:8:57Z</time></trkpt>
<trkpt lat="47.49771595" lon="-2.75975704"><ele></ele><time>2014-5-9T15:9:0Z</time></trkpt>
<trkpt lat="47.49765158" lon="-2.75907040"><ele></ele><time>2014-5-9T15:9:3Z</time></trkpt>
<trkpt lat="47.49758720" lon="-2.75876999"><ele></ele><time>2014-5-9T15:9:6Z</time></trkpt>
<trkpt lat="47.49754429" lon="-2.75838375"><ele></ele><time>2014-5-9T15:9:9Z</time></trkpt>
<trkpt lat="47.49747992" lon="-2.75808334"><ele></ele><time>2014-5-9T15:9:12Z</time></trkpt>
<trkpt lat="47.49745846" lon="-2.75769711"><ele></ele><time>2014-5-9T15:9:15Z</time></trkpt>
<trkpt lat="47.49739408" lon="-2.75741816"><ele></ele><time>2014-5-9T15:9:18Z</time></trkpt>
<trkpt lat="47.49741554" lon="-2.75716066"><ele></ele><time>2014-5-9T15:9:21Z</time></trkpt>
<trkpt lat="47.49747992" lon="-2.75683880"><ele></ele><time>2014-5-9T15:9:24Z</time></trkpt>
<trkpt lat="47.49754429" lon="-2.75653839"><ele></ele><time>2014-5-9T15:9:27Z</time></trkpt>
<trkpt lat="47.49771595" lon="-2.75613070"><ele></ele><time>2014-5-9T15:9:30Z</time></trkpt>
<trkpt lat="47.49790907" lon="-2.75563717"><ele></ele><time>2014-5-9T15:9:33Z</time></trkpt>
<trkpt lat="47.49808073" lon="-2.75529385"><ele></ele><time>2014-5-9T15:9:36Z</time></trkpt>
<trkpt lat="47.49825239" lon="-2.75492907"><ele></ele><time>2014-5-9T15:9:39Z</time></trkpt>
<trkpt lat="47.49835968" lon="-2.75460720"><ele></ele><time>2014-5-9T15:9:42Z</time></trkpt>
<trkpt lat="47.49848843" lon="-2.75422096"><ele></ele><time>2014-5-9T15:9:45Z</time></trkpt>
<trkpt lat="47.49853134" lon="-2.75385618"><ele></ele><time>2014-5-9T15:9:48Z</time></trkpt>
<trkpt lat="47.49861717" lon="-2.75346994"><ele></ele><time>2014-5-9T15:9:51Z</time></trkpt>
<trkpt lat="47.49872446" lon="-2.75312662"><ele></ele><time>2014-5-9T15:9:54Z</time></trkpt>
<trkpt lat="47.49872446" lon="-2.75304079"><ele></ele><time>2014-5-9T15:9:57Z</time></trkpt>
<trkpt lat="47.49868155" lon="-2.75301933"><ele></ele><time>2014-5-9T15:10:0Z</time></trkpt>
<trkpt lat="47.49863863" lon="-2.75289059"><ele></ele><time>2014-5-9T15:10:3Z</time></trkpt>
<trkpt lat="47.49861717" lon="-2.75246143"><ele></ele><time>2014-5-9T15:10:6Z</time></trkpt>
<trkpt lat="47.49868155" lon="-2.75203228"><ele></ele><time>2014-5-9T15:10:9Z</time></trkpt>
<trkpt lat="47.49874592" lon="-2.75164604"><ele></ele><time>2014-5-9T15:10:12Z</time></trkpt>
<trkpt lat="47.49881029" lon="-2.75121689"><ele></ele><time>2014-5-9T15:10:15Z</time></trkpt>
<trkpt lat="47.49889612" lon="-2.75085211"><ele></ele><time>2014-5-9T15:10:18Z</time></trkpt>
<trkpt lat="47.49891758" lon="-2.75038004"><ele></ele><time>2014-5-9T15:10:21Z</time></trkpt>
<trkpt lat="47.49893904" lon="-2.74954319"><ele></ele><time>2014-5-9T15:10:24Z</time></trkpt>
<trkpt lat="47.49898195" lon="-2.74904966"><ele></ele><time>2014-5-9T15:10:27Z</time></trkpt>
<trkpt lat="47.49921799" lon="-2.74801970"><ele></ele><time>2014-5-9T15:10:30Z</time></trkpt>
<trkpt lat="47.49926090" lon="-2.74789095"><ele></ele><time>2014-5-9T15:10:33Z</time></trkpt>
<trkpt lat="47.49926090" lon="-2.74769783"><ele></ele><time>2014-5-9T15:10:36Z</time></trkpt>
<trkpt lat="47.49926090" lon="-2.74767637"><ele></ele><time>2014-5-9T15:10:39Z</time></trkpt>
<trkpt lat="47.49926090" lon="-2.74765491"><ele></ele><time>2014-5-9T15:10:42Z</time></trkpt>
<trkpt lat="47.49928236" lon="-2.74767637"><ele></ele><time>2014-5-9T15:10:45Z</time></trkpt>
<trkpt lat="47.49930382" lon="-2.74767637"><ele></ele><time>2014-5-9T15:10:48Z</time></trkpt>
<trkpt lat="47.49932528" lon="-2.74795532"><ele></ele><time>2014-5-9T15:10:51Z</time></trkpt>
<trkpt lat="47.49928236" lon="-2.74829865"><ele></ele><time>2014-5-9T15:10:54Z</time></trkpt>
<trkpt lat="47.49923944" lon="-2.74864197"><ele></ele><time>2014-5-9T15:10:57Z</time></trkpt>
<trkpt lat="47.49915361" lon="-2.74898529"><ele></ele><time>2014-5-9T15:11:0Z</time></trkpt>
<trkpt lat="47.49904633" lon="-2.74932861"><ele></ele><time>2014-5-9T15:11:3Z</time></trkpt>
<trkpt lat="47.49896049" lon="-2.74960756"><ele></ele><time>2014-5-9T15:11:6Z</time></trkpt>
<trkpt lat="47.49887466" lon="-2.74986506"><ele></ele><time>2014-5-9T15:11:9Z</time></trkpt>
<trkpt lat="47.49881029" lon="-2.75014400"><ele></ele><time>2014-5-9T15:11:12Z</time></trkpt>
<trkpt lat="47.49881029" lon="-2.75046587"><ele></ele><time>2014-5-9T15:11:15Z</time></trkpt>
<trkpt lat="47.49881029" lon="-2.75078773"><ele></ele><time>2014-5-9T15:11:18Z</time></trkpt>
<trkpt lat="47.49878883" lon="-2.75106668"><ele></ele><time>2014-5-9T15:11:21Z</time></trkpt>
<trkpt lat="47.49872446" lon="-2.75138855"><ele></ele><time>2014-5-9T15:11:24Z</time></trkpt>
<trkpt lat="47.49868155" lon="-2.75168896"><ele></ele><time>2014-5-9T15:11:27Z</time></trkpt>
<trkpt lat="47.49863863" lon="-2.75198936"><ele></ele><time>2014-5-9T15:11:30Z</time></trkpt>
<trkpt lat="47.49861717" lon="-2.75224686"><ele></ele><time>2014-5-9T15:11:33Z</time></trkpt>
<trkpt lat="47.49861717" lon="-2.75259018"><ele></ele><time>2014-5-9T15:11:36Z</time></trkpt>
<trkpt lat="47.49861717" lon="-2.75284767"><ele></ele><time>2014-5-9T15:11:39Z</time></trkpt>
<trkpt lat="47.49866009" lon="-2.75299788"><ele></ele><time>2014-5-9T15:11:42Z</time></trkpt>
<trkpt lat="47.49868155" lon="-2.75304079"><ele></ele><time>2014-5-9T15:11:45Z</time></trkpt>
<trkpt lat="47.49868155" lon="-2.75325537"><ele></ele><time>2014-5-9T15:11:48Z</time></trkpt>
<trkpt lat="47.49855280" lon="-2.75362015"><ele></ele><time>2014-5-9T15:11:51Z</time></trkpt>
<trkpt lat="47.49853134" lon="-2.75400639"><ele></ele><time>2014-5-9T15:11:54Z</time></trkpt>
<trkpt lat="47.49850988" lon="-2.75434971"><ele></ele><time>2014-5-9T15:11:57Z</time></trkpt>
<trkpt lat="47.49844551" lon="-2.75467157"><ele></ele><time>2014-5-9T15:12:0Z</time></trkpt>
<trkpt lat="47.49833822" lon="-2.75499344"><ele></ele><time>2014-5-9T15:12:3Z</time></trkpt>
<trkpt lat="47.49818802" lon="-2.75527239"><ele></ele><time>2014-5-9T15:12:6Z</time></trkpt>
<trkpt lat="47.49823093" lon="-2.75527239"><ele></ele><time>2014-5-9T15:12:9Z</time></trkpt>
<trkpt lat="47.49805927" lon="-2.75546551"><ele></ele><time>2014-5-9T15:12:12Z</time></trkpt>
<trkpt lat="47.49790907" lon="-2.75570154"><ele></ele><time>2014-5-9T15:12:15Z</time></trkpt>
<trkpt lat="47.49778032" lon="-2.75598049"><ele></ele><time>2014-5-9T15:12:18Z</time></trkpt>
<trkpt lat="47.49773741" lon="-2.75602341"><ele></ele><time>2014-5-9T15:12:21Z</time></trkpt>
<trkpt lat="47.49767303" lon="-2.75598049"><ele></ele><time>2014-5-9T15:12:24Z</time></trkpt>
<trkpt lat="47.49767303" lon="-2.75598049"><ele></ele><time>2014-5-9T15:12:27Z</time></trkpt>
<trkpt lat="47.49763012" lon="-2.75598049"><ele></ele><time>2014-5-9T15:12:30Z</time></trkpt>
<trkpt lat="47.49754429" lon="-2.75621653"><ele></ele><time>2014-5-9T15:12:33Z</time></trkpt>
<trkpt lat="47.49750137" lon="-2.75649548"><ele></ele><time>2014-5-9T15:12:36Z</time></trkpt>
<trkpt lat="47.49745846" lon="-2.75677443"><ele></ele><time>2014-5-9T15:12:39Z</time></trkpt>
<trkpt lat="47.49743700" lon="-2.75688171"><ele></ele><time>2014-5-9T15:12:42Z</time></trkpt>
<trkpt lat="47.49743700" lon="-2.75705338"><ele></ele><time>2014-5-9T15:12:45Z</time></trkpt>
<trkpt lat="47.49741554" lon="-2.75726795"><ele></ele><time>2014-5-9T15:12:48Z</time></trkpt>
<trkpt lat="47.49743700" lon="-2.75746107"><ele></ele><time>2014-5-9T15:12:51Z</time></trkpt>
<trkpt lat="47.49743700" lon="-2.75746107"><ele></ele><time>2014-5-9T15:12:54Z</time></trkpt>
<trkpt lat="47.49743700" lon="-2.75769711"><ele></ele><time>2014-5-9T15:12:57Z</time></trkpt>
<trkpt lat="47.49745846" lon="-2.75801897"><ele></ele><time>2014-5-9T15:13:0Z</time></trkpt>
<trkpt lat="47.49750137" lon="-2.75834084"><ele></ele><time>2014-5-9T15:13:3Z</time></trkpt>
<trkpt lat="47.49752283" lon="-2.75861979"><ele></ele><time>2014-5-9T15:13:6Z</time></trkpt>
<trkpt lat="47.49756575" lon="-2.75896311"><ele></ele><time>2014-5-9T15:13:9Z</time></trkpt>
<trkpt lat="47.49760866" lon="-2.75926352"><ele></ele><time>2014-5-9T15:13:12Z</time></trkpt>
<trkpt lat="47.49767303" lon="-2.75954247"><ele></ele><time>2014-5-9T15:13:15Z</time></trkpt>
<trkpt lat="47.49769449" lon="-2.75975704"><ele></ele><time>2014-5-9T15:13:18Z</time></trkpt>
<trkpt lat="47.49771595" lon="-2.76005745"><ele></ele><time>2014-5-9T15:13:21Z</time></trkpt>
<trkpt lat="47.49773741" lon="-2.76031494"><ele></ele><time>2014-5-9T15:13:24Z</time></trkpt>
<trkpt lat="47.49778032" lon="-2.76061535"><ele></ele><time>2014-5-9T15:13:27Z</time></trkpt>
<trkpt lat="47.49778032" lon="-2.76080847"><ele></ele><time>2014-5-9T15:13:30Z</time></trkpt>
<trkpt lat="47.49778032" lon="-2.76110888"><ele></ele><time>2014-5-9T15:13:33Z</time></trkpt>
<trkpt lat="47.49775887" lon="-2.76145220"><ele></ele><time>2014-5-9T15:13:36Z</time></trkpt>
<trkpt lat="47.49769449" lon="-2.76181698"><ele></ele><time>2014-5-9T15:13:39Z</time></trkpt>
<trkpt lat="47.49769449" lon="-2.76211739"><ele></ele><time>2014-5-9T15:13:42Z</time></trkpt>
<trkpt lat="47.49769449" lon="-2.76241779"><ele></ele><time>2014-5-9T15:13:45Z</time></trkpt>
<trkpt lat="47.49773741" lon="-2.76271820"><ele></ele><time>2014-5-9T15:13:48Z</time></trkpt>
<trkpt lat="47.49775887" lon="-2.76301861"><ele></ele><time>2014-5-9T15:13:51Z</time></trkpt>
<trkpt lat="47.49778032" lon="-2.76314735"><ele></ele><time>2014-5-9T15:13:54Z</time></trkpt>
<trkpt lat="47.49780178" lon="-2.76346922"><ele></ele><time>2014-5-9T15:13:57Z</time></trkpt>
<trkpt lat="47.49782324" lon="-2.76359797"><ele></ele><time>2014-5-9T15:14:0Z</time></trkpt>
<trkpt lat="47.49788761" lon="-2.76366234"><ele></ele><time>2014-5-9T15:14:3Z</time></trkpt>
<trkpt lat="47.49788761" lon="-2.76389837"><ele></ele><time>2014-5-9T15:14:6Z</time></trkpt>
<trkpt lat="47.49786615" lon="-2.76419878"><ele></ele><time>2014-5-9T15:14:9Z</time></trkpt>
<trkpt lat="47.49788761" lon="-2.76449919"><ele></ele><time>2014-5-9T15:14:12Z</time></trkpt>
<trkpt lat="47.49788761" lon="-2.76467085"><ele></ele><time>2014-5-9T15:14:15Z</time></trkpt>
<trkpt lat="47.49790907" lon="-2.76505709"><ele></ele><time>2014-5-9T15:14:18Z</time></trkpt>
<trkpt lat="47.49790907" lon="-2.76510000"><ele></ele><time>2014-5-9T15:14:21Z</time></trkpt>
<trkpt lat="47.49780178" lon="-2.76529312"><ele></ele><time>2014-5-9T15:14:24Z</time></trkpt>
<trkpt lat="47.49782324" lon="-2.76550770"><ele></ele><time>2014-5-9T15:14:27Z</time></trkpt>
<trkpt lat="47.49782324" lon="-2.76582956"><ele></ele><time>2014-5-9T15:14:30Z</time></trkpt>
<trkpt lat="47.49782324" lon="-2.76610851"><ele></ele><time>2014-5-9T15:14:33Z</time></trkpt>
<trkpt lat="47.49784470" lon="-2.76647329"><ele></ele><time>2014-5-9T15:14:36Z</time></trkpt>
<trkpt lat="47.49784470" lon="-2.76677370"><ele></ele><time>2014-5-9T15:14:39Z</time></trkpt>
<trkpt lat="47.49784470" lon="-2.76705265"><ele></ele><time>2014-5-9T15:14:42Z</time></trkpt>
<trkpt lat="47.49782324" lon="-2.76735306"><ele></ele><time>2014-5-9T15:14:45Z</time></trkpt>
<trkpt lat="47.49782324" lon="-2.76761055"><ele></ele><time>2014-5-9T15:14:48Z</time></trkpt>
<trkpt lat="47.49782324" lon="-2.76788950"><ele></ele><time>2014-5-9T15:14:51Z</time></trkpt>
<trkpt lat="47.49782324" lon="-2.76801825"><ele></ele><time>2014-5-9T15:14:54Z</time></trkpt>
<trkpt lat="47.49784470" lon="-2.76803970"><ele></ele><time>2014-5-9T15:14:57Z</time></trkpt>
<trkpt lat="47.49782324" lon="-2.76801825"><ele></ele><time>2014-5-9T15:15:0Z</time></trkpt>
<trkpt lat="47.49784470" lon="-2.76799679"><ele></ele><time>2014-5-9T15:15:3Z</time></trkpt>
<trkpt lat="47.49784470" lon="-2.76799679"><ele></ele><time>2014-5-9T15:15:6Z</time></trkpt>
<trkpt lat="47.49784470" lon="-2.76799679"><ele></ele><time>2014-5-9T15:15:9Z</time></trkpt>
<trkpt lat="47.49786615" lon="-2.76808262"><ele></ele><time>2014-5-9T15:15:12Z</time></trkpt>
<trkpt lat="47.49790907" lon="-2.76825428"><ele></ele><time>2014-5-9T15:15:15Z</time></trkpt>
<trkpt lat="47.49782324" lon="-2.76911259"><ele></ele><time>2014-5-9T15:15:18Z</time></trkpt>
<trkpt lat="47.49773741" lon="-2.76984215"><ele></ele><time>2014-5-9T15:15:21Z</time></trkpt>
<trkpt lat="47.49763012" lon="-2.77057171"><ele></ele><time>2014-5-9T15:15:24Z</time></trkpt>
<trkpt lat="47.49754429" lon="-2.77112961"><ele></ele><time>2014-5-9T15:15:27Z</time></trkpt>
<trkpt lat="47.49763012" lon="-2.77127981"><ele></ele><time>2014-5-9T15:15:30Z</time></trkpt>
<trkpt lat="47.49812365" lon="-2.77110815"><ele></ele><time>2014-5-9T15:15:33Z</time></trkpt>
<trkpt lat="47.49919653" lon="-2.77063608"><ele></ele><time>2014-5-9T15:15:36Z</time></trkpt>
<trkpt lat="47.49981880" lon="-2.77080774"><ele></ele><time>2014-5-9T15:15:39Z</time></trkpt>
<trkpt lat="47.50069857" lon="-2.77145147"><ele></ele><time>2014-5-9T15:15:42Z</time></trkpt>
<trkpt lat="47.50183582" lon="-2.77175188"><ele></ele><time>2014-5-9T15:15:45Z</time></trkpt>
<trkpt lat="47.50265121" lon="-2.77179480"><ele></ele><time>2014-5-9T15:15:48Z</time></trkpt>
<trkpt lat="47.50299454" lon="-2.77200937"><ele></ele><time>2014-5-9T15:15:51Z</time></trkpt>
<trkpt lat="47.50350952" lon="-2.77241707"><ele></ele><time>2014-5-9T15:15:54Z</time></trkpt>
<trkpt lat="47.50428200" lon="-2.77282476"><ele></ele><time>2014-5-9T15:15:57Z</time></trkpt>
<trkpt lat="47.50460386" lon="-2.77288914"><ele></ele><time>2014-5-9T15:16:0Z</time></trkpt>
<trkpt lat="47.50518322" lon="-2.77250290"><ele></ele><time>2014-5-9T15:16:3Z</time></trkpt>
<trkpt lat="47.50606298" lon="-2.77215958"><ele></ele><time>2014-5-9T15:16:6Z</time></trkpt>
<trkpt lat="47.50735044" lon="-2.77196646"><ele></ele><time>2014-5-9T15:16:9Z</time></trkpt>
<trkpt lat="47.50844479" lon="-2.77188063"><ele></ele><time>2014-5-9T15:16:12Z</time></trkpt>
<trkpt lat="47.50889540" lon="-2.77160168"><ele></ele><time>2014-5-9T15:16:15Z</time></trkpt>
<trkpt lat="47.51022577" lon="-2.77035713"><ele></ele><time>2014-5-9T15:16:18Z</time></trkpt>
<trkpt lat="47.51157761" lon="-2.76909113"><ele></ele><time>2014-5-9T15:16:21Z</time></trkpt>
<trkpt lat="47.51198530" lon="-2.76849031"><ele></ele><time>2014-5-9T15:16:24Z</time></trkpt>
<trkpt lat="47.51256466" lon="-2.76711702"><ele></ele><time>2014-5-9T15:16:27Z</time></trkpt>
<trkpt lat="47.51301527" lon="-2.76670933"><ele></ele><time>2014-5-9T15:16:30Z</time></trkpt>
<trkpt lat="47.51423836" lon="-2.76638746"><ele></ele><time>2014-5-9T15:16:33Z</time></trkpt>
<trkpt lat="47.51535416" lon="-2.76640892"><ele></ele><time>2014-5-9T15:16:36Z</time></trkpt>
<trkpt lat="47.51569748" lon="-2.76632309"><ele></ele><time>2014-5-9T15:16:39Z</time></trkpt>
<trkpt lat="47.51614809" lon="-2.76640892"><ele></ele><time>2014-5-9T15:16:42Z</time></trkpt>
<trkpt lat="47.51687765" lon="-2.76713848"><ele></ele><time>2014-5-9T15:16:45Z</time></trkpt>
<trkpt lat="47.51799345" lon="-2.76806116"><ele></ele><time>2014-5-9T15:16:48Z</time></trkpt>
<trkpt lat="47.51857281" lon="-2.76849031"><ele></ele><time>2014-5-9T15:16:51Z</time></trkpt>
<trkpt lat="47.51891613" lon="-2.76855469"><ele></ele><time>2014-5-9T15:16:54Z</time></trkpt>
<trkpt lat="47.51981735" lon="-2.76827574"><ele></ele><time>2014-5-9T15:16:57Z</time></trkpt>
<trkpt lat="47.52080441" lon="-2.76788950"><ele></ele><time>2014-5-9T15:17:0Z</time></trkpt>
<trkpt lat="47.52179146" lon="-2.76769638"><ele></ele><time>2014-5-9T15:17:3Z</time></trkpt>
<trkpt lat="47.52192020" lon="-2.76763201"><ele></ele><time>2014-5-9T15:17:6Z</time></trkpt>
<trkpt lat="47.52196312" lon="-2.76758909"><ele></ele><time>2014-5-9T15:17:9Z</time></trkpt>
<trkpt lat="47.52213478" lon="-2.76735306"><ele></ele><time>2014-5-9T15:17:12Z</time></trkpt>
<trkpt lat="47.52237082" lon="-2.76746035"><ele></ele><time>2014-5-9T15:17:15Z</time></trkpt>
<trkpt lat="47.52275705" lon="-2.76767492"><ele></ele><time>2014-5-9T15:17:18Z</time></trkpt>
<trkpt lat="47.52322912" lon="-2.76773930"><ele></ele><time>2014-5-9T15:17:21Z</time></trkpt>
<trkpt lat="47.52346516" lon="-2.76797533"><ele></ele><time>2014-5-9T15:17:24Z</time></trkpt>
<trkpt lat="47.52406597" lon="-2.76881218"><ele></ele><time>2014-5-9T15:17:27Z</time></trkpt>
<trkpt lat="47.52410889" lon="-2.76885509"><ele></ele><time>2014-5-9T15:17:30Z</time></trkpt>
<trkpt lat="47.52421618" lon="-2.76896238"><ele></ele><time>2014-5-9T15:17:33Z</time></trkpt>
<trkpt lat="47.52438784" lon="-2.76926279"><ele></ele><time>2014-5-9T15:17:36Z</time></trkpt>
<trkpt lat="47.52488136" lon="-2.76982069"><ele></ele><time>2014-5-9T15:17:39Z</time></trkpt>
<trkpt lat="47.52501011" lon="-2.76986361"><ele></ele><time>2014-5-9T15:17:42Z</time></trkpt>
<trkpt lat="47.52561092" lon="-2.76975632"><ele></ele><time>2014-5-9T15:17:45Z</time></trkpt>
<trkpt lat="47.52571821" lon="-2.76975632"><ele></ele><time>2014-5-9T15:17:48Z</time></trkpt>
<trkpt lat="47.52623320" lon="-2.76994944"><ele></ele><time>2014-5-9T15:17:51Z</time></trkpt>
<trkpt lat="47.52661943" lon="-2.77007818"><ele></ele><time>2014-5-9T15:17:54Z</time></trkpt>
<trkpt lat="47.52666235" lon="-2.77005672"><ele></ele><time>2014-5-9T15:17:57Z</time></trkpt>
<trkpt lat="47.52674818" lon="-2.76977777"><ele></ele><time>2014-5-9T15:18:0Z</time></trkpt>
<trkpt lat="47.52681255" lon="-2.76964903"><ele></ele><time>2014-5-9T15:18:3Z</time></trkpt>
<trkpt lat="47.52687693" lon="-2.76954174"><ele></ele><time>2014-5-9T15:18:6Z</time></trkpt>
<trkpt lat="47.52730608" lon="-2.76911259"><ele></ele><time>2014-5-9T15:18:9Z</time></trkpt>
<trkpt lat="47.52777815" lon="-2.76868343"><ele></ele><time>2014-5-9T15:18:12Z</time></trkpt>
<trkpt lat="47.52752066" lon="-2.76939154"><ele></ele><time>2014-5-9T15:18:15Z</time></trkpt>
<trkpt lat="47.52754211" lon="-2.76928425"><ele></ele><time>2014-5-9T15:18:18Z</time></trkpt>
<trkpt lat="47.52745628" lon="-2.76934862"><ele></ele><time>2014-5-9T15:18:21Z</time></trkpt>
<trkpt lat="47.52739191" lon="-2.76975632"><ele></ele><time>2014-5-9T15:18:24Z</time></trkpt>
<trkpt lat="47.52745628" lon="-2.76960611"><ele></ele><time>2014-5-9T15:18:27Z</time></trkpt>
<trkpt lat="47.52513885" lon="-2.75977850"><ele></ele><time>2014-5-9T15:18:30Z</time></trkpt>
<trkpt lat="47.52481699" lon="-2.75949955"><ele></ele><time>2014-5-9T15:18:33Z</time></trkpt>
<trkpt lat="47.52470970" lon="-2.75924206"><ele></ele><time>2014-5-9T15:18:36Z</time></trkpt>
<trkpt lat="47.52464533" lon="-2.75907040"><ele></ele><time>2014-5-9T15:18:39Z</time></trkpt>
<trkpt lat="47.52462387" lon="-2.75885582"><ele></ele><time>2014-5-9T15:18:42Z</time></trkpt>
<trkpt lat="47.52449512" lon="-2.75821209"><ele></ele><time>2014-5-9T15:18:45Z</time></trkpt>
<trkpt lat="47.52430201" lon="-2.75812626"><ele></ele><time>2014-5-9T15:18:48Z</time></trkpt>
<trkpt lat="47.52421618" lon="-2.75814772"><ele></ele><time>2014-5-9T15:18:51Z</time></trkpt>
<trkpt lat="47.52395868" lon="-2.75778294"><ele></ele><time>2014-5-9T15:18:54Z</time></trkpt>
<trkpt lat="47.52391577" lon="-2.75769711"><ele></ele><time>2014-5-9T15:18:57Z</time></trkpt>
<trkpt lat="47.52357244" lon="-2.75716066"><ele></ele><time>2014-5-9T15:19:0Z</time></trkpt>
<trkpt lat="47.52228498" lon="-2.75625944"><ele></ele><time>2014-5-9T15:19:3Z</time></trkpt>
<trkpt lat="47.52196312" lon="-2.75606632"><ele></ele><time>2014-5-9T15:19:6Z</time></trkpt>
<trkpt lat="47.52183437" lon="-2.75602341"><ele></ele><time>2014-5-9T15:19:9Z</time></trkpt>
<trkpt lat="47.52108335" lon="-2.75606632"><ele></ele><time>2014-5-9T15:19:12Z</time></trkpt>
<trkpt lat="47.52061129" lon="-2.75606632"><ele></ele><time>2014-5-9T15:19:15Z</time></trkpt>
<trkpt lat="47.52031088" lon="-2.75589466"><ele></ele><time>2014-5-9T15:19:18Z</time></trkpt>
<trkpt lat="47.52020359" lon="-2.75606632"><ele></ele><time>2014-5-9T15:19:21Z</time></trkpt>
<trkpt lat="47.52001047" lon="-2.75673151"><ele></ele><time>2014-5-9T15:19:24Z</time></trkpt>
<trkpt lat="47.51983881" lon="-2.75791168"><ele></ele><time>2014-5-9T15:19:27Z</time></trkpt>
<trkpt lat="47.51953840" lon="-2.75907040"><ele></ele><time>2014-5-9T15:19:30Z</time></trkpt>
<trkpt lat="47.51902342" lon="-2.76007891"><ele></ele><time>2014-5-9T15:19:33Z</time></trkpt>
<trkpt lat="47.51863718" lon="-2.76095867"><ele></ele><time>2014-5-9T15:19:36Z</time></trkpt>
<trkpt lat="47.51844406" lon="-2.76170969"><ele></ele><time>2014-5-9T15:19:39Z</time></trkpt>
<trkpt lat="47.51848698" lon="-2.76280403"><ele></ele><time>2014-5-9T15:19:42Z</time></trkpt>
<trkpt lat="47.51852989" lon="-2.76346922"><ele></ele><time>2014-5-9T15:19:45Z</time></trkpt>
<trkpt lat="47.51846552" lon="-2.76368380"><ele></ele><time>2014-5-9T15:19:48Z</time></trkpt>
<trkpt lat="47.51786470" lon="-2.76428461"><ele></ele><time>2014-5-9T15:19:51Z</time></trkpt>
<trkpt lat="47.51713514" lon="-2.76507854"><ele></ele><time>2014-5-9T15:19:54Z</time></trkpt>
<trkpt lat="47.51689911" lon="-2.76512146"><ele></ele><time>2014-5-9T15:19:57Z</time></trkpt>
<trkpt lat="47.51616955" lon="-2.76505709"><ele></ele><time>2014-5-9T15:20:0Z</time></trkpt>
<trkpt lat="47.51586914" lon="-2.76499271"><ele></ele><time>2014-5-9T15:20:3Z</time></trkpt>
<trkpt lat="47.51571894" lon="-2.76542187"><ele></ele><time>2014-5-9T15:20:6Z</time></trkpt>
<trkpt lat="47.51556873" lon="-2.76632309"><ele></ele><time>2014-5-9T15:20:9Z</time></trkpt>
<trkpt lat="47.51554728" lon="-2.76640892"><ele></ele><time>2014-5-9T15:20:12Z</time></trkpt>
<trkpt lat="47.51501083" lon="-2.76649475"><ele></ele><time>2014-5-9T15:20:15Z</time></trkpt>
<trkpt lat="47.51441002" lon="-2.76645184"><ele></ele><time>2014-5-9T15:20:18Z</time></trkpt>
<trkpt lat="47.51406670" lon="-2.76645184"><ele></ele><time>2014-5-9T15:20:21Z</time></trkpt>
<trkpt lat="47.51355171" lon="-2.76658058"><ele></ele><time>2014-5-9T15:20:24Z</time></trkpt>
<trkpt lat="47.51322985" lon="-2.76673079"><ele></ele><time>2014-5-9T15:20:27Z</time></trkpt>
<trkpt lat="47.51312256" lon="-2.76662350"><ele></ele><time>2014-5-9T15:20:30Z</time></trkpt>
<trkpt lat="47.51282215" lon="-2.76673079"><ele></ele><time>2014-5-9T15:20:33Z</time></trkpt>
<trkpt lat="47.51254320" lon="-2.76679516"><ele></ele><time>2014-5-9T15:20:36Z</time></trkpt>
<trkpt lat="47.51211405" lon="-2.76675224"><ele></ele><time>2014-5-9T15:20:39Z</time></trkpt>
<trkpt lat="47.51168489" lon="-2.76662350"><ele></ele><time>2014-5-9T15:20:42Z</time></trkpt>
<trkpt lat="47.51129866" lon="-2.76628017"><ele></ele><time>2014-5-9T15:20:45Z</time></trkpt>
<trkpt lat="47.51084805" lon="-2.76565790"><ele></ele><time>2014-5-9T15:20:48Z</time></trkpt>
<trkpt lat="47.51022577" lon="-2.76503563"><ele></ele><time>2014-5-9T15:20:51Z</time></trkpt>
<trkpt lat="47.50945330" lon="-2.76439190"><ele></ele><time>2014-5-9T15:20:54Z</time></trkpt>
<trkpt lat="47.50857353" lon="-2.76361942"><ele></ele><time>2014-5-9T15:20:57Z</time></trkpt>
<trkpt lat="47.50765085" lon="-2.76276112"><ele></ele><time>2014-5-9T15:21:0Z</time></trkpt>
<trkpt lat="47.50745773" lon="-2.76248217"><ele></ele><time>2014-5-9T15:21:3Z</time></trkpt>
<trkpt lat="47.50696421" lon="-2.76228905"><ele></ele><time>2014-5-9T15:21:6Z</time></trkpt>
<trkpt lat="47.50659943" lon="-2.76231050"><ele></ele><time>2014-5-9T15:21:9Z</time></trkpt>
<trkpt lat="47.50627756" lon="-2.76250362"><ele></ele><time>2014-5-9T15:21:12Z</time></trkpt>
<trkpt lat="47.50614882" lon="-2.76267529"><ele></ele><time>2014-5-9T15:21:15Z</time></trkpt>
<trkpt lat="47.50580549" lon="-2.76278257"><ele></ele><time>2014-5-9T15:21:18Z</time></trkpt>
<trkpt lat="47.50567675" lon="-2.76280403"><ele></ele><time>2014-5-9T15:21:21Z</time></trkpt>
<trkpt lat="47.50494719" lon="-2.76267529"><ele></ele><time>2014-5-9T15:21:24Z</time></trkpt>
<trkpt lat="47.50441074" lon="-2.76254654"><ele></ele><time>2014-5-9T15:21:27Z</time></trkpt>
<trkpt lat="47.50434637" lon="-2.76254654"><ele></ele><time>2014-5-9T15:21:30Z</time></trkpt>
<trkpt lat="47.50428200" lon="-2.76254654"><ele></ele><time>2014-5-9T15:21:33Z</time></trkpt>
<trkpt lat="47.50338078" lon="-2.76233196"><ele></ele><time>2014-5-9T15:21:36Z</time></trkpt>
<trkpt lat="47.50247955" lon="-2.76235342"><ele></ele><time>2014-5-9T15:21:39Z</time></trkpt>
<trkpt lat="47.50108480" lon="-2.76282549"><ele></ele><time>2014-5-9T15:21:42Z</time></trkpt>
<trkpt lat="47.50009775" lon="-2.76321173"><ele></ele><time>2014-5-9T15:21:45Z</time></trkpt>
<trkpt lat="47.49921799" lon="-2.76321173"><ele></ele><time>2014-5-9T15:21:48Z</time></trkpt>
<trkpt lat="47.49838114" lon="-2.76325464"><ele></ele><time>2014-5-9T15:21:51Z</time></trkpt>
<trkpt lat="47.49778032" lon="-2.76351213"><ele></ele><time>2014-5-9T15:21:54Z</time></trkpt>
<trkpt lat="47.49775887" lon="-2.76351213"><ele></ele><time>2014-5-9T15:21:57Z</time></trkpt>
<trkpt lat="47.49775887" lon="-2.76349068"><ele></ele><time>2014-5-9T15:22:0Z</time></trkpt>
<trkpt lat="47.49778032" lon="-2.76340485"><ele></ele><time>2014-5-9T15:22:3Z</time></trkpt>
<trkpt lat="47.49778032" lon="-2.76295424"><ele></ele><time>2014-5-9T15:22:6Z</time></trkpt>
<trkpt lat="47.49778032" lon="-2.76235342"><ele></ele><time>2014-5-9T15:22:9Z</time></trkpt>
<trkpt lat="47.49771595" lon="-2.76160240"><ele></ele><time>2014-5-9T15:22:12Z</time></trkpt>
<trkpt lat="47.49773741" lon="-2.76098013"><ele></ele><time>2014-5-9T15:22:15Z</time></trkpt>
<trkpt lat="47.49775887" lon="-2.76044369"><ele></ele><time>2014-5-9T15:22:18Z</time></trkpt>
<trkpt lat="47.49778032" lon="-2.76010036"><ele></ele><time>2014-5-9T15:22:21Z</time></trkpt>
<trkpt lat="47.49773741" lon="-2.75964975"><ele></ele><time>2014-5-9T15:22:24Z</time></trkpt>
<trkpt lat="47.49767303" lon="-2.75900602"><ele></ele><time>2014-5-9T15:22:27Z</time></trkpt>
<trkpt lat="47.49756575" lon="-2.75849104"><ele></ele><time>2014-5-9T15:22:30Z</time></trkpt>
<trkpt lat="47.49752283" lon="-2.75804043"><ele></ele><time>2014-5-9T15:22:33Z</time></trkpt>
<trkpt lat="47.49747992" lon="-2.75763273"><ele></ele><time>2014-5-9T15:22:36Z</time></trkpt>
<trkpt lat="47.49747992" lon="-2.75746107"><ele></ele><time>2014-5-9T15:22:39Z</time></trkpt>
<trkpt lat="47.49743700" lon="-2.75739670"><ele></ele><time>2014-5-9T15:22:42Z</time></trkpt>
<trkpt lat="47.49743700" lon="-2.75707483"><ele></ele><time>2014-5-9T15:22:45Z</time></trkpt>
<trkpt lat="47.49747992" lon="-2.75681734"><ele></ele><time>2014-5-9T15:22:48Z</time></trkpt>
<trkpt lat="47.49750137" lon="-2.75673151"><ele></ele><time>2014-5-9T15:22:51Z</time></trkpt>
<trkpt lat="47.49750137" lon="-2.75671005"><ele></ele><time>2014-5-9T15:22:54Z</time></trkpt>
<trkpt lat="47.49750137" lon="-2.75664568"><ele></ele><time>2014-5-9T15:22:57Z</time></trkpt>
<trkpt lat="47.49754429" lon="-2.75647402"><ele></ele><time>2014-5-9T15:23:0Z</time></trkpt>
<trkpt lat="47.49763012" lon="-2.75619507"><ele></ele><time>2014-5-9T15:23:3Z</time></trkpt>
<trkpt lat="47.49771595" lon="-2.75606632"><ele></ele><time>2014-5-9T15:23:6Z</time></trkpt>
<trkpt lat="47.49771595" lon="-2.75606632"><ele></ele><time>2014-5-9T15:23:9Z</time></trkpt>
<trkpt lat="47.49771595" lon="-2.75604486"><ele></ele><time>2014-5-9T15:23:12Z</time></trkpt>
<trkpt lat="47.49788761" lon="-2.75570154"><ele></ele><time>2014-5-9T15:23:15Z</time></trkpt>
<trkpt lat="47.49808073" lon="-2.75533676"><ele></ele><time>2014-5-9T15:23:18Z</time></trkpt>
<trkpt lat="47.49829531" lon="-2.75486469"><ele></ele><time>2014-5-9T15:23:21Z</time></trkpt>
<trkpt lat="47.49844551" lon="-2.75437117"><ele></ele><time>2014-5-9T15:23:24Z</time></trkpt>
<trkpt lat="47.49853134" lon="-2.75409222"><ele></ele><time>2014-5-9T15:23:27Z</time></trkpt>
<trkpt lat="47.49857426" lon="-2.75349140"><ele></ele><time>2014-5-9T15:23:30Z</time></trkpt>
<trkpt lat="47.49866009" lon="-2.75327682"><ele></ele><time>2014-5-9T15:23:33Z</time></trkpt>
<trkpt lat="47.49911070" lon="-2.75271893"><ele></ele><time>2014-5-9T15:23:36Z</time></trkpt>
<trkpt lat="47.49958277" lon="-2.75226831"><ele></ele><time>2014-5-9T15:23:39Z</time></trkpt>
<trkpt lat="47.50029087" lon="-2.75226831"><ele></ele><time>2014-5-9T15:23:42Z</time></trkpt>
<trkpt lat="47.50033379" lon="-2.75226831"><ele></ele><time>2014-5-9T15:23:45Z</time></trkpt>
<trkpt lat="47.50102043" lon="-2.75224686"><ele></ele><time>2014-5-9T15:23:48Z</time></trkpt>
<trkpt lat="47.50166416" lon="-2.75205374"><ele></ele><time>2014-5-9T15:23:51Z</time></trkpt>
<trkpt lat="47.50239372" lon="-2.75156021"><ele></ele><time>2014-5-9T15:23:54Z</time></trkpt>
<trkpt lat="47.50310183" lon="-2.75121689"><ele></ele><time>2014-5-9T15:23:57Z</time></trkpt>
<trkpt lat="47.50387430" lon="-2.75104523"><ele></ele><time>2014-5-9T15:24:0Z</time></trkpt>
<trkpt lat="47.50490427" lon="-2.75083065"><ele></ele><time>2014-5-9T15:24:3Z</time></trkpt>
<trkpt lat="47.50569820" lon="-2.75065899"><ele></ele><time>2014-5-9T15:24:6Z</time></trkpt>
<trkpt lat="47.50617027" lon="-2.75053024"><ele></ele><time>2014-5-9T15:24:9Z</time></trkpt>
<trkpt lat="47.50625610" lon="-2.75053024"><ele></ele><time>2014-5-9T15:24:12Z</time></trkpt>
<trkpt lat="47.50692129" lon="-2.75059462"><ele></ele><time>2014-5-9T15:24:15Z</time></trkpt>
<trkpt lat="47.50769377" lon="-2.75070190"><ele></ele><time>2014-5-9T15:24:18Z</time></trkpt>
<trkpt lat="47.50844479" lon="-2.75080919"><ele></ele><time>2014-5-9T15:24:21Z</time></trkpt>
<trkpt lat="47.50898123" lon="-2.75091648"><ele></ele><time>2014-5-9T15:24:24Z</time></trkpt>
<trkpt lat="47.50910997" lon="-2.75093794"><ele></ele><time>2014-5-9T15:24:27Z</time></trkpt>
<trkpt lat="47.50921726" lon="-2.75119543"><ele></ele><time>2014-5-9T15:24:30Z</time></trkpt>
<trkpt lat="47.50919580" lon="-2.75190353"><ele></ele><time>2014-5-9T15:24:33Z</time></trkpt>
<trkpt lat="47.50921726" lon="-2.75207520"><ele></ele><time>2014-5-9T15:24:36Z</time></trkpt>
<trkpt lat="47.50928164" lon="-2.75228977"><ele></ele><time>2014-5-9T15:24:39Z</time></trkpt>
<trkpt lat="47.50953913" lon="-2.75291204"><ele></ele><time>2014-5-9T15:24:42Z</time></trkpt>
<trkpt lat="47.50960350" lon="-2.75306225"><ele></ele><time>2014-5-9T15:24:45Z</time></trkpt>
<trkpt lat="47.51009703" lon="-2.75379181"><ele></ele><time>2014-5-9T15:24:48Z</time></trkpt>
<trkpt lat="47.51056910" lon="-2.75460720"><ele></ele><time>2014-5-9T15:24:51Z</time></trkpt>
<trkpt lat="47.51059055" lon="-2.75467157"><ele></ele><time>2014-5-9T15:24:54Z</time></trkpt>
<trkpt lat="47.51071930" lon="-2.75550842"><ele></ele><time>2014-5-9T15:24:57Z</time></trkpt>
<trkpt lat="47.51093388" lon="-2.75615215"><ele></ele><time>2014-5-9T15:25:0Z</time></trkpt>
<trkpt lat="47.51129866" lon="-2.75677443"><ele></ele><time>2014-5-9T15:25:3Z</time></trkpt>
<trkpt lat="47.51168489" lon="-2.75735378"><ele></ele><time>2014-5-9T15:25:6Z</time></trkpt>
<trkpt lat="47.51209259" lon="-2.75810480"><ele></ele><time>2014-5-9T15:25:9Z</time></trkpt>
<trkpt lat="47.51213551" lon="-2.75823355"><ele></ele><time>2014-5-9T15:25:12Z</time></trkpt>
<trkpt lat="47.51222134" lon="-2.75823355"><ele></ele><time>2014-5-9T15:25:15Z</time></trkpt>
<trkpt lat="47.51222134" lon="-2.75821209"><ele></ele><time>2014-5-9T15:25:18Z</time></trkpt>
<trkpt lat="47.51222134" lon="-2.75821209"><ele></ele><time>2014-5-9T15:25:21Z</time></trkpt>
<trkpt lat="47.51226425" lon="-2.75819063"><ele></ele><time>2014-5-9T15:25:24Z</time></trkpt>
<trkpt lat="47.51222134" lon="-2.75821209"><ele></ele><time>2014-5-9T15:25:27Z</time></trkpt>
<trkpt lat="47.51219988" lon="-2.75823355"><ele></ele><time>2014-5-9T15:25:30Z</time></trkpt>
<trkpt lat="47.51215696" lon="-2.75827646"><ele></ele><time>2014-5-9T15:25:33Z</time></trkpt>
<trkpt lat="47.51217842" lon="-2.75842667"><ele></ele><time>2014-5-9T15:25:36Z</time></trkpt>
<trkpt lat="47.51237154" lon="-2.75900602"><ele></ele><time>2014-5-9T15:25:39Z</time></trkpt>
<trkpt lat="47.51260757" lon="-2.75962830"><ele></ele><time>2014-5-9T15:25:42Z</time></trkpt>
<trkpt lat="47.51284361" lon="-2.76033640"><ele></ele><time>2014-5-9T15:25:45Z</time></trkpt>
<trkpt lat="47.51314402" lon="-2.76087284"><ele></ele><time>2014-5-9T15:25:48Z</time></trkpt>
<trkpt lat="47.51338005" lon="-2.76123762"><ele></ele><time>2014-5-9T15:25:51Z</time></trkpt>
<trkpt lat="47.51404524" lon="-2.76173115"><ele></ele><time>2014-5-9T15:25:54Z</time></trkpt>
<trkpt lat="47.51460314" lon="-2.76196718"><ele></ele><time>2014-5-9T15:25:57Z</time></trkpt>
<trkpt lat="47.51520395" lon="-2.76224613"><ele></ele><time>2014-5-9T15:26:0Z</time></trkpt>
<trkpt lat="47.51526833" lon="-2.76231050"><ele></ele><time>2014-5-9T15:26:3Z</time></trkpt>
<trkpt lat="47.51563311" lon="-2.76288986"><ele></ele><time>2014-5-9T15:26:6Z</time></trkpt>
<trkpt lat="47.51582623" lon="-2.76361942"><ele></ele><time>2014-5-9T15:26:9Z</time></trkpt>
<trkpt lat="47.51591206" lon="-2.76473522"><ele></ele><time>2014-5-9T15:26:12Z</time></trkpt>
<trkpt lat="47.51608372" lon="-2.76499271"><ele></ele><time>2014-5-9T15:26:15Z</time></trkpt>
<trkpt lat="47.51687765" lon="-2.76516438"><ele></ele><time>2014-5-9T15:26:18Z</time></trkpt>
<trkpt lat="47.51715660" lon="-2.76518583"><ele></ele><time>2014-5-9T15:26:21Z</time></trkpt>
<trkpt lat="47.51724243" lon="-2.76514292"><ele></ele><time>2014-5-9T15:26:24Z</time></trkpt>
<trkpt lat="47.51762867" lon="-2.76449919"><ele></ele><time>2014-5-9T15:26:27Z</time></trkpt>
<trkpt lat="47.51831532" lon="-2.76383400"><ele></ele><time>2014-5-9T15:26:30Z</time></trkpt>
<trkpt lat="47.51852989" lon="-2.76361942"><ele></ele><time>2014-5-9T15:26:33Z</time></trkpt>
<trkpt lat="47.51857281" lon="-2.76327610"><ele></ele><time>2014-5-9T15:26:36Z</time></trkpt>
<trkpt lat="47.51850843" lon="-2.76228905"><ele></ele><time>2014-5-9T15:26:39Z</time></trkpt>
<trkpt lat="47.51850843" lon="-2.76132345"><ele></ele><time>2014-5-9T15:26:42Z</time></trkpt>
<trkpt lat="47.51895905" lon="-2.76018620"><ele></ele><time>2014-5-9T15:26:45Z</time></trkpt>
<trkpt lat="47.51964569" lon="-2.75885582"><ele></ele><time>2014-5-9T15:26:48Z</time></trkpt>
<trkpt lat="47.51973152" lon="-2.75859833"><ele></ele><time>2014-5-9T15:26:51Z</time></trkpt>
<trkpt lat="47.51992464" lon="-2.75728941"><ele></ele><time>2014-5-9T15:26:54Z</time></trkpt>
<trkpt lat="47.52016068" lon="-2.75625944"><ele></ele><time>2014-5-9T15:26:57Z</time></trkpt>
<trkpt lat="47.52018213" lon="-2.75610924"><ele></ele><time>2014-5-9T15:27:0Z</time></trkpt>
<trkpt lat="47.52018213" lon="-2.75587320"><ele></ele><time>2014-5-9T15:27:3Z</time></trkpt>
<trkpt lat="47.52016068" lon="-2.75587320"><ele></ele><time>2014-5-9T15:27:6Z</time></trkpt>
<trkpt lat="47.52016068" lon="-2.75585175"><ele></ele><time>2014-5-9T15:27:9Z</time></trkpt>
<trkpt lat="47.51998901" lon="-2.75563717"><ele></ele><time>2014-5-9T15:27:12Z</time></trkpt>
<trkpt lat="47.51988173" lon="-2.75552988"><ele></ele><time>2014-5-9T15:27:15Z</time></trkpt>
<trkpt lat="47.51988173" lon="-2.75531530"><ele></ele><time>2014-5-9T15:27:18Z</time></trkpt>
<trkpt lat="47.51996756" lon="-2.75449991"><ele></ele><time>2014-5-9T15:27:21Z</time></trkpt>
<trkpt lat="47.52028942" lon="-2.75400639"><ele></ele><time>2014-5-9T15:27:24Z</time></trkpt>
<trkpt lat="47.52063274" lon="-2.75336266"><ele></ele><time>2014-5-9T15:27:27Z</time></trkpt>
<trkpt lat="47.52065420" lon="-2.75329828"><ele></ele><time>2014-5-9T15:27:30Z</time></trkpt>
<trkpt lat="47.52080441" lon="-2.75246143"><ele></ele><time>2014-5-9T15:27:33Z</time></trkpt>
<trkpt lat="47.52080441" lon="-2.75196791"><ele></ele><time>2014-5-9T15:27:36Z</time></trkpt>
<trkpt lat="47.52054691" lon="-2.75130272"><ele></ele><time>2014-5-9T15:27:39Z</time></trkpt>
<trkpt lat="47.52052546" lon="-2.75123835"><ele></ele><time>2014-5-9T15:27:42Z</time></trkpt>
<trkpt lat="47.52016068" lon="-2.75065899"><ele></ele><time>2014-5-9T15:27:45Z</time></trkpt>
<trkpt lat="47.52001047" lon="-2.75035858"><ele></ele><time>2014-5-9T15:27:48Z</time></trkpt>
<trkpt lat="47.51979589" lon="-2.74984360"><ele></ele><time>2014-5-9T15:27:51Z</time></trkpt>
<trkpt lat="47.51953840" lon="-2.74915695"><ele></ele><time>2014-5-9T15:27:54Z</time></trkpt>
<trkpt lat="47.51932383" lon="-2.74855614"><ele></ele><time>2014-5-9T15:27:57Z</time></trkpt>
<trkpt lat="47.51923800" lon="-2.74832010"><ele></ele><time>2014-5-9T15:28:0Z</time></trkpt>
<trkpt lat="47.51919508" lon="-2.74823427"><ele></ele><time>2014-5-9T15:28:3Z</time></trkpt>
<trkpt lat="47.51917362" lon="-2.74808407"><ele></ele><time>2014-5-9T15:28:6Z</time></trkpt>
<trkpt lat="47.51906633" lon="-2.74780512"><ele></ele><time>2014-5-9T15:28:9Z</time></trkpt>
<trkpt lat="47.51898050" lon="-2.74752617"><ele></ele><time>2014-5-9T15:28:12Z</time></trkpt>
<trkpt lat="47.51891613" lon="-2.74731159"><ele></ele><time>2014-5-9T15:28:15Z</time></trkpt>
<trkpt lat="47.51887321" lon="-2.74713993"><ele></ele><time>2014-5-9T15:28:18Z</time></trkpt>
<trkpt lat="47.51883030" lon="-2.74692535"><ele></ele><time>2014-5-9T15:28:21Z</time></trkpt>
<trkpt lat="47.51876593" lon="-2.74668932"><ele></ele><time>2014-5-9T15:28:24Z</time></trkpt>
<trkpt lat="47.51870155" lon="-2.74647474"><ele></ele><time>2014-5-9T15:28:27Z</time></trkpt>
<trkpt lat="47.51868010" lon="-2.74634600"><ele></ele><time>2014-5-9T15:28:30Z</time></trkpt>
<trkpt lat="47.51863718" lon="-2.74613142"><ele></ele><time>2014-5-9T15:28:33Z</time></trkpt>
<trkpt lat="47.51855135" lon="-2.74570227"><ele></ele><time>2014-5-9T15:28:36Z</time></trkpt>
<trkpt lat="47.51850843" lon="-2.74555206"><ele></ele><time>2014-5-9T15:28:39Z</time></trkpt>
<trkpt lat="47.51846552" lon="-2.74546623"><ele></ele><time>2014-5-9T15:28:42Z</time></trkpt>
<trkpt lat="47.51848698" lon="-2.74531603"><ele></ele><time>2014-5-9T15:28:45Z</time></trkpt>
<trkpt lat="47.51848698" lon="-2.74525166"><ele></ele><time>2014-5-9T15:28:48Z</time></trkpt>
<trkpt lat="47.51844406" lon="-2.74501562"><ele></ele><time>2014-5-9T15:28:51Z</time></trkpt>
<trkpt lat="47.51844406" lon="-2.74492979"><ele></ele><time>2014-5-9T15:28:54Z</time></trkpt>
<trkpt lat="47.51846552" lon="-2.74484396"><ele></ele><time>2014-5-9T15:28:57Z</time></trkpt>
<trkpt lat="47.51850843" lon="-2.74477959"><ele></ele><time>2014-5-9T15:29:0Z</time></trkpt>
<trkpt lat="47.51850843" lon="-2.74471521"><ele></ele><time>2014-5-9T15:29:3Z</time></trkpt>
<trkpt lat="47.51848698" lon="-2.74458647"><ele></ele><time>2014-5-9T15:29:6Z</time></trkpt>
<trkpt lat="47.51855135" lon="-2.74437189"><ele></ele><time>2014-5-9T15:29:9Z</time></trkpt>
<trkpt lat="47.51870155" lon="-2.74387836"><ele></ele><time>2014-5-9T15:29:12Z</time></trkpt>
<trkpt lat="47.51880884" lon="-2.74342775"><ele></ele><time>2014-5-9T15:29:15Z</time></trkpt>
<trkpt lat="47.51876593" lon="-2.74334192"><ele></ele><time>2014-5-9T15:29:18Z</time></trkpt>
<trkpt lat="47.51872301" lon="-2.74295568"><ele></ele><time>2014-5-9T15:29:21Z</time></trkpt>
<trkpt lat="47.51880884" lon="-2.74248362"><ele></ele><time>2014-5-9T15:29:24Z</time></trkpt>
<trkpt lat="47.51904488" lon="-2.74220467"><ele></ele><time>2014-5-9T15:29:27Z</time></trkpt>
<trkpt lat="47.51921654" lon="-2.74205446"><ele></ele><time>2014-5-9T15:29:30Z</time></trkpt>
<trkpt lat="47.51945257" lon="-2.74173260"><ele></ele><time>2014-5-9T15:29:33Z</time></trkpt>
<trkpt lat="47.51958132" lon="-2.74151802"><ele></ele><time>2014-5-9T15:29:36Z</time></trkpt>
<trkpt lat="47.51964569" lon="-2.74100304"><ele></ele><time>2014-5-9T15:29:39Z</time></trkpt>
<trkpt lat="47.51966715" lon="-2.74050951"><ele></ele><time>2014-5-9T15:29:42Z</time></trkpt>
<trkpt lat="47.51964569" lon="-2.73988724"><ele></ele><time>2014-5-9T15:29:45Z</time></trkpt>
<trkpt lat="47.51960278" lon="-2.73913622"><ele></ele><time>2014-5-9T15:29:48Z</time></trkpt>
<trkpt lat="47.51958132" lon="-2.73851395"><ele></ele><time>2014-5-9T15:29:51Z</time></trkpt>
<trkpt lat="47.51953840" lon="-2.73787022"><ele></ele><time>2014-5-9T15:29:54Z</time></trkpt>
<trkpt lat="47.51958132" lon="-2.73722649"><ele></ele><time>2014-5-9T15:29:57Z</time></trkpt>
<trkpt lat="47.51968861" lon="-2.73643255"><ele></ele><time>2014-5-9T15:30:0Z</time></trkpt>
<trkpt lat="47.51971006" lon="-2.73589611"><ele></ele><time>2014-5-9T15:30:3Z</time></trkpt>
<trkpt lat="47.51968861" lon="-2.73535967"><ele></ele><time>2014-5-9T15:30:6Z</time></trkpt>
<trkpt lat="47.51962423" lon="-2.73490906"><ele></ele><time>2014-5-9T15:30:9Z</time></trkpt>
<trkpt lat="47.51962423" lon="-2.73415804"><ele></ele><time>2014-5-9T15:30:12Z</time></trkpt>
<trkpt lat="47.51958132" lon="-2.73383617"><ele></ele><time>2014-5-9T15:30:15Z</time></trkpt>
<trkpt lat="47.51973152" lon="-2.73319244"><ele></ele><time>2014-5-9T15:30:18Z</time></trkpt>
<trkpt lat="47.51994610" lon="-2.73248434"><ele></ele><time>2014-5-9T15:30:21Z</time></trkpt>
<trkpt lat="47.52013922" lon="-2.73209810"><ele></ele><time>2014-5-9T15:30:24Z</time></trkpt>
<trkpt lat="47.52013922" lon="-2.73207664"><ele></ele><time>2014-5-9T15:30:27Z</time></trkpt>
<trkpt lat="47.52016068" lon="-2.73205519"><ele></ele><time>2014-5-9T15:30:30Z</time></trkpt>
<trkpt lat="47.52018213" lon="-2.73207664"><ele></ele><time>2014-5-9T15:30:33Z</time></trkpt>
<trkpt lat="47.52018213" lon="-2.73203373"><ele></ele><time>2014-5-9T15:30:36Z</time></trkpt>
<trkpt lat="47.52026796" lon="-2.73209810"><ele></ele><time>2014-5-9T15:30:39Z</time></trkpt>
<trkpt lat="47.52063274" lon="-2.73263454"><ele></ele><time>2014-5-9T15:30:42Z</time></trkpt>
<trkpt lat="47.52101898" lon="-2.73321390"><ele></ele><time>2014-5-9T15:30:45Z</time></trkpt>
<trkpt lat="47.52151251" lon="-2.73398638"><ele></ele><time>2014-5-9T15:30:48Z</time></trkpt>
<trkpt lat="47.52194166" lon="-2.73460865"><ele></ele><time>2014-5-9T15:30:51Z</time></trkpt>
<trkpt lat="47.52239227" lon="-2.73529530"><ele></ele><time>2014-5-9T15:30:54Z</time></trkpt>
<trkpt lat="47.52277851" lon="-2.73587465"><ele></ele><time>2014-5-9T15:30:57Z</time></trkpt>
<trkpt lat="47.52320766" lon="-2.73638964"><ele></ele><time>2014-5-9T15:31:0Z</time></trkpt>
<trkpt lat="47.52370119" lon="-2.73662567"><ele></ele><time>2014-5-9T15:31:3Z</time></trkpt>
<trkpt lat="47.52400160" lon="-2.73705482"><ele></ele><time>2014-5-9T15:31:6Z</time></trkpt>
<trkpt lat="47.52428055" lon="-2.73776293"><ele></ele><time>2014-5-9T15:31:9Z</time></trkpt>
<trkpt lat="47.52451658" lon="-2.73844957"><ele></ele><time>2014-5-9T15:31:12Z</time></trkpt>
<trkpt lat="47.52475262" lon="-2.73924351"><ele></ele><time>2014-5-9T15:31:15Z</time></trkpt>
<trkpt lat="47.52520323" lon="-2.74050951"><ele></ele><time>2014-5-9T15:31:18Z</time></trkpt>
<trkpt lat="47.52546072" lon="-2.74117470"><ele></ele><time>2014-5-9T15:31:21Z</time></trkpt>
<trkpt lat="47.52569675" lon="-2.74259090"><ele></ele><time>2014-5-9T15:31:24Z</time></trkpt>
<trkpt lat="47.52580404" lon="-2.74381399"><ele></ele><time>2014-5-9T15:31:27Z</time></trkpt>
<trkpt lat="47.52586842" lon="-2.74396420"><ele></ele><time>2014-5-9T15:31:30Z</time></trkpt>
<trkpt lat="47.52588987" lon="-2.74439335"><ele></ele><time>2014-5-9T15:31:33Z</time></trkpt>
<trkpt lat="47.52591133" lon="-2.74458647"><ele></ele><time>2014-5-9T15:31:36Z</time></trkpt>
<trkpt lat="47.52595425" lon="-2.74501562"><ele></ele><time>2014-5-9T15:31:39Z</time></trkpt>
<trkpt lat="47.52606153" lon="-2.74512291"><ele></ele><time>2014-5-9T15:31:42Z</time></trkpt>
<trkpt lat="47.52608299" lon="-2.74510145"><ele></ele><time>2014-5-9T15:31:45Z</time></trkpt>
<trkpt lat="47.52614737" lon="-2.74499416"><ele></ele><time>2014-5-9T15:31:48Z</time></trkpt>
<trkpt lat="47.52670527" lon="-2.74426460"><ele></ele><time>2014-5-9T15:31:51Z</time></trkpt>
<trkpt lat="47.52691984" lon="-2.74407148"><ele></ele><time>2014-5-9T15:31:54Z</time></trkpt>
<trkpt lat="47.52773523" lon="-2.74351358"><ele></ele><time>2014-5-9T15:31:57Z</time></trkpt>
<trkpt lat="47.52792835" lon="-2.74338484"><ele></ele><time>2014-5-9T15:32:0Z</time></trkpt>
<trkpt lat="47.52855062" lon="-2.74295568"><ele></ele><time>2014-5-9T15:32:3Z</time></trkpt>
<trkpt lat="47.52904415" lon="-2.74252653"><ele></ele><time>2014-5-9T15:32:6Z</time></trkpt>
<trkpt lat="47.52928019" lon="-2.74226904"><ele></ele><time>2014-5-9T15:32:9Z</time></trkpt>
<trkpt lat="47.52985954" lon="-2.74141073"><ele></ele><time>2014-5-9T15:32:12Z</time></trkpt>
<trkpt lat="47.53041744" lon="-2.74025202"><ele></ele><time>2014-5-9T15:32:15Z</time></trkpt>
<trkpt lat="47.53088951" lon="-2.73890018"><ele></ele><time>2014-5-9T15:32:18Z</time></trkpt>
<trkpt lat="47.53136158" lon="-2.73741961"><ele></ele><time>2014-5-9T15:32:21Z</time></trkpt>
<trkpt lat="47.53144741" lon="-2.73714066"><ele></ele><time>2014-5-9T15:32:24Z</time></trkpt>
<trkpt lat="47.53176928" lon="-2.73615360"><ele></ele><time>2014-5-9T15:32:27Z</time></trkpt>
<trkpt lat="47.53202677" lon="-2.73533821"><ele></ele><time>2014-5-9T15:32:30Z</time></trkpt>
<trkpt lat="47.53226280" lon="-2.73465157"><ele></ele><time>2014-5-9T15:32:33Z</time></trkpt>
<trkpt lat="47.53252029" lon="-2.73385763"><ele></ele><time>2014-5-9T15:32:36Z</time></trkpt>
<trkpt lat="47.53277779" lon="-2.73310661"><ele></ele><time>2014-5-9T15:32:39Z</time></trkpt>
<trkpt lat="47.53316402" lon="-2.73201227"><ele></ele><time>2014-5-9T15:32:42Z</time></trkpt>
<trkpt lat="47.53348589" lon="-2.73104668"><ele></ele><time>2014-5-9T15:32:45Z</time></trkpt>
<trkpt lat="47.53389359" lon="-2.72990942"><ele></ele><time>2014-5-9T15:32:48Z</time></trkpt>
<trkpt lat="47.53430128" lon="-2.72868633"><ele></ele><time>2014-5-9T15:32:51Z</time></trkpt>
<trkpt lat="47.53479481" lon="-2.72729158"><ele></ele><time>2014-5-9T15:32:54Z</time></trkpt>
<trkpt lat="47.53522396" lon="-2.72611141"><ele></ele><time>2014-5-9T15:32:57Z</time></trkpt>
<trkpt lat="47.53524542" lon="-2.72606850"><ele></ele><time>2014-5-9T15:33:0Z</time></trkpt>
<trkpt lat="47.53561020" lon="-2.72606850"><ele></ele><time>2014-5-9T15:33:3Z</time></trkpt>
<trkpt lat="47.53616810" lon="-2.72613287"><ele></ele><time>2014-5-9T15:33:6Z</time></trkpt>
<trkpt lat="47.53618956" lon="-2.72613287"><ele></ele><time>2014-5-9T15:33:9Z</time></trkpt>
<trkpt lat="47.53623247" lon="-2.72632599"><ele></ele><time>2014-5-9T15:33:12Z</time></trkpt>
<trkpt lat="47.53618956" lon="-2.72686243"><ele></ele><time>2014-5-9T15:33:15Z</time></trkpt>
<trkpt lat="47.53633976" lon="-2.72727013"><ele></ele><time>2014-5-9T15:33:18Z</time></trkpt>
<trkpt lat="47.53642559" lon="-2.72735596"><ele></ele><time>2014-5-9T15:33:21Z</time></trkpt>
<trkpt lat="47.53664017" lon="-2.72735596"><ele></ele><time>2014-5-9T15:33:24Z</time></trkpt>
<trkpt lat="47.53681183" lon="-2.72724867"><ele></ele><time>2014-5-9T15:33:27Z</time></trkpt>
<trkpt lat="47.53694057" lon="-2.72729158"><ele></ele><time>2014-5-9T15:33:30Z</time></trkpt>
<trkpt lat="47.53717661" lon="-2.72757053"><ele></ele><time>2014-5-9T15:33:33Z</time></trkpt>
<trkpt lat="47.53767014" lon="-2.72812843"><ele></ele><time>2014-5-9T15:33:36Z</time></trkpt>
<trkpt lat="47.53797054" lon="-2.72847176"><ele></ele><time>2014-5-9T15:33:39Z</time></trkpt>
<trkpt lat="47.53792763" lon="-2.72885799"><ele></ele><time>2014-5-9T15:33:42Z</time></trkpt>
<trkpt lat="47.53794909" lon="-2.72954464"><ele></ele><time>2014-5-9T15:33:45Z</time></trkpt>
<trkpt lat="47.53812075" lon="-2.73012400"><ele></ele><time>2014-5-9T15:33:48Z</time></trkpt>
<trkpt lat="47.53816366" lon="-2.73031712"><ele></ele><time>2014-5-9T15:33:51Z</time></trkpt>
<trkpt lat="47.53820658" lon="-2.73059607"><ele></ele><time>2014-5-9T15:33:54Z</time></trkpt>
<trkpt lat="47.53788471" lon="-2.73141146"><ele></ele><time>2014-5-9T15:33:57Z</time></trkpt>
<trkpt lat="47.53760576" lon="-2.73214102"><ele></ele><time>2014-5-9T15:34:0Z</time></trkpt>
<trkpt lat="47.53749847" lon="-2.73257017"><ele></ele><time>2014-5-9T15:34:3Z</time></trkpt>
<trkpt lat="47.53745556" lon="-2.73334265"><ele></ele><time>2014-5-9T15:34:6Z</time></trkpt>
<trkpt lat="47.53741264" lon="-2.73456573"><ele></ele><time>2014-5-9T15:34:9Z</time></trkpt>
<trkpt lat="47.53734827" lon="-2.73611069"><ele></ele><time>2014-5-9T15:34:12Z</time></trkpt>
<trkpt lat="47.53747702" lon="-2.73744106"><ele></ele><time>2014-5-9T15:34:15Z</time></trkpt>
<trkpt lat="47.53749847" lon="-2.73754835"><ele></ele><time>2014-5-9T15:34:18Z</time></trkpt>
<trkpt lat="47.53754139" lon="-2.73789167"><ele></ele><time>2014-5-9T15:34:21Z</time></trkpt>
<trkpt lat="47.53751993" lon="-2.73804188"><ele></ele><time>2014-5-9T15:34:24Z</time></trkpt>
<trkpt lat="47.53743410" lon="-2.73832083"><ele></ele><time>2014-5-9T15:34:27Z</time></trkpt>
<trkpt lat="47.53696203" lon="-2.73975849"><ele></ele><time>2014-5-9T15:34:30Z</time></trkpt>
<trkpt lat="47.53683329" lon="-2.74023056"><ele></ele><time>2014-5-9T15:34:33Z</time></trkpt>
<trkpt lat="47.53681183" lon="-2.74035931"><ele></ele><time>2014-5-9T15:34:36Z</time></trkpt>
<trkpt lat="47.53685474" lon="-2.74050951"><ele></ele><time>2014-5-9T15:34:39Z</time></trkpt>
<trkpt lat="47.53734827" lon="-2.74083138"><ele></ele><time>2014-5-9T15:34:42Z</time></trkpt>
<trkpt lat="47.53739119" lon="-2.74083138"><ele></ele><time>2014-5-9T15:34:45Z</time></trkpt>
<trkpt lat="47.53745556" lon="-2.74061680"><ele></ele><time>2014-5-9T15:34:48Z</time></trkpt>
<trkpt lat="47.53764868" lon="-2.74025202"><ele></ele><time>2014-5-9T15:34:51Z</time></trkpt>
<trkpt lat="47.53773451" lon="-2.74014473"><ele></ele><time>2014-5-9T15:34:54Z</time></trkpt>
<trkpt lat="47.53792763" lon="-2.73995161"><ele></ele><time>2014-5-9T15:34:57Z</time></trkpt>
<trkpt lat="47.53822803" lon="-2.73980141"><ele></ele><time>2014-5-9T15:35:0Z</time></trkpt>
<trkpt lat="47.53889322" lon="-2.73980141"><ele></ele><time>2014-5-9T15:35:3Z</time></trkpt>
<trkpt lat="47.53897905" lon="-2.73977995"><ele></ele><time>2014-5-9T15:35:6Z</time></trkpt>
<trkpt lat="47.53897905" lon="-2.73980141"><ele></ele><time>2014-5-9T15:35:9Z</time></trkpt>
<trkpt lat="47.53902197" lon="-2.73982286"><ele></ele><time>2014-5-9T15:35:12Z</time></trkpt>
<trkpt lat="47.53915071" lon="-2.74014473"><ele></ele><time>2014-5-9T15:35:15Z</time></trkpt>
<trkpt lat="47.53945112" lon="-2.74085283"><ele></ele><time>2014-5-9T15:35:18Z</time></trkpt>
<trkpt lat="47.53947258" lon="-2.74091721"><ele></ele><time>2014-5-9T15:35:21Z</time></trkpt>
<trkpt lat="47.53953695" lon="-2.74153948"><ele></ele><time>2014-5-9T15:35:24Z</time></trkpt>
<trkpt lat="47.53949404" lon="-2.74226904"><ele></ele><time>2014-5-9T15:35:27Z</time></trkpt>
<trkpt lat="47.53936529" lon="-2.74286985"><ele></ele><time>2014-5-9T15:35:30Z</time></trkpt>
<trkpt lat="47.53912926" lon="-2.74286985"><ele></ele><time>2014-5-9T15:35:33Z</time></trkpt>
<trkpt lat="47.53859282" lon="-2.74274111"><ele></ele><time>2014-5-9T15:35:36Z</time></trkpt>
<trkpt lat="47.53818512" lon="-2.74259090"><ele></ele><time>2014-5-9T15:35:39Z</time></trkpt>
<trkpt lat="47.53775597" lon="-2.74226904"><ele></ele><time>2014-5-9T15:35:42Z</time></trkpt>
<trkpt lat="47.53767014" lon="-2.74209738"><ele></ele><time>2014-5-9T15:35:45Z</time></trkpt>
<trkpt lat="47.53743410" lon="-2.74201155"><ele></ele><time>2014-5-9T15:35:48Z</time></trkpt>
<trkpt lat="47.53706932" lon="-2.74214029"><ele></ele><time>2014-5-9T15:35:51Z</time></trkpt>
<trkpt lat="47.53685474" lon="-2.74254799"><ele></ele><time>2014-5-9T15:35:54Z</time></trkpt>
<trkpt lat="47.53659725" lon="-2.74317026"><ele></ele><time>2014-5-9T15:35:57Z</time></trkpt>
<trkpt lat="47.53651142" lon="-2.74334192"><ele></ele><time>2014-5-9T15:36:0Z</time></trkpt>
<trkpt lat="47.53642559" lon="-2.74366379"><ele></ele><time>2014-5-9T15:36:3Z</time></trkpt>
<trkpt lat="47.53644705" lon="-2.74445772"><ele></ele><time>2014-5-9T15:36:6Z</time></trkpt>
<trkpt lat="47.53644705" lon="-2.74525166"><ele></ele><time>2014-5-9T15:36:9Z</time></trkpt>
<trkpt lat="47.53644705" lon="-2.74589539"><ele></ele><time>2014-5-9T15:36:12Z</time></trkpt>
<trkpt lat="47.53631830" lon="-2.74658203"><ele></ele><time>2014-5-9T15:36:15Z</time></trkpt>
<trkpt lat="47.53608227" lon="-2.74733305"><ele></ele><time>2014-5-9T15:36:18Z</time></trkpt>
<trkpt lat="47.53578186" lon="-2.74810553"><ele></ele><time>2014-5-9T15:36:21Z</time></trkpt>
<trkpt lat="47.53552437" lon="-2.74898529"><ele></ele><time>2014-5-9T15:36:24Z</time></trkpt>
<trkpt lat="47.53533125" lon="-2.74990797"><ele></ele><time>2014-5-9T15:36:27Z</time></trkpt>
<trkpt lat="47.53507376" lon="-2.75104523"><ele></ele><time>2014-5-9T15:36:30Z</time></trkpt>
<trkpt lat="47.53473043" lon="-2.75209665"><ele></ele><time>2014-5-9T15:36:33Z</time></trkpt>
<trkpt lat="47.53400087" lon="-2.75342703"><ele></ele><time>2014-5-9T15:36:36Z</time></trkpt>
<trkpt lat="47.53329277" lon="-2.75458574"><ele></ele><time>2014-5-9T15:36:39Z</time></trkpt>
<trkpt lat="47.53301382" lon="-2.75522947"><ele></ele><time>2014-5-9T15:36:42Z</time></trkpt>
<trkpt lat="47.53290653" lon="-2.75548697"><ele></ele><time>2014-5-9T15:36:45Z</time></trkpt>
<trkpt lat="47.53290653" lon="-2.75546551"><ele></ele><time>2014-5-9T15:36:48Z</time></trkpt>
<trkpt lat="47.53292799" lon="-2.75548697"><ele></ele><time>2014-5-9T15:36:51Z</time></trkpt>
<trkpt lat="47.53290653" lon="-2.75537968"><ele></ele><time>2014-5-9T15:36:54Z</time></trkpt>
<trkpt lat="47.53294945" lon="-2.75529385"><ele></ele><time>2014-5-9T15:36:57Z</time></trkpt>
<trkpt lat="47.53305674" lon="-2.75501490"><ele></ele><time>2014-5-9T15:37:0Z</time></trkpt>
<trkpt lat="47.53297091" lon="-2.75484324"><ele></ele><time>2014-5-9T15:37:3Z</time></trkpt>
<trkpt lat="47.53256321" lon="-2.75465012"><ele></ele><time>2014-5-9T15:37:6Z</time></trkpt>
<trkpt lat="47.53215551" lon="-2.75460720"><ele></ele><time>2014-5-9T15:37:9Z</time></trkpt>
<trkpt lat="47.53179073" lon="-2.75449991"><ele></ele><time>2014-5-9T15:37:12Z</time></trkpt>
<trkpt lat="47.53131866" lon="-2.75434971"><ele></ele><time>2014-5-9T15:37:15Z</time></trkpt>
<trkpt lat="47.53108263" lon="-2.75432825"><ele></ele><time>2014-5-9T15:37:18Z</time></trkpt>
<trkpt lat="47.53084660" lon="-2.75445700"><ele></ele><time>2014-5-9T15:37:21Z</time></trkpt>
<trkpt lat="47.53076077" lon="-2.75456429"><ele></ele><time>2014-5-9T15:37:24Z</time></trkpt>
<trkpt lat="47.53069639" lon="-2.75482178"><ele></ele><time>2014-5-9T15:37:27Z</time></trkpt>
<trkpt lat="47.53069639" lon="-2.75495052"><ele></ele><time>2014-5-9T15:37:30Z</time></trkpt>
<trkpt lat="47.53054619" lon="-2.75522947"><ele></ele><time>2014-5-9T15:37:33Z</time></trkpt>
<trkpt lat="47.53050327" lon="-2.75520802"><ele></ele><time>2014-5-9T15:37:36Z</time></trkpt>
<trkpt lat="47.53026724" lon="-2.75503635"><ele></ele><time>2014-5-9T15:37:39Z</time></trkpt>
<trkpt lat="47.52990246" lon="-2.75480032"><ele></ele><time>2014-5-9T15:37:42Z</time></trkpt>
<trkpt lat="47.52979517" lon="-2.75471449"><ele></ele><time>2014-5-9T15:37:45Z</time></trkpt>
<trkpt lat="47.52960205" lon="-2.75467157"><ele></ele><time>2014-5-9T15:37:48Z</time></trkpt>
<trkpt lat="47.52940893" lon="-2.75486469"><ele></ele><time>2014-5-9T15:37:51Z</time></trkpt>
<trkpt lat="47.52915144" lon="-2.75542259"><ele></ele><time>2014-5-9T15:37:54Z</time></trkpt>
<trkpt lat="47.52889395" lon="-2.75583029"><ele></ele><time>2014-5-9T15:37:57Z</time></trkpt>
<trkpt lat="47.52855062" lon="-2.75591612"><ele></ele><time>2014-5-9T15:38:0Z</time></trkpt>
<trkpt lat="47.52807856" lon="-2.75604486"><ele></ele><time>2014-5-9T15:38:3Z</time></trkpt>
<trkpt lat="47.52807856" lon="-2.75621653"><ele></ele><time>2014-5-9T15:38:6Z</time></trkpt>
<trkpt lat="47.52812147" lon="-2.75688171"><ele></ele><time>2014-5-9T15:38:9Z</time></trkpt>
<trkpt lat="47.52812147" lon="-2.75696754"><ele></ele><time>2014-5-9T15:38:12Z</time></trkpt>
<trkpt lat="47.52801418" lon="-2.75707483"><ele></ele><time>2014-5-9T15:38:15Z</time></trkpt>
<trkpt lat="47.52771378" lon="-2.75718212"><ele></ele><time>2014-5-9T15:38:18Z</time></trkpt>
<trkpt lat="47.52773523" lon="-2.75754690"><ele></ele><time>2014-5-9T15:38:21Z</time></trkpt>
<trkpt lat="47.52779961" lon="-2.75823355"><ele></ele><time>2014-5-9T15:38:24Z</time></trkpt>
<trkpt lat="47.52784252" lon="-2.75932789"><ele></ele><time>2014-5-9T15:38:27Z</time></trkpt>
<trkpt lat="47.52779961" lon="-2.76029348"><ele></ele><time>2014-5-9T15:38:30Z</time></trkpt>
<trkpt lat="47.52775669" lon="-2.76151657"><ele></ele><time>2014-5-9T15:38:33Z</time></trkpt>
<trkpt lat="47.52771378" lon="-2.76252508"><ele></ele><time>2014-5-9T15:38:36Z</time></trkpt>
<trkpt lat="47.52767086" lon="-2.76368380"><ele></ele><time>2014-5-9T15:38:39Z</time></trkpt>
<trkpt lat="47.52760649" lon="-2.76503563"><ele></ele><time>2014-5-9T15:38:42Z</time></trkpt>
<trkpt lat="47.52758503" lon="-2.76516438"><ele></ele><time>2014-5-9T15:38:45Z</time></trkpt>
<trkpt lat="47.52737045" lon="-2.76527166"><ele></ele><time>2014-5-9T15:38:48Z</time></trkpt>
<trkpt lat="47.52679110" lon="-2.76527166"><ele></ele><time>2014-5-9T15:38:51Z</time></trkpt>
<trkpt lat="47.52642632" lon="-2.76544333"><ele></ele><time>2014-5-9T15:38:54Z</time></trkpt>
<trkpt lat="47.52627611" lon="-2.76589394"><ele></ele><time>2014-5-9T15:38:57Z</time></trkpt>
<trkpt lat="47.52629757" lon="-2.76595831"><ele></ele><time>2014-5-9T15:39:0Z</time></trkpt>
<trkpt lat="47.52631903" lon="-2.76628017"><ele></ele><time>2014-5-9T15:39:3Z</time></trkpt>
<trkpt lat="47.52644777" lon="-2.76649475"><ele></ele><time>2014-5-9T15:39:6Z</time></trkpt>
<trkpt lat="47.52653360" lon="-2.76662350"><ele></ele><time>2014-5-9T15:39:9Z</time></trkpt>
<trkpt lat="47.52653360" lon="-2.76670933"><ele></ele><time>2014-5-9T15:39:12Z</time></trkpt>
<trkpt lat="47.52651215" lon="-2.76705265"><ele></ele><time>2014-5-9T15:39:15Z</time></trkpt>
<trkpt lat="47.52646923" lon="-2.76748180"><ele></ele><time>2014-5-9T15:39:18Z</time></trkpt>
<trkpt lat="47.52644777" lon="-2.76778221"><ele></ele><time>2014-5-9T15:39:21Z</time></trkpt>
<trkpt lat="47.52640486" lon="-2.76812553"><ele></ele><time>2014-5-9T15:39:24Z</time></trkpt>
<trkpt lat="47.52653360" lon="-2.76831865"><ele></ele><time>2014-5-9T15:39:27Z</time></trkpt>
<trkpt lat="47.52653360" lon="-2.76844740"><ele></ele><time>2014-5-9T15:39:30Z</time></trkpt>
<trkpt lat="47.52649069" lon="-2.76911259"><ele></ele><time>2014-5-9T15:39:33Z</time></trkpt>
<trkpt lat="47.52651215" lon="-2.76958466"><ele></ele><time>2014-5-9T15:39:36Z</time></trkpt>
<trkpt lat="47.52668381" lon="-2.76973486"><ele></ele><time>2014-5-9T15:39:39Z</time></trkpt>
<trkpt lat="47.52698421" lon="-2.76941299"><ele></ele><time>2014-5-9T15:39:42Z</time></trkpt>
<trkpt lat="47.52719879" lon="-2.76919842"><ele></ele><time>2014-5-9T15:39:45Z</time></trkpt>
<trkpt lat="47.52728462" lon="-2.76915550"><ele></ele><time>2014-5-9T15:39:48Z</time></trkpt>
<trkpt lat="47.52754211" lon="-2.76928425"><ele></ele><time>2014-5-9T15:39:51Z</time></trkpt>
<trkpt lat="47.52756357" lon="-2.76928425"><ele></ele><time>2014-5-9T15:39:54Z</time></trkpt>
<trkpt lat="47.52758503" lon="-2.76926279"><ele></ele><time>2014-5-9T15:39:57Z</time></trkpt>
<trkpt lat="47.52758503" lon="-2.76926279"><ele></ele><time>2014-5-9T15:40:0Z</time></trkpt>
<trkpt lat="47.52760649" lon="-2.76934862"><ele></ele><time>2014-5-9T15:40:3Z</time></trkpt>
<trkpt lat="47.52760649" lon="-2.76932716"><ele></ele><time>2014-5-9T15:40:6Z</time></trkpt>
<trkpt lat="47.52760649" lon="-2.76934862"><ele></ele><time>2014-5-9T15:40:9Z</time></trkpt>
<trkpt lat="47.52756357" lon="-2.76937008"><ele></ele><time>2014-5-9T15:40:12Z</time></trkpt>
<trkpt lat="47.52756357" lon="-2.76943445"><ele></ele><time>2014-5-9T15:40:15Z</time></trkpt>
<trkpt lat="47.52754211" lon="-2.76945591"><ele></ele><time>2014-5-9T15:40:18Z</time></trkpt>
<trkpt lat="47.52754211" lon="-2.76945591"><ele></ele><time>2014-5-9T15:40:21Z</time></trkpt>
<trkpt lat="47.52754211" lon="-2.76941299"><ele></ele><time>2014-5-9T15:40:24Z</time></trkpt>
<trkpt lat="47.52760649" lon="-2.76930571"><ele></ele><time>2014-5-9T15:40:27Z</time></trkpt>
<trkpt lat="47.52760649" lon="-2.76879072"><ele></ele><time>2014-5-9T15:40:30Z</time></trkpt>
<trkpt lat="47.52794981" lon="-2.76874781"><ele></ele><time>2014-5-9T15:40:33Z</time></trkpt>
<trkpt lat="47.52827168" lon="-2.76846886"><ele></ele><time>2014-5-9T15:40:36Z</time></trkpt>
<trkpt lat="47.52850771" lon="-2.76851177"><ele></ele><time>2014-5-9T15:40:39Z</time></trkpt>
<trkpt lat="47.52857208" lon="-2.76836157"><ele></ele><time>2014-5-9T15:40:42Z</time></trkpt>
<trkpt lat="47.52867937" lon="-2.76758909"><ele></ele><time>2014-5-9T15:40:45Z</time></trkpt>
<trkpt lat="47.52867937" lon="-2.76756763"><ele></ele><time>2014-5-9T15:40:48Z</time></trkpt>
<trkpt lat="47.52867937" lon="-2.76756763"><ele></ele><time>2014-5-9T15:40:51Z</time></trkpt>
<trkpt lat="47.52870083" lon="-2.76735306"><ele></ele><time>2014-5-9T15:40:54Z</time></trkpt>
<trkpt lat="47.52897978" lon="-2.76668787"><ele></ele><time>2014-5-9T15:40:57Z</time></trkpt>
<trkpt lat="47.52943039" lon="-2.76593685"><ele></ele><time>2014-5-9T15:41:0Z</time></trkpt>
<trkpt lat="47.52992392" lon="-2.76490688"><ele></ele><time>2014-5-9T15:41:3Z</time></trkpt>
<trkpt lat="47.53031015" lon="-2.76372671"><ele></ele><time>2014-5-9T15:41:6Z</time></trkpt>
<trkpt lat="47.53078222" lon="-2.76228905"><ele></ele><time>2014-5-9T15:41:9Z</time></trkpt>
<trkpt lat="47.53121138" lon="-2.76110888"><ele></ele><time>2014-5-9T15:41:12Z</time></trkpt>
<trkpt lat="47.53144741" lon="-2.75990725"><ele></ele><time>2014-5-9T15:41:15Z</time></trkpt>
<trkpt lat="47.53155470" lon="-2.75874853"><ele></ele><time>2014-5-9T15:41:18Z</time></trkpt>
<trkpt lat="47.53170490" lon="-2.75814772"><ele></ele><time>2014-5-9T15:41:21Z</time></trkpt>
<trkpt lat="47.53202677" lon="-2.75735378"><ele></ele><time>2014-5-9T15:41:24Z</time></trkpt>
<trkpt lat="47.53243446" lon="-2.75643110"><ele></ele><time>2014-5-9T15:41:27Z</time></trkpt>
<trkpt lat="47.53284216" lon="-2.75550842"><ele></ele><time>2014-5-9T15:41:30Z</time></trkpt>
<trkpt lat="47.53365755" lon="-2.75385618"><ele></ele><time>2014-5-9T15:41:33Z</time></trkpt>
<trkpt lat="47.53421545" lon="-2.75299788"><ele></ele><time>2014-5-9T15:41:36Z</time></trkpt>
<trkpt lat="47.53485918" lon="-2.75173187"><ele></ele><time>2014-5-9T15:41:39Z</time></trkpt>
<trkpt lat="47.53515959" lon="-2.75063753"><ele></ele><time>2014-5-9T15:41:42Z</time></trkpt>
<trkpt lat="47.53539562" lon="-2.74950027"><ele></ele><time>2014-5-9T15:41:45Z</time></trkpt>
<trkpt lat="47.53569603" lon="-2.74836302"><ele></ele><time>2014-5-9T15:41:48Z</time></trkpt>
<trkpt lat="47.53612518" lon="-2.74713993"><ele></ele><time>2014-5-9T15:41:51Z</time></trkpt>
<trkpt lat="47.53640413" lon="-2.74606705"><ele></ele><time>2014-5-9T15:41:54Z</time></trkpt>
<trkpt lat="47.53644705" lon="-2.74497271"><ele></ele><time>2014-5-9T15:41:57Z</time></trkpt>
<trkpt lat="47.53644705" lon="-2.74314880"><ele></ele><time>2014-5-9T15:42:0Z</time></trkpt>
<trkpt lat="47.53659725" lon="-2.74220467"><ele></ele><time>2014-5-9T15:42:3Z</time></trkpt>
<trkpt lat="47.53664017" lon="-2.74190426"><ele></ele><time>2014-5-9T15:42:6Z</time></trkpt>
<trkpt lat="47.53664017" lon="-2.74186134"><ele></ele><time>2014-5-9T15:42:9Z</time></trkpt>
<trkpt lat="47.53691912" lon="-2.74186134"><ele></ele><time>2014-5-9T15:42:12Z</time></trkpt>
<trkpt lat="47.53694057" lon="-2.74188280"><ele></ele><time>2014-5-9T15:42:15Z</time></trkpt>
<trkpt lat="47.53736973" lon="-2.74199009"><ele></ele><time>2014-5-9T15:42:18Z</time></trkpt>
<trkpt lat="47.53756285" lon="-2.74192572"><ele></ele><time>2014-5-9T15:42:21Z</time></trkpt>
<trkpt lat="47.53771305" lon="-2.74201155"><ele></ele><time>2014-5-9T15:42:24Z</time></trkpt>
<trkpt lat="47.53790617" lon="-2.74231195"><ele></ele><time>2014-5-9T15:42:27Z</time></trkpt>
<trkpt lat="47.53839970" lon="-2.74256945"><ele></ele><time>2014-5-9T15:42:30Z</time></trkpt>
<trkpt lat="47.53897905" lon="-2.74274111"><ele></ele><time>2014-5-9T15:42:33Z</time></trkpt>
<trkpt lat="47.53919363" lon="-2.74252653"><ele></ele><time>2014-5-9T15:42:36Z</time></trkpt>
<trkpt lat="47.53949404" lon="-2.74209738"><ele></ele><time>2014-5-9T15:42:39Z</time></trkpt>
<trkpt lat="47.53953695" lon="-2.74183989"><ele></ele><time>2014-5-9T15:42:42Z</time></trkpt>
<trkpt lat="47.53955841" lon="-2.74153948"><ele></ele><time>2014-5-9T15:42:45Z</time></trkpt>
<trkpt lat="47.53947258" lon="-2.74085283"><ele></ele><time>2014-5-9T15:42:48Z</time></trkpt>
<trkpt lat="47.53919363" lon="-2.74023056"><ele></ele><time>2014-5-9T15:42:51Z</time></trkpt>
<trkpt lat="47.53904343" lon="-2.73971558"><ele></ele><time>2014-5-9T15:42:54Z</time></trkpt>
<trkpt lat="47.53904343" lon="-2.73954391"><ele></ele><time>2014-5-9T15:42:57Z</time></trkpt>
<trkpt lat="47.53917217" lon="-2.73952246"><ele></ele><time>2014-5-9T15:43:0Z</time></trkpt>
<trkpt lat="47.53921509" lon="-2.73945808"><ele></ele><time>2014-5-9T15:43:3Z</time></trkpt>
<trkpt lat="47.53951550" lon="-2.73907185"><ele></ele><time>2014-5-9T15:43:6Z</time></trkpt>
<trkpt lat="47.53988028" lon="-2.73851395"><ele></ele><time>2014-5-9T15:43:9Z</time></trkpt>
<trkpt lat="47.54009485" lon="-2.73797750"><ele></ele><time>2014-5-9T15:43:12Z</time></trkpt>
<trkpt lat="47.54039526" lon="-2.73690462"><ele></ele><time>2014-5-9T15:43:15Z</time></trkpt>
<trkpt lat="47.54065275" lon="-2.73516655"><ele></ele><time>2014-5-9T15:43:18Z</time></trkpt>
<trkpt lat="47.54101753" lon="-2.73381472"><ele></ele><time>2014-5-9T15:43:21Z</time></trkpt>
<trkpt lat="47.54129648" lon="-2.73287058"><ele></ele><time>2014-5-9T15:43:24Z</time></trkpt>
<trkpt lat="47.54153252" lon="-2.73216248"><ele></ele><time>2014-5-9T15:43:27Z</time></trkpt>
<trkpt lat="47.54176855" lon="-2.73154020"><ele></ele><time>2014-5-9T15:43:30Z</time></trkpt>
<trkpt lat="47.54185438" lon="-2.73098230"><ele></ele><time>2014-5-9T15:43:33Z</time></trkpt>
<trkpt lat="47.54211187" lon="-2.73029566"><ele></ele><time>2014-5-9T15:43:36Z</time></trkpt>
<trkpt lat="47.54215479" lon="-2.73016691"><ele></ele><time>2014-5-9T15:43:39Z</time></trkpt>
<trkpt lat="47.54236937" lon="-2.72999525"><ele></ele><time>2014-5-9T15:43:42Z</time></trkpt>
<trkpt lat="47.54251957" lon="-2.72995234"><ele></ele><time>2014-5-9T15:43:45Z</time></trkpt>
<trkpt lat="47.54269123" lon="-2.73003817"><ele></ele><time>2014-5-9T15:43:48Z</time></trkpt>
<trkpt lat="47.54266977" lon="-2.73008108"><ele></ele><time>2014-5-9T15:43:51Z</time></trkpt>
<trkpt lat="47.54247665" lon="-2.72999525"><ele></ele><time>2014-5-9T15:43:54Z</time></trkpt>
<trkpt lat="47.54224062" lon="-2.73001671"><ele></ele><time>2014-5-9T15:43:57Z</time></trkpt>
<trkpt lat="47.54209042" lon="-2.73036003"><ele></ele><time>2014-5-9T15:44:0Z</time></trkpt>
<trkpt lat="47.54185438" lon="-2.73104668"><ele></ele><time>2014-5-9T15:44:3Z</time></trkpt>
<trkpt lat="47.54163980" lon="-2.73192644"><ele></ele><time>2014-5-9T15:44:6Z</time></trkpt>
<trkpt lat="47.54159689" lon="-2.73205519"><ele></ele><time>2014-5-9T15:44:9Z</time></trkpt>
<trkpt lat="47.54133940" lon="-2.73274183"><ele></ele><time>2014-5-9T15:44:12Z</time></trkpt>
<trkpt lat="47.54116774" lon="-2.73342848"><ele></ele><time>2014-5-9T15:44:15Z</time></trkpt>
<trkpt lat="47.54088879" lon="-2.73437262"><ele></ele><time>2014-5-9T15:44:18Z</time></trkpt>
<trkpt lat="47.54060984" lon="-2.73546696"><ele></ele><time>2014-5-9T15:44:21Z</time></trkpt>
<trkpt lat="47.54048109" lon="-2.73630381"><ele></ele><time>2014-5-9T15:44:24Z</time></trkpt>
<trkpt lat="47.54028797" lon="-2.73735523"><ele></ele><time>2014-5-9T15:44:27Z</time></trkpt>
<trkpt lat="47.54011631" lon="-2.73795605"><ele></ele><time>2014-5-9T15:44:30Z</time></trkpt>
<trkpt lat="47.53985882" lon="-2.73855686"><ele></ele><time>2014-5-9T15:44:33Z</time></trkpt>
<trkpt lat="47.53962278" lon="-2.73890018"><ele></ele><time>2014-5-9T15:44:36Z</time></trkpt>
<trkpt lat="47.53917217" lon="-2.73950100"><ele></ele><time>2014-5-9T15:44:39Z</time></trkpt>
<trkpt lat="47.53912926" lon="-2.73958683"><ele></ele><time>2014-5-9T15:44:42Z</time></trkpt>
<trkpt lat="47.53904343" lon="-2.73967266"><ele></ele><time>2014-5-9T15:44:45Z</time></trkpt>
<trkpt lat="47.53904343" lon="-2.73982286"><ele></ele><time>2014-5-9T15:44:48Z</time></trkpt>
<trkpt lat="47.53893614" lon="-2.73988724"><ele></ele><time>2014-5-9T15:44:51Z</time></trkpt>
<trkpt lat="47.53839970" lon="-2.73975849"><ele></ele><time>2014-5-9T15:44:54Z</time></trkpt>
<trkpt lat="47.53786325" lon="-2.73999453"><ele></ele><time>2014-5-9T15:44:57Z</time></trkpt>
<trkpt lat="47.53764868" lon="-2.74023056"><ele></ele><time>2014-5-9T15:45:0Z</time></trkpt>
<trkpt lat="47.53732681" lon="-2.74078846"><ele></ele><time>2014-5-9T15:45:3Z</time></trkpt>
<trkpt lat="47.53719807" lon="-2.74089575"><ele></ele><time>2014-5-9T15:45:6Z</time></trkpt>
<trkpt lat="47.53691912" lon="-2.74059534"><ele></ele><time>2014-5-9T15:45:9Z</time></trkpt>
<trkpt lat="47.53694057" lon="-2.74042368"><ele></ele><time>2014-5-9T15:45:12Z</time></trkpt>
<trkpt lat="47.53704786" lon="-2.73980141"><ele></ele><time>2014-5-9T15:45:15Z</time></trkpt>
<trkpt lat="47.53721952" lon="-2.73926497"><ele></ele><time>2014-5-9T15:45:18Z</time></trkpt>
<trkpt lat="47.53739119" lon="-2.73879290"><ele></ele><time>2014-5-9T15:45:21Z</time></trkpt>
<trkpt lat="47.53762722" lon="-2.73806334"><ele></ele><time>2014-5-9T15:45:24Z</time></trkpt>
<trkpt lat="47.53767014" lon="-2.73795605"><ele></ele><time>2014-5-9T15:45:27Z</time></trkpt>
<trkpt lat="47.53767014" lon="-2.73772001"><ele></ele><time>2014-5-9T15:45:30Z</time></trkpt>
<trkpt lat="47.53730536" lon="-2.73673296"><ele></ele><time>2014-5-9T15:45:33Z</time></trkpt>
<trkpt lat="47.53713369" lon="-2.73600340"><ele></ele><time>2014-5-9T15:45:36Z</time></trkpt>
<trkpt lat="47.53719807" lon="-2.73516655"><ele></ele><time>2014-5-9T15:45:39Z</time></trkpt>
<trkpt lat="47.53728390" lon="-2.73422241"><ele></ele><time>2014-5-9T15:45:42Z</time></trkpt>
<trkpt lat="47.53736973" lon="-2.73344994"><ele></ele><time>2014-5-9T15:45:45Z</time></trkpt>
<trkpt lat="47.53743410" lon="-2.73235559"><ele></ele><time>2014-5-9T15:45:48Z</time></trkpt>
<trkpt lat="47.53743410" lon="-2.73218393"><ele></ele><time>2014-5-9T15:45:51Z</time></trkpt>
<trkpt lat="47.53739119" lon="-2.73218393"><ele></ele><time>2014-5-9T15:45:54Z</time></trkpt>
<trkpt lat="47.53739119" lon="-2.73218393"><ele></ele><time>2014-5-9T15:45:57Z</time></trkpt>
<trkpt lat="47.53732681" lon="-2.73222685"><ele></ele><time>2014-5-9T15:46:0Z</time></trkpt>
<trkpt lat="47.53702641" lon="-2.73214102"><ele></ele><time>2014-5-9T15:46:3Z</time></trkpt>
<trkpt lat="47.53655434" lon="-2.73194790"><ele></ele><time>2014-5-9T15:46:6Z</time></trkpt>
<trkpt lat="47.53591061" lon="-2.73175478"><ele></ele><time>2014-5-9T15:46:9Z</time></trkpt>
<trkpt lat="47.53582478" lon="-2.73175478"><ele></ele><time>2014-5-9T15:46:12Z</time></trkpt>
<trkpt lat="47.53576040" lon="-2.73179770"><ele></ele><time>2014-5-9T15:46:15Z</time></trkpt>
<trkpt lat="47.53597498" lon="-2.73179770"><ele></ele><time>2014-5-9T15:46:18Z</time></trkpt>
<trkpt lat="47.53646851" lon="-2.73196936"><ele></ele><time>2014-5-9T15:46:21Z</time></trkpt>
<trkpt lat="47.53691912" lon="-2.73203373"><ele></ele><time>2014-5-9T15:46:24Z</time></trkpt>
<trkpt lat="47.53741264" lon="-2.73218393"><ele></ele><time>2014-5-9T15:46:27Z</time></trkpt>
<trkpt lat="47.53773451" lon="-2.73199081"><ele></ele><time>2014-5-9T15:46:30Z</time></trkpt>
<trkpt lat="47.53788471" lon="-2.73181915"><ele></ele><time>2014-5-9T15:46:33Z</time></trkpt>
<trkpt lat="47.53773451" lon="-2.73025274"><ele></ele><time>2014-5-9T15:46:36Z</time></trkpt>
<trkpt lat="47.53782034" lon="-2.72990942"><ele></ele><time>2014-5-9T15:46:39Z</time></trkpt>
<trkpt lat="47.53747702" lon="-2.72900820"><ele></ele><time>2014-5-9T15:46:42Z</time></trkpt>
<trkpt lat="47.53751993" lon="-2.72887945"><ele></ele><time>2014-5-9T15:46:45Z</time></trkpt>
<trkpt lat="47.53769159" lon="-2.72840738"><ele></ele><time>2014-5-9T15:46:48Z</time></trkpt>
<trkpt lat="47.53777742" lon="-2.72817135"><ele></ele><time>2014-5-9T15:46:51Z</time></trkpt>
<trkpt lat="47.53777742" lon="-2.72793531"><ele></ele><time>2014-5-9T15:46:54Z</time></trkpt>
<trkpt lat="47.53771305" lon="-2.72782803"><ele></ele><time>2014-5-9T15:46:57Z</time></trkpt>
<trkpt lat="47.53754139" lon="-2.72774220"><ele></ele><time>2014-5-9T15:47:0Z</time></trkpt>
<trkpt lat="47.53685474" lon="-2.72716284"><ele></ele><time>2014-5-9T15:47:3Z</time></trkpt>
<trkpt lat="47.53679037" lon="-2.72709846"><ele></ele><time>2014-5-9T15:47:6Z</time></trkpt>
<trkpt lat="47.53648996" lon="-2.72720575"><ele></ele><time>2014-5-9T15:47:9Z</time></trkpt>
<trkpt lat="47.53623247" lon="-2.72688389"><ele></ele><time>2014-5-9T15:47:12Z</time></trkpt>
<trkpt lat="47.53623247" lon="-2.72634745"><ele></ele><time>2014-5-9T15:47:15Z</time></trkpt>
<trkpt lat="47.53623247" lon="-2.72606850"><ele></ele><time>2014-5-9T15:47:18Z</time></trkpt>
<trkpt lat="47.53586769" lon="-2.72600412"><ele></ele><time>2014-5-9T15:47:21Z</time></trkpt>
<trkpt lat="47.53528833" lon="-2.72598267"><ele></ele><time>2014-5-9T15:47:24Z</time></trkpt>
<trkpt lat="47.53520250" lon="-2.72617579"><ele></ele><time>2014-5-9T15:47:27Z</time></trkpt>
<trkpt lat="47.53492355" lon="-2.72692680"><ele></ele><time>2014-5-9T15:47:30Z</time></trkpt>
<trkpt lat="47.53464460" lon="-2.72774220"><ele></ele><time>2014-5-9T15:47:33Z</time></trkpt>
<trkpt lat="47.53432274" lon="-2.72857904"><ele></ele><time>2014-5-9T15:47:36Z</time></trkpt>
<trkpt lat="47.53408670" lon="-2.72930861"><ele></ele><time>2014-5-9T15:47:39Z</time></trkpt>
<trkpt lat="47.53376484" lon="-2.73023129"><ele></ele><time>2014-5-9T15:47:42Z</time></trkpt>
<trkpt lat="47.53348589" lon="-2.73108959"><ele></ele><time>2014-5-9T15:47:45Z</time></trkpt>
<trkpt lat="47.53301382" lon="-2.73244143"><ele></ele><time>2014-5-9T15:47:48Z</time></trkpt>
<trkpt lat="47.53256321" lon="-2.73366451"><ele></ele><time>2014-5-9T15:47:51Z</time></trkpt>
<trkpt lat="47.53215551" lon="-2.73484468"><ele></ele><time>2014-5-9T15:47:54Z</time></trkpt>
<trkpt lat="47.53168344" lon="-2.73617506"><ele></ele><time>2014-5-9T15:47:57Z</time></trkpt>
<trkpt lat="47.53134012" lon="-2.73720503"><ele></ele><time>2014-5-9T15:48:0Z</time></trkpt>
<trkpt lat="47.53041744" lon="-2.73995161"><ele></ele><time>2014-5-9T15:48:3Z</time></trkpt>
<trkpt lat="47.52996683" lon="-2.74111032"><ele></ele><time>2014-5-9T15:48:6Z</time></trkpt>
<trkpt lat="47.52960205" lon="-2.74194717"><ele></ele><time>2014-5-9T15:48:9Z</time></trkpt>
<trkpt lat="47.52900124" lon="-2.74265528"><ele></ele><time>2014-5-9T15:48:12Z</time></trkpt>
<trkpt lat="47.52831459" lon="-2.74325609"><ele></ele><time>2014-5-9T15:48:15Z</time></trkpt>
<trkpt lat="47.52745628" lon="-2.74377108"><ele></ele><time>2014-5-9T15:48:18Z</time></trkpt>
<trkpt lat="47.52700567" lon="-2.74407148"><ele></ele><time>2014-5-9T15:48:21Z</time></trkpt>
<trkpt lat="47.52634048" lon="-2.74475813"><ele></ele><time>2014-5-9T15:48:24Z</time></trkpt>
<trkpt lat="47.52604008" lon="-2.74523020"><ele></ele><time>2014-5-9T15:48:27Z</time></trkpt>
<trkpt lat="47.52601862" lon="-2.74572372"><ele></ele><time>2014-5-9T15:48:30Z</time></trkpt>
<trkpt lat="47.52610445" lon="-2.74636745"><ele></ele><time>2014-5-9T15:48:33Z</time></trkpt>
<trkpt lat="47.52627611" lon="-2.74733305"><ele></ele><time>2014-5-9T15:48:36Z</time></trkpt>
<trkpt lat="47.52646923" lon="-2.74842739"><ele></ele><time>2014-5-9T15:48:39Z</time></trkpt>
<trkpt lat="47.52664089" lon="-2.74928570"><ele></ele><time>2014-5-9T15:48:42Z</time></trkpt>
<trkpt lat="47.52685547" lon="-2.75016546"><ele></ele><time>2014-5-9T15:48:45Z</time></trkpt>
<trkpt lat="47.52709150" lon="-2.75095940"><ele></ele><time>2014-5-9T15:48:48Z</time></trkpt>
<trkpt lat="47.52749920" lon="-2.75160313"><ele></ele><time>2014-5-9T15:48:51Z</time></trkpt>
<trkpt lat="47.52803564" lon="-2.75209665"><ele></ele><time>2014-5-9T15:48:54Z</time></trkpt>
<trkpt lat="47.52833605" lon="-2.75233269"><ele></ele><time>2014-5-9T15:48:57Z</time></trkpt>
<trkpt lat="47.52870083" lon="-2.75286913"><ele></ele><time>2014-5-9T15:49:0Z</time></trkpt>
<trkpt lat="47.52878666" lon="-2.75308371"><ele></ele><time>2014-5-9T15:49:3Z</time></trkpt>
<trkpt lat="47.52891541" lon="-2.75353432"><ele></ele><time>2014-5-9T15:49:6Z</time></trkpt>
<trkpt lat="47.52889395" lon="-2.75404930"><ele></ele><time>2014-5-9T15:49:9Z</time></trkpt>
<trkpt lat="47.52876520" lon="-2.75432825"><ele></ele><time>2014-5-9T15:49:12Z</time></trkpt>
<trkpt lat="47.52846479" lon="-2.75469303"><ele></ele><time>2014-5-9T15:49:15Z</time></trkpt>
<trkpt lat="47.52803564" lon="-2.75516510"><ele></ele><time>2014-5-9T15:49:18Z</time></trkpt>
<trkpt lat="47.52773523" lon="-2.75559425"><ele></ele><time>2014-5-9T15:49:21Z</time></trkpt>
<trkpt lat="47.52767086" lon="-2.75574446"><ele></ele><time>2014-5-9T15:49:24Z</time></trkpt>
<trkpt lat="47.52764940" lon="-2.75583029"><ele></ele><time>2014-5-9T15:49:27Z</time></trkpt>
<trkpt lat="47.52756357" lon="-2.75593758"><ele></ele><time>2014-5-9T15:49:30Z</time></trkpt>
<trkpt lat="47.52756357" lon="-2.75632381"><ele></ele><time>2014-5-9T15:49:33Z</time></trkpt>
<trkpt lat="47.52762794" lon="-2.75683880"><ele></ele><time>2014-5-9T15:49:36Z</time></trkpt>
<trkpt lat="47.52764940" lon="-2.75698900"><ele></ele><time>2014-5-9T15:49:39Z</time></trkpt>
<trkpt lat="47.52767086" lon="-2.75703192"><ele></ele><time>2014-5-9T15:49:42Z</time></trkpt>
<trkpt lat="47.52767086" lon="-2.75703192"><ele></ele><time>2014-5-9T15:49:45Z</time></trkpt>
<trkpt lat="47.52771378" lon="-2.75737524"><ele></ele><time>2014-5-9T15:49:48Z</time></trkpt>
<trkpt lat="47.52777815" lon="-2.75780439"><ele></ele><time>2014-5-9T15:49:51Z</time></trkpt>
<trkpt lat="47.52788544" lon="-2.75874853"><ele></ele><time>2014-5-9T15:49:54Z</time></trkpt>
<trkpt lat="47.52786398" lon="-2.75979996"><ele></ele><time>2014-5-9T15:49:57Z</time></trkpt>
<trkpt lat="47.52782106" lon="-2.76104450"><ele></ele><time>2014-5-9T15:50:0Z</time></trkpt>
<trkpt lat="47.52777815" lon="-2.76132345"><ele></ele><time>2014-5-9T15:50:3Z</time></trkpt>
<trkpt lat="47.52775669" lon="-2.76181698"><ele></ele><time>2014-5-9T15:50:6Z</time></trkpt>
<trkpt lat="47.52773523" lon="-2.76291132"><ele></ele><time>2014-5-9T15:50:9Z</time></trkpt>
<trkpt lat="47.52767086" lon="-2.76419878"><ele></ele><time>2014-5-9T15:50:12Z</time></trkpt>
<trkpt lat="47.52760649" lon="-2.76510000"><ele></ele><time>2014-5-9T15:50:15Z</time></trkpt>
<trkpt lat="47.52741337" lon="-2.76525021"><ele></ele><time>2014-5-9T15:50:18Z</time></trkpt>
<trkpt lat="47.52679110" lon="-2.76522875"><ele></ele><time>2014-5-9T15:50:21Z</time></trkpt>
<trkpt lat="47.52653360" lon="-2.76533604"><ele></ele><time>2014-5-9T15:50:24Z</time></trkpt>
<trkpt lat="47.52629757" lon="-2.76574373"><ele></ele><time>2014-5-9T15:50:27Z</time></trkpt>
<trkpt lat="47.52634048" lon="-2.76615143"><ele></ele><time>2014-5-9T15:50:30Z</time></trkpt>
<trkpt lat="47.52644777" lon="-2.76638746"><ele></ele><time>2014-5-9T15:50:33Z</time></trkpt>
<trkpt lat="47.52644777" lon="-2.76651621"><ele></ele><time>2014-5-9T15:50:36Z</time></trkpt>
<trkpt lat="47.52655506" lon="-2.76666641"><ele></ele><time>2014-5-9T15:50:39Z</time></trkpt>
<trkpt lat="47.52653360" lon="-2.76700974"><ele></ele><time>2014-5-9T15:50:42Z</time></trkpt>
<trkpt lat="47.52653360" lon="-2.76705265"><ele></ele><time>2014-5-9T15:50:45Z</time></trkpt>
<trkpt lat="47.52649069" lon="-2.76739597"><ele></ele><time>2014-5-9T15:50:48Z</time></trkpt>
<trkpt lat="47.52649069" lon="-2.76748180"><ele></ele><time>2014-5-9T15:50:51Z</time></trkpt>
<trkpt lat="47.52646923" lon="-2.76767492"><ele></ele><time>2014-5-9T15:50:54Z</time></trkpt>
<trkpt lat="47.52642632" lon="-2.76814699"><ele></ele><time>2014-5-9T15:50:57Z</time></trkpt>
<trkpt lat="47.52653360" lon="-2.76834011"><ele></ele><time>2014-5-9T15:51:0Z</time></trkpt>
<trkpt lat="47.52649069" lon="-2.76885509"><ele></ele><time>2014-5-9T15:51:3Z</time></trkpt>
<trkpt lat="47.52649069" lon="-2.76934862"><ele></ele><time>2014-5-9T15:51:6Z</time></trkpt>
<trkpt lat="47.52661943" lon="-2.76967049"><ele></ele><time>2014-5-9T15:51:9Z</time></trkpt>
<trkpt lat="47.52676964" lon="-2.76962757"><ele></ele><time>2014-5-9T15:51:12Z</time></trkpt>
<trkpt lat="47.52683401" lon="-2.76954174"><ele></ele><time>2014-5-9T15:51:15Z</time></trkpt>
<trkpt lat="47.52711296" lon="-2.76930571"><ele></ele><time>2014-5-9T15:51:18Z</time></trkpt>
<trkpt lat="47.52739191" lon="-2.76906967"><ele></ele><time>2014-5-9T15:51:21Z</time></trkpt>
<trkpt lat="47.52756357" lon="-2.76909113"><ele></ele><time>2014-5-9T15:51:24Z</time></trkpt>
<trkpt lat="47.52752066" lon="-2.76947737"><ele></ele><time>2014-5-9T15:51:27Z</time></trkpt>
<trkpt lat="47.52771378" lon="-2.76658058"><ele></ele><time>2014-5-9T15:51:30Z</time></trkpt>
<trkpt lat="47.52767086" lon="-2.76645184"><ele></ele><time>2014-5-9T15:51:33Z</time></trkpt>
<trkpt lat="47.52752066" lon="-2.76587248"><ele></ele><time>2014-5-9T15:51:36Z</time></trkpt>
<trkpt lat="47.52754211" lon="-2.76533604"><ele></ele><time>2014-5-9T15:51:39Z</time></trkpt>
<trkpt lat="47.52745628" lon="-2.76510000"><ele></ele><time>2014-5-9T15:51:42Z</time></trkpt>
<trkpt lat="47.52752066" lon="-2.76428461"><ele></ele><time>2014-5-9T15:51:45Z</time></trkpt>
<trkpt lat="47.52762794" lon="-2.76265383"><ele></ele><time>2014-5-9T15:51:48Z</time></trkpt>
<trkpt lat="47.52775669" lon="-2.75934935"><ele></ele><time>2014-5-9T15:51:51Z</time></trkpt>
<trkpt lat="47.52767086" lon="-2.75784731"><ele></ele><time>2014-5-9T15:51:54Z</time></trkpt>
<trkpt lat="47.52739191" lon="-2.75576591"><ele></ele><time>2014-5-9T15:51:57Z</time></trkpt>
<trkpt lat="47.52730608" lon="-2.75527239"><ele></ele><time>2014-5-9T15:52:0Z</time></trkpt>
<trkpt lat="47.52711296" lon="-2.75495052"><ele></ele><time>2014-5-9T15:52:3Z</time></trkpt>
<trkpt lat="47.52709150" lon="-2.75492907"><ele></ele><time>2014-5-9T15:52:6Z</time></trkpt>
<trkpt lat="47.52704859" lon="-2.75492907"><ele></ele><time>2014-5-9T15:52:9Z</time></trkpt>
<trkpt lat="47.52670527" lon="-2.75531530"><ele></ele><time>2014-5-9T15:52:12Z</time></trkpt>
<trkpt lat="47.52604008" lon="-2.75623798"><ele></ele><time>2014-5-9T15:52:15Z</time></trkpt>
<trkpt lat="47.52516031" lon="-2.75767565"><ele></ele><time>2014-5-9T15:52:18Z</time></trkpt>
<trkpt lat="47.52402306" lon="-2.76001453"><ele></ele><time>2014-5-9T15:52:21Z</time></trkpt>
<trkpt lat="47.52312183" lon="-2.76256800"><ele></ele><time>2014-5-9T15:52:24Z</time></trkpt>
<trkpt lat="47.52252102" lon="-2.76488543"><ele></ele><time>2014-5-9T15:52:27Z</time></trkpt>
<trkpt lat="47.52228498" lon="-2.76640892"><ele></ele><time>2014-5-9T15:52:30Z</time></trkpt>
<trkpt lat="47.52224207" lon="-2.76670933"><ele></ele><time>2014-5-9T15:52:33Z</time></trkpt>
<trkpt lat="47.52224207" lon="-2.76713848"><ele></ele><time>2014-5-9T15:52:36Z</time></trkpt>
<trkpt lat="47.52234936" lon="-2.76752472"><ele></ele><time>2014-5-9T15:52:39Z</time></trkpt>
<trkpt lat="47.52219915" lon="-2.76797533"><ele></ele><time>2014-5-9T15:52:42Z</time></trkpt>
<trkpt lat="47.52192020" lon="-2.76784658"><ele></ele><time>2014-5-9T15:52:45Z</time></trkpt>
<trkpt lat="47.52157688" lon="-2.76767492"><ele></ele><time>2014-5-9T15:52:48Z</time></trkpt>
<trkpt lat="47.52018213" lon="-2.76769638"><ele></ele><time>2014-5-9T15:52:51Z</time></trkpt>
<trkpt lat="47.51992464" lon="-2.76771784"><ele></ele><time>2014-5-9T15:52:54Z</time></trkpt>
<trkpt lat="47.51872301" lon="-2.76827574"><ele></ele><time>2014-5-9T15:52:57Z</time></trkpt>
<trkpt lat="47.51848698" lon="-2.76831865"><ele></ele><time>2014-5-9T15:53:0Z</time></trkpt>
<trkpt lat="47.51741409" lon="-2.76782513"><ele></ele><time>2014-5-9T15:53:3Z</time></trkpt>
<trkpt lat="47.51614809" lon="-2.76662350"><ele></ele><time>2014-5-9T15:53:6Z</time></trkpt>
<trkpt lat="47.51552582" lon="-2.76640892"><ele></ele><time>2014-5-9T15:53:9Z</time></trkpt>
<trkpt lat="47.51511812" lon="-2.76645184"><ele></ele><time>2014-5-9T15:53:12Z</time></trkpt>
<trkpt lat="47.51447439" lon="-2.76645184"><ele></ele><time>2014-5-9T15:53:15Z</time></trkpt>
<trkpt lat="47.51421690" lon="-2.76643038"><ele></ele><time>2014-5-9T15:53:18Z</time></trkpt>
<trkpt lat="47.51292944" lon="-2.76677370"><ele></ele><time>2014-5-9T15:53:21Z</time></trkpt>
<trkpt lat="47.51241446" lon="-2.76737452"><ele></ele><time>2014-5-9T15:53:24Z</time></trkpt>
<trkpt lat="47.51235008" lon="-2.76754618"><ele></ele><time>2014-5-9T15:53:27Z</time></trkpt>
<trkpt lat="47.51155615" lon="-2.76924133"><ele></ele><time>2014-5-9T15:53:30Z</time></trkpt>
<trkpt lat="47.51024723" lon="-2.77048588"><ele></ele><time>2014-5-9T15:53:33Z</time></trkpt>
<trkpt lat="47.50895977" lon="-2.77166605"><ele></ele><time>2014-5-9T15:53:36Z</time></trkpt>
<trkpt lat="47.50825167" lon="-2.77192354"><ele></ele><time>2014-5-9T15:53:39Z</time></trkpt>
<trkpt lat="47.50647068" lon="-2.77196646"><ele></ele><time>2014-5-9T15:53:42Z</time></trkpt>
<trkpt lat="47.50526905" lon="-2.77220249"><ele></ele><time>2014-5-9T15:53:45Z</time></trkpt>
<trkpt lat="47.50494719" lon="-2.77243853"><ele></ele><time>2014-5-9T15:53:48Z</time></trkpt>
<trkpt lat="47.50441074" lon="-2.77267456"><ele></ele><time>2014-5-9T15:53:51Z</time></trkpt>
<trkpt lat="47.50393867" lon="-2.77267456"><ele></ele><time>2014-5-9T15:53:54Z</time></trkpt>
<trkpt lat="47.50314474" lon="-2.77224541"><ele></ele><time>2014-5-9T15:53:57Z</time></trkpt>
<trkpt lat="47.50258684" lon="-2.77181625"><ele></ele><time>2014-5-9T15:54:0Z</time></trkpt>
<trkpt lat="47.50239372" lon="-2.77173042"><ele></ele><time>2014-5-9T15:54:3Z</time></trkpt>
<trkpt lat="47.50217915" lon="-2.77170897"><ele></ele><time>2014-5-9T15:54:6Z</time></trkpt>
<trkpt lat="47.50147104" lon="-2.77162313"><ele></ele><time>2014-5-9T15:54:9Z</time></trkpt>
<trkpt lat="47.50037670" lon="-2.77121544"><ele></ele><time>2014-5-9T15:54:12Z</time></trkpt>
<trkpt lat="47.49999046" lon="-2.77102232"><ele></ele><time>2014-5-9T15:54:15Z</time></trkpt>
<trkpt lat="47.49973297" lon="-2.77076483"><ele></ele><time>2014-5-9T15:54:18Z</time></trkpt>
<trkpt lat="47.49919653" lon="-2.77065754"><ele></ele><time>2014-5-9T15:54:21Z</time></trkpt>
<trkpt lat="47.49911070" lon="-2.77067900"><ele></ele><time>2014-5-9T15:54:24Z</time></trkpt>
<trkpt lat="47.49780178" lon="-2.77121544"><ele></ele><time>2014-5-9T15:54:27Z</time></trkpt>
<trkpt lat="47.49743700" lon="-2.77134418"><ele></ele><time>2014-5-9T15:54:30Z</time></trkpt>
<trkpt lat="47.49724388" lon="-2.77143002"><ele></ele><time>2014-5-9T15:54:33Z</time></trkpt>
<trkpt lat="47.49760866" lon="-2.77031422"><ele></ele><time>2014-5-9T15:54:36Z</time></trkpt>
<trkpt lat="47.49790907" lon="-2.76849031"><ele></ele><time>2014-5-9T15:54:39Z</time></trkpt>
<trkpt lat="47.49795198" lon="-2.76791096"><ele></ele><time>2014-5-9T15:54:42Z</time></trkpt>
<trkpt lat="47.49788761" lon="-2.76786804"><ele></ele><time>2014-5-9T15:54:45Z</time></trkpt>
<trkpt lat="47.49786615" lon="-2.76795387"><ele></ele><time>2014-5-9T15:54:48Z</time></trkpt>
<trkpt lat="47.49786615" lon="-2.76795387"><ele></ele><time>2014-5-9T15:54:51Z</time></trkpt>
<trkpt lat="47.49782324" lon="-2.76795387"><ele></ele><time>2014-5-9T15:54:54Z</time></trkpt>
<trkpt lat="47.49782324" lon="-2.76795387"><ele></ele><time>2014-5-9T15:54:57Z</time></trkpt>
<trkpt lat="47.49782324" lon="-2.76778221"><ele></ele><time>2014-5-9T15:55:0Z</time></trkpt>
<trkpt lat="47.49786615" lon="-2.76737452"><ele></ele><time>2014-5-9T15:55:3Z</time></trkpt>
<trkpt lat="47.49786615" lon="-2.76694536"><ele></ele><time>2014-5-9T15:55:6Z</time></trkpt>
<trkpt lat="47.49786615" lon="-2.76655912"><ele></ele><time>2014-5-9T15:55:9Z</time></trkpt>
<trkpt lat="47.49788761" lon="-2.76617289"><ele></ele><time>2014-5-9T15:55:12Z</time></trkpt>
<trkpt lat="47.49788761" lon="-2.76580811"><ele></ele><time>2014-5-9T15:55:15Z</time></trkpt>
<trkpt lat="47.49786615" lon="-2.76552916"><ele></ele><time>2014-5-9T15:55:18Z</time></trkpt>
<trkpt lat="47.49790907" lon="-2.76514292"><ele></ele><time>2014-5-9T15:55:21Z</time></trkpt>
<trkpt lat="47.49795198" lon="-2.76479959"><ele></ele><time>2014-5-9T15:55:24Z</time></trkpt>
<trkpt lat="47.49790907" lon="-2.76445627"><ele></ele><time>2014-5-9T15:55:27Z</time></trkpt>
<trkpt lat="47.49790907" lon="-2.76419878"><ele></ele><time>2014-5-9T15:55:30Z</time></trkpt>
<trkpt lat="47.49790907" lon="-2.76381254"><ele></ele><time>2014-5-9T15:55:33Z</time></trkpt>
<trkpt lat="47.49793053" lon="-2.76364088"><ele></ele><time>2014-5-9T15:55:36Z</time></trkpt>
<trkpt lat="47.49786615" lon="-2.76346922"><ele></ele><time>2014-5-9T15:55:39Z</time></trkpt>
<trkpt lat="47.49786615" lon="-2.76344776"><ele></ele><time>2014-5-9T15:55:42Z</time></trkpt>
<trkpt lat="47.49790907" lon="-2.76323318"><ele></ele><time>2014-5-9T15:55:45Z</time></trkpt>
<trkpt lat="47.49801636" lon="-2.76269674"><ele></ele><time>2014-5-9T15:55:48Z</time></trkpt>
<trkpt lat="47.49795198" lon="-2.76239634"><ele></ele><time>2014-5-9T15:55:51Z</time></trkpt>
<trkpt lat="47.49788761" lon="-2.76226759"><ele></ele><time>2014-5-9T15:55:54Z</time></trkpt>
<trkpt lat="47.49784470" lon="-2.76185989"><ele></ele><time>2014-5-9T15:55:57Z</time></trkpt>
<trkpt lat="47.49782324" lon="-2.76158094"><ele></ele><time>2014-5-9T15:56:0Z</time></trkpt>
<trkpt lat="47.49780178" lon="-2.76123762"><ele></ele><time>2014-5-9T15:56:3Z</time></trkpt>
<trkpt lat="47.49782324" lon="-2.76089430"><ele></ele><time>2014-5-9T15:56:6Z</time></trkpt>
<trkpt lat="47.49780178" lon="-2.76057243"><ele></ele><time>2014-5-9T15:56:9Z</time></trkpt>
<trkpt lat="47.49778032" lon="-2.76037931"><ele></ele><time>2014-5-9T15:56:12Z</time></trkpt>
<trkpt lat="47.49773741" lon="-2.76020765"><ele></ele><time>2014-5-9T15:56:15Z</time></trkpt>
<trkpt lat="47.49773741" lon="-2.76020765"><ele></ele><time>2014-5-9T15:56:18Z</time></trkpt>
<trkpt lat="47.49775887" lon="-2.76014328"><ele></ele><time>2014-5-9T15:56:21Z</time></trkpt>
<trkpt lat="47.49773741" lon="-2.75979996"><ele></ele><time>2014-5-9T15:56:24Z</time></trkpt>
<trkpt lat="47.49765158" lon="-2.75919914"><ele></ele><time>2014-5-9T15:56:27Z</time></trkpt>
<trkpt lat="47.49747992" lon="-2.75879145"><ele></ele><time>2014-5-9T15:56:30Z</time></trkpt>
<trkpt lat="47.49756575" lon="-2.75859833"><ele></ele><time>2014-5-9T15:56:33Z</time></trkpt>
<trkpt lat="47.49754429" lon="-2.75827646"><ele></ele><time>2014-5-9T15:56:36Z</time></trkpt>
<trkpt lat="47.49750137" lon="-2.75804043"><ele></ele><time>2014-5-9T15:56:39Z</time></trkpt>
<trkpt lat="47.49750137" lon="-2.75763273"><ele></ele><time>2014-5-9T15:56:42Z</time></trkpt>
<trkpt lat="47.49741554" lon="-2.75728941"><ele></ele><time>2014-5-9T15:56:45Z</time></trkpt>
<trkpt lat="47.49745846" lon="-2.75703192"><ele></ele><time>2014-5-9T15:56:48Z</time></trkpt>
<trkpt lat="47.49754429" lon="-2.75679588"><ele></ele><time>2014-5-9T15:56:51Z</time></trkpt>
<trkpt lat="47.49752283" lon="-2.75668859"><ele></ele><time>2014-5-9T15:56:54Z</time></trkpt>
<trkpt lat="47.49758720" lon="-2.75645256"><ele></ele><time>2014-5-9T15:56:57Z</time></trkpt>
<trkpt lat="47.49765158" lon="-2.75617361"><ele></ele><time>2014-5-9T15:57:0Z</time></trkpt>
<trkpt lat="47.49775887" lon="-2.75598049"><ele></ele><time>2014-5-9T15:57:3Z</time></trkpt>
<trkpt lat="47.49782324" lon="-2.75580883"><ele></ele><time>2014-5-9T15:57:6Z</time></trkpt>
<trkpt lat="47.49797344" lon="-2.75544405"><ele></ele><time>2014-5-9T15:57:9Z</time></trkpt>
<trkpt lat="47.49801636" lon="-2.75533676"><ele></ele><time>2014-5-9T15:57:12Z</time></trkpt>
<trkpt lat="47.49816656" lon="-2.75510073"><ele></ele><time>2014-5-9T15:57:15Z</time></trkpt>
<trkpt lat="47.49835968" lon="-2.75484324"><ele></ele><time>2014-5-9T15:57:18Z</time></trkpt>
<trkpt lat="47.49848843" lon="-2.75452137"><ele></ele><time>2014-5-9T15:57:21Z</time></trkpt>
<trkpt lat="47.49857426" lon="-2.75419950"><ele></ele><time>2014-5-9T15:57:24Z</time></trkpt>
<trkpt lat="47.49857426" lon="-2.75396347"><ele></ele><time>2014-5-9T15:57:27Z</time></trkpt>
<trkpt lat="47.49857426" lon="-2.75385618"><ele></ele><time>2014-5-9T15:57:30Z</time></trkpt>
<trkpt lat="47.49859571" lon="-2.75381327"><ele></ele><time>2014-5-9T15:57:33Z</time></trkpt>
<trkpt lat="47.49861717" lon="-2.75364161"><ele></ele><time>2014-5-9T15:57:36Z</time></trkpt>
<trkpt lat="47.49868155" lon="-2.75346994"><ele></ele><time>2014-5-9T15:57:39Z</time></trkpt>
<trkpt lat="47.49870300" lon="-2.75331974"><ele></ele><time>2014-5-9T15:57:42Z</time></trkpt>
<trkpt lat="47.49881029" lon="-2.75284767"><ele></ele><time>2014-5-9T15:57:45Z</time></trkpt>
<trkpt lat="47.49874592" lon="-2.75231123"><ele></ele><time>2014-5-9T15:57:48Z</time></trkpt>
<trkpt lat="47.49881029" lon="-2.75171041"><ele></ele><time>2014-5-9T15:57:51Z</time></trkpt>
<trkpt lat="47.49881029" lon="-2.75132418"><ele></ele><time>2014-5-9T15:57:54Z</time></trkpt>
<trkpt lat="47.49889612" lon="-2.75087357"><ele></ele><time>2014-5-9T15:57:57Z</time></trkpt>
<trkpt lat="47.49891758" lon="-2.75055170"><ele></ele><time>2014-5-9T15:58:0Z</time></trkpt>
<trkpt lat="47.49900341" lon="-2.74973631"><ele></ele><time>2014-5-9T15:58:3Z</time></trkpt>
<trkpt lat="47.49902487" lon="-2.74960756"><ele></ele><time>2014-5-9T15:58:6Z</time></trkpt>
<trkpt lat="47.49938965" lon="-2.74907112"><ele></ele><time>2014-5-9T15:58:9Z</time></trkpt>
<trkpt lat="47.49951839" lon="-2.74887800"><ele></ele><time>2014-5-9T15:58:12Z</time></trkpt>
<trkpt lat="47.49941111" lon="-2.74786949"><ele></ele><time>2014-5-9T15:58:15Z</time></trkpt>
<trkpt lat="47.49938965" lon="-2.74769783"><ele></ele><time>2014-5-9T15:58:18Z</time></trkpt>
<trkpt lat="47.49936819" lon="-2.74767637"><ele></ele><time>2014-5-9T15:58:21Z</time></trkpt>
<trkpt lat="47.49938965" lon="-2.74769783"><ele></ele><time>2014-5-9T15:58:24Z</time></trkpt>
<trkpt lat="47.49938965" lon="-2.74771929"><ele></ele><time>2014-5-9T15:58:27Z</time></trkpt>
<trkpt lat="47.49938965" lon="-2.74771929"><ele></ele><time>2014-5-9T15:58:30Z</time></trkpt>
<trkpt lat="47.49936819" lon="-2.74771929"><ele></ele><time>2014-5-9T15:58:33Z</time></trkpt>
<trkpt lat="47.49936819" lon="-2.74771929"><ele></ele><time>2014-5-9T15:58:36Z</time></trkpt>
<trkpt lat="47.49938965" lon="-2.74784803"><ele></ele><time>2014-5-9T15:58:39Z</time></trkpt>
<trkpt lat="47.49930382" lon="-2.74821281"><ele></ele><time>2014-5-9T15:58:42Z</time></trkpt>
<trkpt lat="47.49926090" lon="-2.74853468"><ele></ele><time>2014-5-9T15:58:45Z</time></trkpt>
<trkpt lat="47.49913216" lon="-2.74889946"><ele></ele><time>2014-5-9T15:58:48Z</time></trkpt>
<trkpt lat="47.49906778" lon="-2.74922132"><ele></ele><time>2014-5-9T15:58:51Z</time></trkpt>
<trkpt lat="47.49898195" lon="-2.74952173"><ele></ele><time>2014-5-9T15:58:54Z</time></trkpt>
<trkpt lat="47.49885321" lon="-2.74988651"><ele></ele><time>2014-5-9T15:58:57Z</time></trkpt>
<trkpt lat="47.49878883" lon="-2.75040150"><ele></ele><time>2014-5-9T15:59:0Z</time></trkpt>
<trkpt lat="47.49883175" lon="-2.75078773"><ele></ele><time>2014-5-9T15:59:3Z</time></trkpt>
<trkpt lat="47.49876738" lon="-2.75113106"><ele></ele><time>2014-5-9T15:59:6Z</time></trkpt>
<trkpt lat="47.49874592" lon="-2.75138855"><ele></ele><time>2014-5-9T15:59:9Z</time></trkpt>
<trkpt lat="47.49874592" lon="-2.75143147"><ele></ele><time>2014-5-9T15:59:12Z</time></trkpt>
<trkpt lat="47.49872446" lon="-2.75164604"><ele></ele><time>2014-5-9T15:59:15Z</time></trkpt>
<trkpt lat="47.49868155" lon="-2.75192499"><ele></ele><time>2014-5-9T15:59:18Z</time></trkpt>
<trkpt lat="47.49863863" lon="-2.75228977"><ele></ele><time>2014-5-9T15:59:21Z</time></trkpt>
<trkpt lat="47.49861717" lon="-2.75265455"><ele></ele><time>2014-5-9T15:59:24Z</time></trkpt>
<trkpt lat="47.49863863" lon="-2.75293350"><ele></ele><time>2014-5-9T15:59:27Z</time></trkpt>
<trkpt lat="47.49872446" lon="-2.75316954"><ele></ele><time>2014-5-9T15:59:30Z</time></trkpt>
<trkpt lat="47.49861717" lon="-2.75349140"><ele></ele><time>2014-5-9T15:59:33Z</time></trkpt>
<trkpt lat="47.49853134" lon="-2.75379181"><ele></ele><time>2014-5-9T15:59:36Z</time></trkpt>
<trkpt lat="47.49848843" lon="-2.75411367"><ele></ele><time>2014-5-9T15:59:39Z</time></trkpt>
<trkpt lat="47.49844551" lon="-2.75449991"><ele></ele><time>2014-5-9T15:59:42Z</time></trkpt>
<trkpt lat="47.49838114" lon="-2.75467157"><ele></ele><time>2014-5-9T15:59:45Z</time></trkpt>
<trkpt lat="47.49829531" lon="-2.75495052"><ele></ele><time>2014-5-9T15:59:48Z</time></trkpt>
<trkpt lat="47.49829531" lon="-2.75492907"><ele></ele><time>2014-5-9T15:59:51Z</time></trkpt>
<trkpt lat="47.49820948" lon="-2.75514364"><ele></ele><time>2014-5-9T15:59:54Z</time></trkpt>
<trkpt lat="47.49805927" lon="-2.75544405"><ele></ele><time>2014-5-9T15:59:57Z</time></trkpt>
<trkpt lat="47.49795198" lon="-2.75565863"><ele></ele><time>2014-5-9T16:0:0Z</time></trkpt>
<trkpt lat="47.49784470" lon="-2.75589466"><ele></ele><time>2014-5-9T16:0:3Z</time></trkpt>
<trkpt lat="47.49771595" lon="-2.75610924"><ele></ele><time>2014-5-9T16:0:6Z</time></trkpt>
<trkpt lat="47.49760866" lon="-2.75636673"><ele></ele><time>2014-5-9T16:0:9Z</time></trkpt>
<trkpt lat="47.49756575" lon="-2.75660276"><ele></ele><time>2014-5-9T16:0:12Z</time></trkpt>
<trkpt lat="47.49752283" lon="-2.75677443"><ele></ele><time>2014-5-9T16:0:15Z</time></trkpt>
<trkpt lat="47.49750137" lon="-2.75683880"><ele></ele><time>2014-5-9T16:0:18Z</time></trkpt>
<trkpt lat="47.49747992" lon="-2.75690317"><ele></ele><time>2014-5-9T16:0:21Z</time></trkpt>
<trkpt lat="47.49743700" lon="-2.75711775"><ele></ele><time>2014-5-9T16:0:24Z</time></trkpt>
<trkpt lat="47.49741554" lon="-2.75728941"><ele></ele><time>2014-5-9T16:0:27Z</time></trkpt>
<trkpt lat="47.49741554" lon="-2.75743961"><ele></ele><time>2014-5-9T16:0:30Z</time></trkpt>
<trkpt lat="47.49747992" lon="-2.75765419"><ele></ele><time>2014-5-9T16:0:33Z</time></trkpt>
<trkpt lat="47.49747992" lon="-2.75806189"><ele></ele><time>2014-5-9T16:0:36Z</time></trkpt>
<trkpt lat="47.49752283" lon="-2.75844812"><ele></ele><time>2014-5-9T16:0:39Z</time></trkpt>
<trkpt lat="47.49758720" lon="-2.75879145"><ele></ele><time>2014-5-9T16:0:42Z</time></trkpt>
<trkpt lat="47.49760866" lon="-2.75907040"><ele></ele><time>2014-5-9T16:0:45Z</time></trkpt>
<trkpt lat="47.49765158" lon="-2.75945663"><ele></ele><time>2014-5-9T16:0:48Z</time></trkpt>
<trkpt lat="47.49780178" lon="-2.75982141"><ele></ele><time>2014-5-9T16:0:51Z</time></trkpt>
<trkpt lat="47.49782324" lon="-2.75986433"><ele></ele><time>2014-5-9T16:0:54Z</time></trkpt>
<trkpt lat="47.49784470" lon="-2.75988579"><ele></ele><time>2014-5-9T16:0:57Z</time></trkpt>
<trkpt lat="47.49780178" lon="-2.76014328"><ele></ele><time>2014-5-9T16:1:0Z</time></trkpt>
<trkpt lat="47.49780178" lon="-2.76052952"><ele></ele><time>2014-5-9T16:1:3Z</time></trkpt>
<trkpt lat="47.49782324" lon="-2.76055098"><ele></ele><time>2014-5-9T16:1:6Z</time></trkpt>
<trkpt lat="47.49782324" lon="-2.76057243"><ele></ele><time>2014-5-9T16:1:9Z</time></trkpt>
<trkpt lat="47.49778032" lon="-2.76089430"><ele></ele><time>2014-5-9T16:1:12Z</time></trkpt>
<trkpt lat="47.49780178" lon="-2.76119471"><ele></ele><time>2014-5-9T16:1:15Z</time></trkpt>
<trkpt lat="47.49780178" lon="-2.76168823"><ele></ele><time>2014-5-9T16:1:18Z</time></trkpt>
<trkpt lat="47.49778032" lon="-2.76209593"><ele></ele><time>2014-5-9T16:1:21Z</time></trkpt>
<trkpt lat="47.49778032" lon="-2.76246071"><ele></ele><time>2014-5-9T16:1:24Z</time></trkpt>
<trkpt lat="47.49782324" lon="-2.76278257"><ele></ele><time>2014-5-9T16:1:27Z</time></trkpt>
<trkpt lat="47.49786615" lon="-2.76308298"><ele></ele><time>2014-5-9T16:1:30Z</time></trkpt>
<trkpt lat="47.49788761" lon="-2.76349068"><ele></ele><time>2014-5-9T16:1:33Z</time></trkpt>
<trkpt lat="47.49790907" lon="-2.76376963"><ele></ele><time>2014-5-9T16:1:36Z</time></trkpt>
<trkpt lat="47.49790907" lon="-2.76409149"><ele></ele><time>2014-5-9T16:1:39Z</time></trkpt>
<trkpt lat="47.49788761" lon="-2.76452065"><ele></ele><time>2014-5-9T16:1:42Z</time></trkpt>
<trkpt lat="47.49786615" lon="-2.76494980"><ele></ele><time>2014-5-9T16:1:45Z</time></trkpt>
<trkpt lat="47.49788761" lon="-2.76529312"><ele></ele><time>2014-5-9T16:1:48Z</time></trkpt>
<trkpt lat="47.49782324" lon="-2.76565790"><ele></ele><time>2014-5-9T16:1:51Z</time></trkpt>
<trkpt lat="47.49782324" lon="-2.76606560"><ele></ele><time>2014-5-9T16:1:54Z</time></trkpt>
<trkpt lat="47.49784470" lon="-2.76649475"><ele></ele><time>2014-5-9T16:1:57Z</time></trkpt>
<trkpt lat="47.49784470" lon="-2.76688099"><ele></ele><time>2014-5-9T16:2:0Z</time></trkpt>
<trkpt lat="47.49782324" lon="-2.76731014"><ele></ele><time>2014-5-9T16:2:3Z</time></trkpt>
<trkpt lat="47.49782324" lon="-2.76763201"><ele></ele><time>2014-5-9T16:2:6Z</time></trkpt>
<trkpt lat="47.49780178" lon="-2.76803970"><ele></ele><time>2014-5-9T16:2:9Z</time></trkpt>
<trkpt lat="47.49782324" lon="-2.76808262"><ele></ele><time>2014-5-9T16:2:12Z</time></trkpt>
<trkpt lat="47.49786615" lon="-2.76808262"><ele></ele><time>2014-5-9T16:2:15Z</time></trkpt>
<trkpt lat="47.49784470" lon="-2.76808262"><ele></ele><time>2014-5-9T16:2:18Z</time></trkpt>
<trkpt lat="47.49784470" lon="-2.76808262"><ele></ele><time>2014-5-9T16:2:21Z</time></trkpt>
<trkpt lat="47.49782324" lon="-2.76806116"><ele></ele><time>2014-5-9T16:2:24Z</time></trkpt>
<trkpt lat="47.49784470" lon="-2.76803970"><ele></ele><time>2014-5-9T16:2:27Z</time></trkpt>
<trkpt lat="47.49784470" lon="-2.76803970"><ele></ele><time>2014-5-9T16:2:30Z</time></trkpt>
<trkpt lat="47.49790907" lon="-2.76806116"><ele></ele><time>2014-5-9T16:2:33Z</time></trkpt>
<trkpt lat="47.49790907" lon="-2.76806116"><ele></ele><time>2014-5-9T16:2:36Z</time></trkpt>
<trkpt lat="47.49793053" lon="-2.76776075"><ele></ele><time>2014-5-9T16:2:39Z</time></trkpt>
<trkpt lat="47.49810219" lon="-2.76756763"><ele></ele><time>2014-5-9T16:2:42Z</time></trkpt>
<trkpt lat="47.49870300" lon="-2.76705265"><ele></ele><time>2014-5-9T16:2:45Z</time></trkpt>
<trkpt lat="47.49908924" lon="-2.76673079"><ele></ele><time>2014-5-9T16:2:48Z</time></trkpt>
<trkpt lat="47.49941111" lon="-2.76675224"><ele></ele><time>2014-5-9T16:2:51Z</time></trkpt>
<trkpt lat="47.50020504" lon="-2.76735306"><ele></ele><time>2014-5-9T16:2:54Z</time></trkpt>
<trkpt lat="47.50072002" lon="-2.76780367"><ele></ele><time>2014-5-9T16:2:57Z</time></trkpt>
<trkpt lat="47.50121355" lon="-2.76887655"><ele></ele><time>2014-5-9T16:3:0Z</time></trkpt>
<trkpt lat="47.50142813" lon="-2.76973486"><ele></ele><time>2014-5-9T16:3:3Z</time></trkpt>
<trkpt lat="47.50224352" lon="-2.77089357"><ele></ele><time>2014-5-9T16:3:6Z</time></trkpt>
<trkpt lat="47.50235081" lon="-2.77136564"><ele></ele><time>2014-5-9T16:3:9Z</time></trkpt>
<trkpt lat="47.50256538" lon="-2.77158022"><ele></ele><time>2014-5-9T16:3:12Z</time></trkpt>
<trkpt lat="47.50271559" lon="-2.77162313"><ele></ele><time>2014-5-9T16:3:15Z</time></trkpt>
<trkpt lat="47.50335932" lon="-2.77207375"><ele></ele><time>2014-5-9T16:3:18Z</time></trkpt>
<trkpt lat="47.50443220" lon="-2.77286768"><ele></ele><time>2014-5-9T16:3:21Z</time></trkpt>
<trkpt lat="47.50520468" lon="-2.77222395"><ele></ele><time>2014-5-9T16:3:24Z</time></trkpt>
<trkpt lat="47.50559092" lon="-2.77205229"><ele></ele><time>2014-5-9T16:3:27Z</time></trkpt>
<trkpt lat="47.50689983" lon="-2.77183771"><ele></ele><time>2014-5-9T16:3:30Z</time></trkpt>
<trkpt lat="47.50833750" lon="-2.77177334"><ele></ele><time>2014-5-9T16:3:33Z</time></trkpt>
<trkpt lat="47.50874519" lon="-2.77166605"><ele></ele><time>2014-5-9T16:3:36Z</time></trkpt>
<trkpt lat="47.50906706" lon="-2.77145147"><ele></ele><time>2014-5-9T16:3:39Z</time></trkpt>
<trkpt lat="47.50992537" lon="-2.77065754"><ele></ele><time>2014-5-9T16:3:42Z</time></trkpt>
<trkpt lat="47.51078367" lon="-2.76984215"><ele></ele><time>2014-5-9T16:3:45Z</time></trkpt>
<trkpt lat="47.51134157" lon="-2.76932716"><ele></ele><time>2014-5-9T16:3:48Z</time></trkpt>
<trkpt lat="47.51155615" lon="-2.76909113"><ele></ele><time>2014-5-9T16:3:51Z</time></trkpt>
<trkpt lat="47.51168489" lon="-2.76896238"><ele></ele><time>2014-5-9T16:3:54Z</time></trkpt>
<trkpt lat="47.51204967" lon="-2.76827574"><ele></ele><time>2014-5-9T16:3:57Z</time></trkpt>
<trkpt lat="47.51258612" lon="-2.76703119"><ele></ele><time>2014-5-9T16:4:0Z</time></trkpt>
<trkpt lat="47.51271486" lon="-2.76685953"><ele></ele><time>2014-5-9T16:4:3Z</time></trkpt>
<trkpt lat="47.51303673" lon="-2.76666641"><ele></ele><time>2014-5-9T16:4:6Z</time></trkpt>
<trkpt lat="47.51413107" lon="-2.76636600"><ele></ele><time>2014-5-9T16:4:9Z</time></trkpt>
<trkpt lat="47.51496792" lon="-2.76638746"><ele></ele><time>2014-5-9T16:4:12Z</time></trkpt>
<trkpt lat="47.51604080" lon="-2.76630163"><ele></ele><time>2014-5-9T16:4:15Z</time></trkpt>
<trkpt lat="47.51655579" lon="-2.76675224"><ele></ele><time>2014-5-9T16:4:18Z</time></trkpt>
<trkpt lat="47.51704931" lon="-2.76724577"><ele></ele><time>2014-5-9T16:4:21Z</time></trkpt>
<trkpt lat="47.51786470" lon="-2.76793242"><ele></ele><time>2014-5-9T16:4:24Z</time></trkpt>
<trkpt lat="47.51846552" lon="-2.76840448"><ele></ele><time>2014-5-9T16:4:27Z</time></trkpt>
<trkpt lat="47.51902342" lon="-2.76849031"><ele></ele><time>2014-5-9T16:4:30Z</time></trkpt>
<trkpt lat="47.52037525" lon="-2.76788950"><ele></ele><time>2014-5-9T16:4:33Z</time></trkpt>
<trkpt lat="47.52149105" lon="-2.76773930"><ele></ele><time>2014-5-9T16:4:36Z</time></trkpt>
<trkpt lat="47.52174854" lon="-2.76765347"><ele></ele><time>2014-5-9T16:4:39Z</time></trkpt>
<trkpt lat="47.52181292" lon="-2.76761055"><ele></ele><time>2014-5-9T16:4:42Z</time></trkpt>
<trkpt lat="47.52183437" lon="-2.76756763"><ele></ele><time>2014-5-9T16:4:45Z</time></trkpt>
<trkpt lat="47.52189875" lon="-2.76746035"><ele></ele><time>2014-5-9T16:4:48Z</time></trkpt>
<trkpt lat="47.52200603" lon="-2.76728868"><ele></ele><time>2014-5-9T16:4:51Z</time></trkpt>
<trkpt lat="47.52237082" lon="-2.76739597"><ele></ele><time>2014-5-9T16:4:54Z</time></trkpt>
<trkpt lat="47.52275705" lon="-2.76761055"><ele></ele><time>2014-5-9T16:4:57Z</time></trkpt>
<trkpt lat="47.52307892" lon="-2.76763201"><ele></ele><time>2014-5-9T16:5:0Z</time></trkpt>
<trkpt lat="47.52329350" lon="-2.76776075"><ele></ele><time>2014-5-9T16:5:3Z</time></trkpt>
<trkpt lat="47.52387285" lon="-2.76857615"><ele></ele><time>2014-5-9T16:5:6Z</time></trkpt>
<trkpt lat="47.52406597" lon="-2.76885509"><ele></ele><time>2014-5-9T16:5:9Z</time></trkpt>
<trkpt lat="47.52417326" lon="-2.76889801"><ele></ele><time>2014-5-9T16:5:12Z</time></trkpt>
<trkpt lat="47.52428055" lon="-2.76898384"><ele></ele><time>2014-5-9T16:5:15Z</time></trkpt>
<trkpt lat="47.52440929" lon="-2.76928425"><ele></ele><time>2014-5-9T16:5:18Z</time></trkpt>
<trkpt lat="47.52468824" lon="-2.76967049"><ele></ele><time>2014-5-9T16:5:21Z</time></trkpt>
<trkpt lat="47.52507448" lon="-2.76982069"><ele></ele><time>2014-5-9T16:5:24Z</time></trkpt>
<trkpt lat="47.52550364" lon="-2.76973486"><ele></ele><time>2014-5-9T16:5:27Z</time></trkpt>
<trkpt lat="47.52558947" lon="-2.76971340"><ele></ele><time>2014-5-9T16:5:30Z</time></trkpt>
<trkpt lat="47.52561092" lon="-2.76971340"><ele></ele><time>2014-5-9T16:5:33Z</time></trkpt>
<trkpt lat="47.52571821" lon="-2.76969194"><ele></ele><time>2014-5-9T16:5:36Z</time></trkpt>
<trkpt lat="47.52597570" lon="-2.76979923"><ele></ele><time>2014-5-9T16:5:39Z</time></trkpt>
<trkpt lat="47.52640486" lon="-2.76994944"><ele></ele><time>2014-5-9T16:5:42Z</time></trkpt>
<trkpt lat="47.52642632" lon="-2.76997089"><ele></ele><time>2014-5-9T16:5:45Z</time></trkpt>
<trkpt lat="47.52646923" lon="-2.76999235"><ele></ele><time>2014-5-9T16:5:48Z</time></trkpt>
<trkpt lat="47.52659798" lon="-2.77001381"><ele></ele><time>2014-5-9T16:5:51Z</time></trkpt>
<trkpt lat="47.52666235" lon="-2.77003527"><ele></ele><time>2014-5-9T16:5:54Z</time></trkpt>
<trkpt lat="47.52679110" lon="-2.76977777"><ele></ele><time>2014-5-9T16:5:57Z</time></trkpt>
<trkpt lat="47.52687693" lon="-2.76952028"><ele></ele><time>2014-5-9T16:6:0Z</time></trkpt>
<trkpt lat="47.52722025" lon="-2.76911259"><ele></ele><time>2014-5-9T16:6:3Z</time></trkpt>
<trkpt lat="47.52730608" lon="-2.76909113"><ele></ele><time>2014-5-9T16:6:6Z</time></trkpt>
<trkpt lat="47.52732754" lon="-2.76909113"><ele></ele><time>2014-5-9T16:6:9Z</time></trkpt>
<trkpt lat="47.52749920" lon="-2.76921988"><ele></ele><time>2014-5-9T16:6:12Z</time></trkpt>
<trkpt lat="47.52752066" lon="-2.76928425"><ele></ele><time>2014-5-9T16:6:15Z</time></trkpt>
<trkpt lat="47.52749920" lon="-2.76930571"><ele></ele><time>2014-5-9T16:6:18Z</time></trkpt>
<trkpt lat="47.52749920" lon="-2.76926279"><ele></ele><time>2014-5-9T16:6:21Z</time></trkpt>
<trkpt lat="47.52749920" lon="-2.76939154"><ele></ele><time>2014-5-9T16:6:24Z</time></trkpt>
<trkpt lat="47.52752066" lon="-2.76943445"><ele></ele><time>2014-5-9T16:6:27Z</time></trkpt>
<trkpt lat="47.52769232" lon="-2.76866198"><ele></ele><time>2014-5-9T16:6:30Z</time></trkpt>
<trkpt lat="47.52704859" lon="-2.76973486"><ele></ele><time>2014-5-9T16:6:33Z</time></trkpt>
<trkpt lat="47.52704859" lon="-2.76986361"><ele></ele><time>2014-5-9T16:6:36Z</time></trkpt>
<trkpt lat="47.52711296" lon="-2.77104378"><ele></ele><time>2014-5-9T16:6:39Z</time></trkpt>
<trkpt lat="47.52711296" lon="-2.77125835"><ele></ele><time>2014-5-9T16:6:42Z</time></trkpt>
<trkpt lat="47.52691984" lon="-2.77130127"><ele></ele><time>2014-5-9T16:6:45Z</time></trkpt>
<trkpt lat="47.52649069" lon="-2.77115107"><ele></ele><time>2014-5-9T16:6:48Z</time></trkpt>
<trkpt lat="47.52636194" lon="-2.77158022"><ele></ele><time>2014-5-9T16:6:51Z</time></trkpt>
<trkpt lat="47.52616882" lon="-2.77248144"><ele></ele><time>2014-5-9T16:6:54Z</time></trkpt>
<trkpt lat="47.52606153" lon="-2.77314663"><ele></ele><time>2014-5-9T16:6:57Z</time></trkpt>
<trkpt lat="47.52593279" lon="-2.77400494"><ele></ele><time>2014-5-9T16:7:0Z</time></trkpt>
<trkpt lat="47.52584696" lon="-2.77462721"><ele></ele><time>2014-5-9T16:7:3Z</time></trkpt>
<trkpt lat="47.52569675" lon="-2.77554989"><ele></ele><time>2014-5-9T16:7:6Z</time></trkpt>
<trkpt lat="47.52558947" lon="-2.77632236"><ele></ele><time>2014-5-9T16:7:9Z</time></trkpt>
<trkpt lat="47.52548218" lon="-2.77703047"><ele></ele><time>2014-5-9T16:7:12Z</time></trkpt>
<trkpt lat="47.52541780" lon="-2.77793169"><ele></ele><time>2014-5-9T16:7:15Z</time></trkpt>
<trkpt lat="47.52546072" lon="-2.77896166"><ele></ele><time>2014-5-9T16:7:18Z</time></trkpt>
<trkpt lat="47.52550364" lon="-2.77984142"><ele></ele><time>2014-5-9T16:7:21Z</time></trkpt>
<trkpt lat="47.52554655" lon="-2.78104305"><ele></ele><time>2014-5-9T16:7:24Z</time></trkpt>
<trkpt lat="47.52561092" lon="-2.78258801"><ele></ele><time>2014-5-9T16:7:27Z</time></trkpt>
<trkpt lat="47.52565384" lon="-2.78295279"><ele></ele><time>2014-5-9T16:7:30Z</time></trkpt>
<trkpt lat="47.52569675" lon="-2.78321028"><ele></ele><time>2014-5-9T16:7:33Z</time></trkpt>
<trkpt lat="47.52569675" lon="-2.78327465"><ele></ele><time>2014-5-9T16:7:36Z</time></trkpt>
<trkpt lat="47.52552509" lon="-2.78344631"><ele></ele><time>2014-5-9T16:7:39Z</time></trkpt>
<trkpt lat="47.52518177" lon="-2.78396130"><ele></ele><time>2014-5-9T16:7:42Z</time></trkpt>
<trkpt lat="47.52477407" lon="-2.78460503"><ele></ele><time>2014-5-9T16:7:45Z</time></trkpt>
<trkpt lat="47.52451658" lon="-2.78557062"><ele></ele><time>2014-5-9T16:7:48Z</time></trkpt>
<trkpt lat="47.52447367" lon="-2.78582811"><ele></ele><time>2014-5-9T16:7:51Z</time></trkpt>
<trkpt lat="47.52436638" lon="-2.78720140"><ele></ele><time>2014-5-9T16:7:54Z</time></trkpt>
<trkpt lat="47.52430201" lon="-2.78748035"><ele></ele><time>2014-5-9T16:7:57Z</time></trkpt>
<trkpt lat="47.52410889" lon="-2.78829575"><ele></ele><time>2014-5-9T16:8:0Z</time></trkpt>
<trkpt lat="47.52408743" lon="-2.78838158"><ele></ele><time>2014-5-9T16:8:3Z</time></trkpt>
<trkpt lat="47.52406597" lon="-2.78846741"><ele></ele><time>2014-5-9T16:8:6Z</time></trkpt>
<trkpt lat="47.52408743" lon="-2.78891802"><ele></ele><time>2014-5-9T16:8:9Z</time></trkpt>
<trkpt lat="47.52378702" lon="-2.78939009"><ele></ele><time>2014-5-9T16:8:12Z</time></trkpt>
<trkpt lat="47.52376556" lon="-2.78943300"><ele></ele><time>2014-5-9T16:8:15Z</time></trkpt>
<trkpt lat="47.52365828" lon="-2.78966904"><ele></ele><time>2014-5-9T16:8:18Z</time></trkpt>
<trkpt lat="47.52361536" lon="-2.78994799"><ele></ele><time>2014-5-9T16:8:21Z</time></trkpt>
<trkpt lat="47.52367973" lon="-2.79069901"><ele></ele><time>2014-5-9T16:8:24Z</time></trkpt>
<trkpt lat="47.52387285" lon="-2.79175043"><ele></ele><time>2014-5-9T16:8:27Z</time></trkpt>
<trkpt lat="47.52393723" lon="-2.79241562"><ele></ele><time>2014-5-9T16:8:30Z</time></trkpt>
<trkpt lat="47.52410889" lon="-2.79320955"><ele></ele><time>2014-5-9T16:8:33Z</time></trkpt>
<trkpt lat="47.52417326" lon="-2.79381037"><ele></ele><time>2014-5-9T16:8:36Z</time></trkpt>
<trkpt lat="47.52419472" lon="-2.79398203"><ele></ele><time>2014-5-9T16:8:39Z</time></trkpt>
<trkpt lat="47.52406597" lon="-2.79406786"><ele></ele><time>2014-5-9T16:8:42Z</time></trkpt>
<trkpt lat="47.52357244" lon="-2.79441118"><ele></ele><time>2014-5-9T16:8:45Z</time></trkpt>
<trkpt lat="47.52312183" lon="-2.79501200"><ele></ele><time>2014-5-9T16:8:48Z</time></trkpt>
<trkpt lat="47.52271414" lon="-2.79548407"><ele></ele><time>2014-5-9T16:8:51Z</time></trkpt>
<trkpt lat="47.52224207" lon="-2.79599905"><ele></ele><time>2014-5-9T16:8:54Z</time></trkpt>
<trkpt lat="47.52157688" lon="-2.79659986"><ele></ele><time>2014-5-9T16:8:57Z</time></trkpt>
<trkpt lat="47.52099752" lon="-2.79698610"><ele></ele><time>2014-5-9T16:9:0Z</time></trkpt>
<trkpt lat="47.52052546" lon="-2.79730797"><ele></ele><time>2014-5-9T16:9:3Z</time></trkpt>
<trkpt lat="47.52007484" lon="-2.79760838"><ele></ele><time>2014-5-9T16:9:6Z</time></trkpt>
<trkpt lat="47.52003193" lon="-2.79762983"><ele></ele><time>2014-5-9T16:9:9Z</time></trkpt>
<trkpt lat="47.51975298" lon="-2.79790878"><ele></ele><time>2014-5-9T16:9:12Z</time></trkpt>
<trkpt lat="47.51966715" lon="-2.79827356"><ele></ele><time>2014-5-9T16:9:15Z</time></trkpt>
<trkpt lat="47.51966715" lon="-2.79846668"><ele></ele><time>2014-5-9T16:9:18Z</time></trkpt>
<trkpt lat="47.51971006" lon="-2.79893875"><ele></ele><time>2014-5-9T16:9:21Z</time></trkpt>
<trkpt lat="47.51958132" lon="-2.79908895"><ele></ele><time>2014-5-9T16:9:24Z</time></trkpt>
<trkpt lat="47.51885176" lon="-2.79930353"><ele></ele><time>2014-5-9T16:9:27Z</time></trkpt>
<trkpt lat="47.51822948" lon="-2.79983997"><ele></ele><time>2014-5-9T16:9:30Z</time></trkpt>
<trkpt lat="47.51775742" lon="-2.79986143"><ele></ele><time>2014-5-9T16:9:33Z</time></trkpt>
<trkpt lat="47.51704931" lon="-2.79977560"><ele></ele><time>2014-5-9T16:9:36Z</time></trkpt>
<trkpt lat="47.51644850" lon="-2.80020475"><ele></ele><time>2014-5-9T16:9:39Z</time></trkpt>
<trkpt lat="47.51629829" lon="-2.80033350"><ele></ele><time>2014-5-9T16:9:42Z</time></trkpt>
<trkpt lat="47.51586914" lon="-2.80039787"><ele></ele><time>2014-5-9T16:9:45Z</time></trkpt>
<trkpt lat="47.51531124" lon="-2.80005455"><ele></ele><time>2014-5-9T16:9:48Z</time></trkpt>
<trkpt lat="47.51473188" lon="-2.79962540"><ele></ele><time>2014-5-9T16:9:51Z</time></trkpt>
<trkpt lat="47.51404524" lon="-2.79938936"><ele></ele><time>2014-5-9T16:9:54Z</time></trkpt>
<trkpt lat="47.51365900" lon="-2.79930353"><ele></ele><time>2014-5-9T16:9:57Z</time></trkpt>
<trkpt lat="47.51342297" lon="-2.79917479"><ele></ele><time>2014-5-9T16:10:0Z</time></trkpt>
<trkpt lat="47.51275778" lon="-2.79893875"><ele></ele><time>2014-5-9T16:10:3Z</time></trkpt>
<trkpt lat="47.51209259" lon="-2.79898167"><ele></ele><time>2014-5-9T16:10:6Z</time></trkpt>
<trkpt lat="47.51136303" lon="-2.79930353"><ele></ele><time>2014-5-9T16:10:9Z</time></trkpt>
<trkpt lat="47.51132011" lon="-2.79934645"><ele></ele><time>2014-5-9T16:10:12Z</time></trkpt>
<trkpt lat="47.51114845" lon="-2.79951811"><ele></ele><time>2014-5-9T16:10:15Z</time></trkpt>
<trkpt lat="47.51065493" lon="-2.79986143"><ele></ele><time>2014-5-9T16:10:18Z</time></trkpt>
<trkpt lat="47.51048326" lon="-2.79968977"><ele></ele><time>2014-5-9T16:10:21Z</time></trkpt>
<trkpt lat="47.51005411" lon="-2.79917479"><ele></ele><time>2014-5-9T16:10:24Z</time></trkpt>
<trkpt lat="47.50949621" lon="-2.79889584"><ele></ele><time>2014-5-9T16:10:27Z</time></trkpt>
<trkpt lat="47.50880957" lon="-2.79840231"><ele></ele><time>2014-5-9T16:10:30Z</time></trkpt>
<trkpt lat="47.50805855" lon="-2.79775858"><ele></ele><time>2014-5-9T16:10:33Z</time></trkpt>
<trkpt lat="47.50724316" lon="-2.79711485"><ele></ele><time>2014-5-9T16:10:36Z</time></trkpt>
<trkpt lat="47.50659943" lon="-2.79664278"><ele></ele><time>2014-5-9T16:10:39Z</time></trkpt>
<trkpt lat="47.50642776" lon="-2.79662132"><ele></ele><time>2014-5-9T16:10:42Z</time></trkpt>
<trkpt lat="47.50604153" lon="-2.79672861"><ele></ele><time>2014-5-9T16:10:45Z</time></trkpt>
<trkpt lat="47.50518322" lon="-2.79664278"><ele></ele><time>2014-5-9T16:10:48Z</time></trkpt>
<trkpt lat="47.50458241" lon="-2.79692173"><ele></ele><time>2014-5-9T16:10:51Z</time></trkpt>
<trkpt lat="47.50453949" lon="-2.79692173"><ele></ele><time>2014-5-9T16:10:54Z</time></trkpt>
<trkpt lat="47.50417471" lon="-2.79696465"><ele></ele><time>2014-5-9T16:10:57Z</time></trkpt>
<trkpt lat="47.50417471" lon="-2.79696465"><ele></ele><time>2014-5-9T16:11:0Z</time></trkpt>
<trkpt lat="47.50417471" lon="-2.79694319"><ele></ele><time>2014-5-9T16:11:3Z</time></trkpt>
<trkpt lat="47.50413179" lon="-2.79713631"><ele></ele><time>2014-5-9T16:11:6Z</time></trkpt>
<trkpt lat="47.50413179" lon="-2.79769421"><ele></ele><time>2014-5-9T16:11:9Z</time></trkpt>
<trkpt lat="47.50419617" lon="-2.79827356"><ele></ele><time>2014-5-9T16:11:12Z</time></trkpt>
<trkpt lat="47.50423908" lon="-2.79872417"><ele></ele><time>2014-5-9T16:11:15Z</time></trkpt>
<trkpt lat="47.50423908" lon="-2.79904604"><ele></ele><time>2014-5-9T16:11:18Z</time></trkpt>
<trkpt lat="47.50423908" lon="-2.79902458"><ele></ele><time>2014-5-9T16:11:21Z</time></trkpt>
<trkpt lat="47.50423908" lon="-2.79902458"><ele></ele><time>2014-5-9T16:11:24Z</time></trkpt>
<trkpt lat="47.50426054" lon="-2.79904604"><ele></ele><time>2014-5-9T16:11:27Z</time></trkpt>
<trkpt lat="47.50423908" lon="-2.79904604"><ele></ele><time>2014-5-9T16:11:30Z</time></trkpt>
<trkpt lat="47.50423908" lon="-2.79904604"><ele></ele><time>2014-5-9T16:11:33Z</time></trkpt>
<trkpt lat="47.50421762" lon="-2.79938936"><ele></ele><time>2014-5-9T16:11:36Z</time></trkpt>
<trkpt lat="47.50417471" lon="-2.80020475"><ele></ele><time>2014-5-9T16:11:39Z</time></trkpt>
<trkpt lat="47.50421762" lon="-2.80129910"><ele></ele><time>2014-5-9T16:11:42Z</time></trkpt>
<trkpt lat="47.50447512" lon="-2.80237198"><ele></ele><time>2014-5-9T16:11:45Z</time></trkpt>
<trkpt lat="47.50453949" lon="-2.80262947"><ele></ele><time>2014-5-9T16:11:48Z</time></trkpt>
<trkpt lat="47.50464678" lon="-2.80361652"><ele></ele><time>2014-5-9T16:11:51Z</time></trkpt>
<trkpt lat="47.50468969" lon="-2.80441046"><ele></ele><time>2014-5-9T16:11:54Z</time></trkpt>
<trkpt lat="47.50468969" lon="-2.80447483"><ele></ele><time>2014-5-9T16:11:57Z</time></trkpt>
<trkpt lat="47.50466824" lon="-2.80477524"><ele></ele><time>2014-5-9T16:12:0Z</time></trkpt>
<trkpt lat="47.50443220" lon="-2.80599833"><ele></ele><time>2014-5-9T16:12:3Z</time></trkpt>
<trkpt lat="47.50441074" lon="-2.80606270"><ele></ele><time>2014-5-9T16:12:6Z</time></trkpt>
<trkpt lat="47.50443220" lon="-2.80640602"><ele></ele><time>2014-5-9T16:12:9Z</time></trkpt>
<trkpt lat="47.50426054" lon="-2.80722141"><ele></ele><time>2014-5-9T16:12:12Z</time></trkpt>
<trkpt lat="47.50411034" lon="-2.80773640"><ele></ele><time>2014-5-9T16:12:15Z</time></trkpt>
<trkpt lat="47.50408888" lon="-2.80818701"><ele></ele><time>2014-5-9T16:12:18Z</time></trkpt>
<trkpt lat="47.50391722" lon="-2.80870199"><ele></ele><time>2014-5-9T16:12:21Z</time></trkpt>
<trkpt lat="47.50357389" lon="-2.80921698"><ele></ele><time>2014-5-9T16:12:24Z</time></trkpt>
<trkpt lat="47.50340223" lon="-2.80975342"><ele></ele><time>2014-5-9T16:12:27Z</time></trkpt>
<trkpt lat="47.50338078" lon="-2.81026840"><ele></ele><time>2014-5-9T16:12:30Z</time></trkpt>
<trkpt lat="47.50331640" lon="-2.81024694"><ele></ele><time>2014-5-9T16:12:33Z</time></trkpt>
<trkpt lat="47.50331640" lon="-2.81018257"><ele></ele><time>2014-5-9T16:12:36Z</time></trkpt>
<trkpt lat="47.50344515" lon="-2.80943155"><ele></ele><time>2014-5-9T16:12:39Z</time></trkpt>
<trkpt lat="47.50359535" lon="-2.80913115"><ele></ele><time>2014-5-9T16:12:42Z</time></trkpt>
<trkpt lat="47.50396013" lon="-2.80855179"><ele></ele><time>2014-5-9T16:12:45Z</time></trkpt>
<trkpt lat="47.50408888" lon="-2.80786514"><ele></ele><time>2014-5-9T16:12:48Z</time></trkpt>
<trkpt lat="47.50413179" lon="-2.80754328"><ele></ele><time>2014-5-9T16:12:51Z</time></trkpt>
<trkpt lat="47.50447512" lon="-2.80644894"><ele></ele><time>2014-5-9T16:12:54Z</time></trkpt>
<trkpt lat="47.50449657" lon="-2.80599833"><ele></ele><time>2014-5-9T16:12:57Z</time></trkpt>
<trkpt lat="47.50468969" lon="-2.80481815"><ele></ele><time>2014-5-9T16:13:0Z</time></trkpt>
<trkpt lat="47.50471115" lon="-2.80443192"><ele></ele><time>2014-5-9T16:13:3Z</time></trkpt>
<trkpt lat="47.50466824" lon="-2.80320883"><ele></ele><time>2014-5-9T16:13:6Z</time></trkpt>
<trkpt lat="47.50462532" lon="-2.80277967"><ele></ele><time>2014-5-9T16:13:9Z</time></trkpt>
<trkpt lat="47.50441074" lon="-2.80207157"><ele></ele><time>2014-5-9T16:13:12Z</time></trkpt>
<trkpt lat="47.50419617" lon="-2.80114889"><ele></ele><time>2014-5-9T16:13:15Z</time></trkpt>
<trkpt lat="47.50417471" lon="-2.80024767"><ele></ele><time>2014-5-9T16:13:18Z</time></trkpt>
<trkpt lat="47.50421762" lon="-2.79928207"><ele></ele><time>2014-5-9T16:13:21Z</time></trkpt>
<trkpt lat="47.50423908" lon="-2.79863834"><ele></ele><time>2014-5-9T16:13:24Z</time></trkpt>
<trkpt lat="47.50404596" lon="-2.79850960"><ele></ele><time>2014-5-9T16:13:27Z</time></trkpt>
<trkpt lat="47.50402451" lon="-2.79850960"><ele></ele><time>2014-5-9T16:13:30Z</time></trkpt>
<trkpt lat="47.50361681" lon="-2.79859543"><ele></ele><time>2014-5-9T16:13:33Z</time></trkpt>
<trkpt lat="47.50301600" lon="-2.79840231"><ele></ele><time>2014-5-9T16:13:36Z</time></trkpt>
<trkpt lat="47.50230789" lon="-2.79831648"><ele></ele><time>2014-5-9T16:13:39Z</time></trkpt>
<trkpt lat="47.50166416" lon="-2.79825211"><ele></ele><time>2014-5-9T16:13:42Z</time></trkpt>
<trkpt lat="47.50084877" lon="-2.79808044"><ele></ele><time>2014-5-9T16:13:45Z</time></trkpt>
<trkpt lat="47.50009775" lon="-2.79760838"><ele></ele><time>2014-5-9T16:13:48Z</time></trkpt>
<trkpt lat="47.49984026" lon="-2.79730797"><ele></ele><time>2014-5-9T16:13:51Z</time></trkpt>
<trkpt lat="47.49958277" lon="-2.79717922"><ele></ele><time>2014-5-9T16:13:54Z</time></trkpt>
<trkpt lat="47.49921799" lon="-2.79722214"><ele></ele><time>2014-5-9T16:13:57Z</time></trkpt>
<trkpt lat="47.49896049" lon="-2.79739380"><ele></ele><time>2014-5-9T16:14:0Z</time></trkpt>
<trkpt lat="47.49870300" lon="-2.79758692"><ele></ele><time>2014-5-9T16:14:3Z</time></trkpt>
<trkpt lat="47.49795198" lon="-2.79782295"><ele></ele><time>2014-5-9T16:14:6Z</time></trkpt>
<trkpt lat="47.49784470" lon="-2.79786587"><ele></ele><time>2014-5-9T16:14:9Z</time></trkpt>
<trkpt lat="47.49722242" lon="-2.79835939"><ele></ele><time>2014-5-9T16:14:12Z</time></trkpt>
<trkpt lat="47.49640703" lon="-2.79898167"><ele></ele><time>2014-5-9T16:14:15Z</time></trkpt>
<trkpt lat="47.49582767" lon="-2.79943228"><ele></ele><time>2014-5-9T16:14:18Z</time></trkpt>
<trkpt lat="47.49533415" lon="-2.79968977"><ele></ele><time>2014-5-9T16:14:21Z</time></trkpt>
<trkpt lat="47.49466896" lon="-2.79983997"><ele></ele><time>2014-5-9T16:14:24Z</time></trkpt>
<trkpt lat="47.49454021" lon="-2.79986143"><ele></ele><time>2014-5-9T16:14:27Z</time></trkpt>
<trkpt lat="47.49426126" lon="-2.79966831"><ele></ele><time>2014-5-9T16:14:30Z</time></trkpt>
<trkpt lat="47.49387503" lon="-2.79951811"><ele></ele><time>2014-5-9T16:14:33Z</time></trkpt>
<trkpt lat="47.49312401" lon="-2.79977560"><ele></ele><time>2014-5-9T16:14:36Z</time></trkpt>
<trkpt lat="47.49303818" lon="-2.79979706"><ele></ele><time>2014-5-9T16:14:39Z</time></trkpt>
<trkpt lat="47.49303818" lon="-2.79977560"><ele></ele><time>2014-5-9T16:14:42Z</time></trkpt>
<trkpt lat="47.49297380" lon="-2.79986143"><ele></ele><time>2014-5-9T16:14:45Z</time></trkpt>
<trkpt lat="47.49258757" lon="-2.79999018"><ele></ele><time>2014-5-9T16:14:48Z</time></trkpt>
<trkpt lat="47.49160051" lon="-2.80029058"><ele></ele><time>2014-5-9T16:14:51Z</time></trkpt>
<trkpt lat="47.49074221" lon="-2.80076265"><ele></ele><time>2014-5-9T16:14:54Z</time></trkpt>
<trkpt lat="47.49033451" lon="-2.80095577"><ele></ele><time>2014-5-9T16:14:57Z</time></trkpt>
<trkpt lat="47.48979807" lon="-2.80084848"><ele></ele><time>2014-5-9T16:15:0Z</time></trkpt>
<trkpt lat="47.48966932" lon="-2.80078411"><ele></ele><time>2014-5-9T16:15:3Z</time></trkpt>
<trkpt lat="47.48941183" lon="-2.80029058"><ele></ele><time>2014-5-9T16:15:6Z</time></trkpt>
<trkpt lat="47.48930454" lon="-2.79990435"><ele></ele><time>2014-5-9T16:15:9Z</time></trkpt>
<trkpt lat="47.48908997" lon="-2.79960394"><ele></ele><time>2014-5-9T16:15:12Z</time></trkpt>
<trkpt lat="47.48838186" lon="-2.79911041"><ele></ele><time>2014-5-9T16:15:15Z</time></trkpt>
<trkpt lat="47.48799562" lon="-2.79906750"><ele></ele><time>2014-5-9T16:15:18Z</time></trkpt>
<trkpt lat="47.48758793" lon="-2.79919624"><ele></ele><time>2014-5-9T16:15:21Z</time></trkpt>
<trkpt lat="47.48711586" lon="-2.79902458"><ele></ele><time>2014-5-9T16:15:24Z</time></trkpt>
<trkpt lat="47.48698711" lon="-2.79893875"><ele></ele><time>2014-5-9T16:15:27Z</time></trkpt>
<trkpt lat="47.48694420" lon="-2.79896021"><ele></ele><time>2014-5-9T16:15:30Z</time></trkpt>
<trkpt lat="47.48694420" lon="-2.79896021"><ele></ele><time>2014-5-9T16:15:33Z</time></trkpt>
<trkpt lat="47.48675108" lon="-2.79876709"><ele></ele><time>2014-5-9T16:15:36Z</time></trkpt>
<trkpt lat="47.48649359" lon="-2.79812336"><ele></ele><time>2014-5-9T16:15:39Z</time></trkpt>
<trkpt lat="47.48617172" lon="-2.79771566"><ele></ele><time>2014-5-9T16:15:42Z</time></trkpt>
<trkpt lat="47.48602152" lon="-2.79765129"><ele></ele><time>2014-5-9T16:15:45Z</time></trkpt>
<trkpt lat="47.48584986" lon="-2.79760838"><ele></ele><time>2014-5-9T16:15:48Z</time></trkpt>
<trkpt lat="47.48557091" lon="-2.79726505"><ele></ele><time>2014-5-9T16:15:51Z</time></trkpt>
<trkpt lat="47.48554945" lon="-2.79711485"><ele></ele><time>2014-5-9T16:15:54Z</time></trkpt>
<trkpt lat="47.48552799" lon="-2.79664278"><ele></ele><time>2014-5-9T16:15:57Z</time></trkpt>
<trkpt lat="47.48552799" lon="-2.79649258"><ele></ele><time>2014-5-9T16:16:0Z</time></trkpt>
<trkpt lat="47.48552799" lon="-2.79644966"><ele></ele><time>2014-5-9T16:16:3Z</time></trkpt>
<trkpt lat="47.48542070" lon="-2.79552698"><ele></ele><time>2014-5-9T16:16:6Z</time></trkpt>
<trkpt lat="47.48516321" lon="-2.79438972"><ele></ele><time>2014-5-9T16:16:9Z</time></trkpt>
<trkpt lat="47.48494864" lon="-2.79363871"><ele></ele><time>2014-5-9T16:16:12Z</time></trkpt>
<trkpt lat="47.48488426" lon="-2.79329538"><ele></ele><time>2014-5-9T16:16:15Z</time></trkpt>
<trkpt lat="47.48505592" lon="-2.79278040"><ele></ele><time>2014-5-9T16:16:18Z</time></trkpt>
<trkpt lat="47.48509884" lon="-2.79273748"><ele></ele><time>2014-5-9T16:16:21Z</time></trkpt>
<trkpt lat="47.48542070" lon="-2.79239416"><ele></ele><time>2014-5-9T16:16:24Z</time></trkpt>
<trkpt lat="47.48563528" lon="-2.79226542"><ele></ele><time>2014-5-9T16:16:27Z</time></trkpt>
<trkpt lat="47.48606443" lon="-2.79232979"><ele></ele><time>2014-5-9T16:16:30Z</time></trkpt>
<trkpt lat="47.48612881" lon="-2.79241562"><ele></ele><time>2014-5-9T16:16:33Z</time></trkpt>
<trkpt lat="47.48636484" lon="-2.79299498"><ele></ele><time>2014-5-9T16:16:36Z</time></trkpt>
<trkpt lat="47.48675108" lon="-2.79320955"><ele></ele><time>2014-5-9T16:16:39Z</time></trkpt>
<trkpt lat="47.48784542" lon="-2.79308081"><ele></ele><time>2014-5-9T16:16:42Z</time></trkpt>
<trkpt lat="47.48844624" lon="-2.79267311"><ele></ele><time>2014-5-9T16:16:45Z</time></trkpt>
<trkpt lat="47.48855352" lon="-2.79258728"><ele></ele><time>2014-5-9T16:16:48Z</time></trkpt>
<trkpt lat="47.48885393" lon="-2.79258728"><ele></ele><time>2014-5-9T16:16:51Z</time></trkpt>
<trkpt lat="47.48915434" lon="-2.79278040"><ele></ele><time>2014-5-9T16:16:54Z</time></trkpt>
<trkpt lat="47.48924017" lon="-2.79252291"><ele></ele><time>2014-5-9T16:16:57Z</time></trkpt>
<trkpt lat="47.48936892" lon="-2.79140711"><ele></ele><time>2014-5-9T16:17:0Z</time></trkpt>
<trkpt lat="47.48939037" lon="-2.79127836"><ele></ele><time>2014-5-9T16:17:3Z</time></trkpt>
<trkpt lat="47.48954058" lon="-2.79067755"><ele></ele><time>2014-5-9T16:17:6Z</time></trkpt>
<trkpt lat="47.48964787" lon="-2.79029131"><ele></ele><time>2014-5-9T16:17:9Z</time></trkpt>
<trkpt lat="47.48973370" lon="-2.78977633"><ele></ele><time>2014-5-9T16:17:12Z</time></trkpt>
<trkpt lat="47.48981953" lon="-2.78919697"><ele></ele><time>2014-5-9T16:17:15Z</time></trkpt>
<trkpt lat="47.48986244" lon="-2.78863907"><ele></ele><time>2014-5-9T16:17:18Z</time></trkpt>
<trkpt lat="47.48984098" lon="-2.78838158"><ele></ele><time>2014-5-9T16:17:21Z</time></trkpt>
<trkpt lat="47.48992682" lon="-2.78782368"><ele></ele><time>2014-5-9T16:17:24Z</time></trkpt>
<trkpt lat="47.48988390" lon="-2.78726578"><ele></ele><time>2014-5-9T16:17:27Z</time></trkpt>
<trkpt lat="47.48988390" lon="-2.78722286"><ele></ele><time>2014-5-9T16:17:30Z</time></trkpt>
<trkpt lat="47.48986244" lon="-2.78722286"><ele></ele><time>2014-5-9T16:17:33Z</time></trkpt>
<trkpt lat="47.48979807" lon="-2.78720140"><ele></ele><time>2014-5-9T16:17:36Z</time></trkpt>
<trkpt lat="47.48977661" lon="-2.78720140"><ele></ele><time>2014-5-9T16:17:39Z</time></trkpt>
<trkpt lat="47.48973370" lon="-2.78709412"><ele></ele><time>2014-5-9T16:17:42Z</time></trkpt>
<trkpt lat="47.48973370" lon="-2.78677225"><ele></ele><time>2014-5-9T16:17:45Z</time></trkpt>
<trkpt lat="47.48971224" lon="-2.78666496"><ele></ele><time>2014-5-9T16:17:48Z</time></trkpt>
<trkpt lat="47.48971224" lon="-2.78664351"><ele></ele><time>2014-5-9T16:17:51Z</time></trkpt>
<trkpt lat="47.48975515" lon="-2.78649330"><ele></ele><time>2014-5-9T16:17:54Z</time></trkpt>
<trkpt lat="47.48984098" lon="-2.78640747"><ele></ele><time>2014-5-9T16:17:57Z</time></trkpt>
<trkpt lat="47.48988390" lon="-2.78636456"><ele></ele><time>2014-5-9T16:18:0Z</time></trkpt>
<trkpt lat="47.48988390" lon="-2.78632164"><ele></ele><time>2014-5-9T16:18:3Z</time></trkpt>
<trkpt lat="47.48988390" lon="-2.78625727"><ele></ele><time>2014-5-9T16:18:6Z</time></trkpt>
<trkpt lat="47.48992682" lon="-2.78614998"><ele></ele><time>2014-5-9T16:18:9Z</time></trkpt>
<trkpt lat="47.48996973" lon="-2.78602123"><ele></ele><time>2014-5-9T16:18:12Z</time></trkpt>
<trkpt lat="47.49001265" lon="-2.78587103"><ele></ele><time>2014-5-9T16:18:15Z</time></trkpt>
<trkpt lat="47.49003410" lon="-2.78582811"><ele></ele><time>2014-5-9T16:18:18Z</time></trkpt>
<trkpt lat="47.49003410" lon="-2.78572083"><ele></ele><time>2014-5-9T16:18:21Z</time></trkpt>
<trkpt lat="47.49009848" lon="-2.78561354"><ele></ele><time>2014-5-9T16:18:24Z</time></trkpt>
<trkpt lat="47.49014139" lon="-2.78563499"><ele></ele><time>2014-5-9T16:18:27Z</time></trkpt>
<trkpt lat="47.49016285" lon="-2.78563499"><ele></ele><time>2014-5-9T16:18:30Z</time></trkpt>
<trkpt lat="47.49024868" lon="-2.78569937"><ele></ele><time>2014-5-9T16:18:33Z</time></trkpt>
<trkpt lat="47.49046326" lon="-2.78595686"><ele></ele><time>2014-5-9T16:18:36Z</time></trkpt>
<trkpt lat="47.49057055" lon="-2.78621435"><ele></ele><time>2014-5-9T16:18:39Z</time></trkpt>
<trkpt lat="47.49069929" lon="-2.78655767"><ele></ele><time>2014-5-9T16:18:42Z</time></trkpt>
<trkpt lat="47.49095678" lon="-2.78651476"><ele></ele><time>2014-5-9T16:18:45Z</time></trkpt>
<trkpt lat="47.49127865" lon="-2.78627872"><ele></ele><time>2014-5-9T16:18:48Z</time></trkpt>
<trkpt lat="47.49166489" lon="-2.78604269"><ele></ele><time>2014-5-9T16:18:51Z</time></trkpt>
<trkpt lat="47.49207258" lon="-2.78580666"><ele></ele><time>2014-5-9T16:18:54Z</time></trkpt>
<trkpt lat="47.49243736" lon="-2.78565645"><ele></ele><time>2014-5-9T16:18:57Z</time></trkpt>
<trkpt lat="47.49282360" lon="-2.78537750"><ele></ele><time>2014-5-9T16:19:0Z</time></trkpt>
<trkpt lat="47.49327421" lon="-2.78488398"><ele></ele><time>2014-5-9T16:19:3Z</time></trkpt>
<trkpt lat="47.49368191" lon="-2.78419733"><ele></ele><time>2014-5-9T16:19:6Z</time></trkpt>
<trkpt lat="47.49419689" lon="-2.78327465"><ele></ele><time>2014-5-9T16:19:9Z</time></trkpt>
<trkpt lat="47.49462605" lon="-2.78222322"><ele></ele><time>2014-5-9T16:19:12Z</time></trkpt>
<trkpt lat="47.49507666" lon="-2.78112888"><ele></ele><time>2014-5-9T16:19:15Z</time></trkpt>
<trkpt lat="47.49539852" lon="-2.78018475"><ele></ele><time>2014-5-9T16:19:18Z</time></trkpt>
<trkpt lat="47.49578476" lon="-2.77881145"><ele></ele><time>2014-5-9T16:19:21Z</time></trkpt>
<trkpt lat="47.49610662" lon="-2.77750254"><ele></ele><time>2014-5-9T16:19:24Z</time></trkpt>
<trkpt lat="47.49634266" lon="-2.77645111"><ele></ele><time>2014-5-9T16:19:27Z</time></trkpt>
<trkpt lat="47.49653578" lon="-2.77589321"><ele></ele><time>2014-5-9T16:19:30Z</time></trkpt>
<trkpt lat="47.49664307" lon="-2.77505636"><ele></ele><time>2014-5-9T16:19:33Z</time></trkpt>
<trkpt lat="47.49666452" lon="-2.77447701"><ele></ele><time>2014-5-9T16:19:36Z</time></trkpt>
<trkpt lat="47.49670744" lon="-2.77372599"><ele></ele><time>2014-5-9T16:19:39Z</time></trkpt>
<trkpt lat="47.49683619" lon="-2.77318954"><ele></ele><time>2014-5-9T16:19:42Z</time></trkpt>
<trkpt lat="47.49692202" lon="-2.77269602"><ele></ele><time>2014-5-9T16:19:45Z</time></trkpt>
<trkpt lat="47.49709368" lon="-2.77220249"><ele></ele><time>2014-5-9T16:19:48Z</time></trkpt>
<trkpt lat="47.49717951" lon="-2.77181625"><ele></ele><time>2014-5-9T16:19:51Z</time></trkpt>
<trkpt lat="47.49726534" lon="-2.77145147"><ele></ele><time>2014-5-9T16:19:54Z</time></trkpt>
<trkpt lat="47.49737263" lon="-2.77082920"><ele></ele><time>2014-5-9T16:19:57Z</time></trkpt>
<trkpt lat="47.49739408" lon="-2.77014256"><ele></ele><time>2014-5-9T16:20:0Z</time></trkpt>
<trkpt lat="47.49741554" lon="-2.76930571"><ele></ele><time>2014-5-9T16:20:3Z</time></trkpt>
<trkpt lat="47.49745846" lon="-2.76825428"><ele></ele><time>2014-5-9T16:20:6Z</time></trkpt>
<trkpt lat="47.49763012" lon="-2.76765347"><ele></ele><time>2014-5-9T16:20:9Z</time></trkpt>
<trkpt lat="47.49782324" lon="-2.76765347"><ele></ele><time>2014-5-9T16:20:12Z</time></trkpt>
<trkpt lat="47.49790907" lon="-2.76765347"><ele></ele><time>2014-5-9T16:20:15Z</time></trkpt>
<trkpt lat="47.49782324" lon="-2.76767492"><ele></ele><time>2014-5-9T16:20:18Z</time></trkpt>
<trkpt lat="47.49782324" lon="-2.76767492"><ele></ele><time>2014-5-9T16:20:21Z</time></trkpt>
<trkpt lat="47.49780178" lon="-2.76765347"><ele></ele><time>2014-5-9T16:20:24Z</time></trkpt>
<trkpt lat="47.49780178" lon="-2.76765347"><ele></ele><time>2014-5-9T16:20:27Z</time></trkpt>
<trkpt lat="47.49803782" lon="-2.76756763"><ele></ele><time>2014-5-9T16:20:30Z</time></trkpt>
<trkpt lat="47.49810219" lon="-2.76752472"><ele></ele><time>2014-5-9T16:20:33Z</time></trkpt>
<trkpt lat="47.49801636" lon="-2.76765347"><ele></ele><time>2014-5-9T16:20:36Z</time></trkpt>
<trkpt lat="47.49790907" lon="-2.76748180"><ele></ele><time>2014-5-9T16:20:39Z</time></trkpt>
<trkpt lat="47.49790907" lon="-2.76700974"><ele></ele><time>2014-5-9T16:20:42Z</time></trkpt>
<trkpt lat="47.49790907" lon="-2.76653767"><ele></ele><time>2014-5-9T16:20:45Z</time></trkpt>
<trkpt lat="47.49786615" lon="-2.76576519"><ele></ele><time>2014-5-9T16:20:48Z</time></trkpt>
<trkpt lat="47.49788761" lon="-2.76522875"><ele></ele><time>2014-5-9T16:20:51Z</time></trkpt>
<trkpt lat="47.49790907" lon="-2.76514292"><ele></ele><time>2014-5-9T16:20:54Z</time></trkpt>
<trkpt lat="47.49793053" lon="-2.76510000"><ele></ele><time>2014-5-9T16:20:57Z</time></trkpt>
<trkpt lat="47.49790907" lon="-2.76482105"><ele></ele><time>2014-5-9T16:21:0Z</time></trkpt>
<trkpt lat="47.49788761" lon="-2.76437044"><ele></ele><time>2014-5-9T16:21:3Z</time></trkpt>
<trkpt lat="47.49788761" lon="-2.76389837"><ele></ele><time>2014-5-9T16:21:6Z</time></trkpt>
<trkpt lat="47.49788761" lon="-2.76368380"><ele></ele><time>2014-5-9T16:21:9Z</time></trkpt>
<trkpt lat="47.49784470" lon="-2.76353359"><ele></ele><time>2014-5-9T16:21:12Z</time></trkpt>
<trkpt lat="47.49780178" lon="-2.76291132"><ele></ele><time>2014-5-9T16:21:15Z</time></trkpt>
<trkpt lat="47.49775887" lon="-2.76231050"><ele></ele><time>2014-5-9T16:21:18Z</time></trkpt>
<trkpt lat="47.49773741" lon="-2.76145220"><ele></ele><time>2014-5-9T16:21:21Z</time></trkpt>
<trkpt lat="47.49773741" lon="-2.76085138"><ele></ele><time>2014-5-9T16:21:24Z</time></trkpt>
<trkpt lat="47.49773741" lon="-2.76061535"><ele></ele><time>2014-5-9T16:21:27Z</time></trkpt>
<trkpt lat="47.49780178" lon="-2.76046515"><ele></ele><time>2014-5-9T16:21:30Z</time></trkpt>
<trkpt lat="47.49780178" lon="-2.76046515"><ele></ele><time>2014-5-9T16:21:33Z</time></trkpt>
<trkpt lat="47.49778032" lon="-2.76029348"><ele></ele><time>2014-5-9T16:21:36Z</time></trkpt>
<trkpt lat="47.49773741" lon="-2.75975704"><ele></ele><time>2014-5-9T16:21:39Z</time></trkpt>
<trkpt lat="47.49763012" lon="-2.75883436"><ele></ele><time>2014-5-9T16:21:42Z</time></trkpt>
<trkpt lat="47.49754429" lon="-2.75829792"><ele></ele><time>2014-5-9T16:21:45Z</time></trkpt>
<trkpt lat="47.49750137" lon="-2.75780439"><ele></ele><time>2014-5-9T16:21:48Z</time></trkpt>
<trkpt lat="47.49747992" lon="-2.75741816"><ele></ele><time>2014-5-9T16:21:51Z</time></trkpt>
<trkpt lat="47.49745846" lon="-2.75743961"><ele></ele><time>2014-5-9T16:21:54Z</time></trkpt>
<trkpt lat="47.49743700" lon="-2.75741816"><ele></ele><time>2014-5-9T16:21:57Z</time></trkpt>
<trkpt lat="47.49743700" lon="-2.75739670"><ele></ele><time>2014-5-9T16:22:0Z</time></trkpt>
<trkpt lat="47.49745846" lon="-2.75703192"><ele></ele><time>2014-5-9T16:22:3Z</time></trkpt>
<trkpt lat="47.49750137" lon="-2.75677443"><ele></ele><time>2014-5-9T16:22:6Z</time></trkpt>
<trkpt lat="47.49754429" lon="-2.75662422"><ele></ele><time>2014-5-9T16:22:9Z</time></trkpt>
<trkpt lat="47.49756575" lon="-2.75647402"><ele></ele><time>2014-5-9T16:22:12Z</time></trkpt>
<trkpt lat="47.49767303" lon="-2.75615215"><ele></ele><time>2014-5-9T16:22:15Z</time></trkpt>
<trkpt lat="47.49771595" lon="-2.75608778"><ele></ele><time>2014-5-9T16:22:18Z</time></trkpt>
<trkpt lat="47.49775887" lon="-2.75610924"><ele></ele><time>2014-5-9T16:22:21Z</time></trkpt>
<trkpt lat="47.49793053" lon="-2.75578737"><ele></ele><time>2014-5-9T16:22:24Z</time></trkpt>
<trkpt lat="47.49810219" lon="-2.75540113"><ele></ele><time>2014-5-9T16:22:27Z</time></trkpt>
<trkpt lat="47.49829531" lon="-2.75497198"><ele></ele><time>2014-5-9T16:22:30Z</time></trkpt>
<trkpt lat="47.49844551" lon="-2.75449991"><ele></ele><time>2014-5-9T16:22:33Z</time></trkpt>
<trkpt lat="47.49855280" lon="-2.75411367"><ele></ele><time>2014-5-9T16:22:36Z</time></trkpt>
<trkpt lat="47.49861717" lon="-2.75340557"><ele></ele><time>2014-5-9T16:22:39Z</time></trkpt>
<trkpt lat="47.49870300" lon="-2.75323391"><ele></ele><time>2014-5-9T16:22:42Z</time></trkpt>
<trkpt lat="47.49919653" lon="-2.75265455"><ele></ele><time>2014-5-9T16:22:45Z</time></trkpt>
<trkpt lat="47.49988317" lon="-2.75209665"><ele></ele><time>2014-5-9T16:22:48Z</time></trkpt>
<trkpt lat="47.50104189" lon="-2.75123835"><ele></ele><time>2014-5-9T16:22:51Z</time></trkpt>
<trkpt lat="47.50185728" lon="-2.75213957"><ele></ele><time>2014-5-9T16:22:54Z</time></trkpt>
<trkpt lat="47.50222206" lon="-2.75188208"><ele></ele><time>2014-5-9T16:22:57Z</time></trkpt>
<trkpt lat="47.50288725" lon="-2.75138855"><ele></ele><time>2014-5-9T16:23:0Z</time></trkpt>
<trkpt lat="47.50361681" lon="-2.75119543"><ele></ele><time>2014-5-9T16:23:3Z</time></trkpt>
<trkpt lat="47.50436783" lon="-2.75102377"><ele></ele><time>2014-5-9T16:23:6Z</time></trkpt>
<trkpt lat="47.50514030" lon="-2.75087357"><ele></ele><time>2014-5-9T16:23:9Z</time></trkpt>
<trkpt lat="47.50591278" lon="-2.75068045"><ele></ele><time>2014-5-9T16:23:12Z</time></trkpt>
<trkpt lat="47.50657797" lon="-2.75059462"><ele></ele><time>2014-5-9T16:23:15Z</time></trkpt>
<trkpt lat="47.50711441" lon="-2.75065899"><ele></ele><time>2014-5-9T16:23:18Z</time></trkpt>
<trkpt lat="47.50790834" lon="-2.75076628"><ele></ele><time>2014-5-9T16:23:21Z</time></trkpt>
<trkpt lat="47.50863791" lon="-2.75087357"><ele></ele><time>2014-5-9T16:23:24Z</time></trkpt>
<trkpt lat="47.50917435" lon="-2.75093794"><ele></ele><time>2014-5-9T16:23:27Z</time></trkpt>
<trkpt lat="47.50951767" lon="-2.75076628"><ele></ele><time>2014-5-9T16:23:30Z</time></trkpt>
<trkpt lat="47.50990391" lon="-2.75035858"><ele></ele><time>2014-5-9T16:23:33Z</time></trkpt>
<trkpt lat="47.51007557" lon="-2.75022984"><ele></ele><time>2014-5-9T16:23:36Z</time></trkpt>
<trkpt lat="47.51063347" lon="-2.75007963"><ele></ele><time>2014-5-9T16:23:39Z</time></trkpt>
<trkpt lat="47.51166344" lon="-2.74986506"><ele></ele><time>2014-5-9T16:23:42Z</time></trkpt>
<trkpt lat="47.51247883" lon="-2.74965048"><ele></ele><time>2014-5-9T16:23:45Z</time></trkpt>
<trkpt lat="47.51385212" lon="-2.74935007"><ele></ele><time>2014-5-9T16:23:48Z</time></trkpt>
<trkpt lat="47.51464605" lon="-2.74967194"><ele></ele><time>2014-5-9T16:23:51Z</time></trkpt>
<trkpt lat="47.51541853" lon="-2.74997234"><ele></ele><time>2014-5-9T16:23:54Z</time></trkpt>
<trkpt lat="47.51593351" lon="-2.75025129"><ele></ele><time>2014-5-9T16:23:57Z</time></trkpt>
<trkpt lat="47.51638412" lon="-2.75093794"><ele></ele><time>2014-5-9T16:24:0Z</time></trkpt>
<trkpt lat="47.51670599" lon="-2.75149584"><ele></ele><time>2014-5-9T16:24:3Z</time></trkpt>
<trkpt lat="47.51687765" lon="-2.75209665"><ele></ele><time>2014-5-9T16:24:6Z</time></trkpt>
<trkpt lat="47.51692057" lon="-2.75271893"><ele></ele><time>2014-5-9T16:24:9Z</time></trkpt>
<trkpt lat="47.51696348" lon="-2.75346994"><ele></ele><time>2014-5-9T16:24:12Z</time></trkpt>
<trkpt lat="47.51704931" lon="-2.75454283"><ele></ele><time>2014-5-9T16:24:15Z</time></trkpt>
<trkpt lat="47.51734972" lon="-2.75486469"><ele></ele><time>2014-5-9T16:24:18Z</time></trkpt>
<trkpt lat="47.51739264" lon="-2.75486469"><ele></ele><time>2014-5-9T16:24:21Z</time></trkpt>
<trkpt lat="47.51756430" lon="-2.75484324"><ele></ele><time>2014-5-9T16:24:24Z</time></trkpt>
<trkpt lat="47.51805782" lon="-2.75477886"><ele></ele><time>2014-5-9T16:24:27Z</time></trkpt>
<trkpt lat="47.51825094" lon="-2.75495052"><ele></ele><time>2014-5-9T16:24:30Z</time></trkpt>
<trkpt lat="47.51863718" lon="-2.75540113"><ele></ele><time>2014-5-9T16:24:33Z</time></trkpt>
<trkpt lat="47.51891613" lon="-2.75557280"><ele></ele><time>2014-5-9T16:24:36Z</time></trkpt>
<trkpt lat="47.51966715" lon="-2.75561571"><ele></ele><time>2014-5-9T16:24:39Z</time></trkpt>
<trkpt lat="47.52020359" lon="-2.75576591"><ele></ele><time>2014-5-9T16:24:42Z</time></trkpt>
<trkpt lat="47.52089024" lon="-2.75617361"><ele></ele><time>2014-5-9T16:24:45Z</time></trkpt>
<trkpt lat="47.52159834" lon="-2.75617361"><ele></ele><time>2014-5-9T16:24:48Z</time></trkpt>
<trkpt lat="47.52226353" lon="-2.75643110"><ele></ele><time>2014-5-9T16:24:51Z</time></trkpt>
<trkpt lat="47.52305746" lon="-2.75683880"><ele></ele><time>2014-5-9T16:24:54Z</time></trkpt>
<trkpt lat="47.52378702" lon="-2.75726795"><ele></ele><time>2014-5-9T16:24:57Z</time></trkpt>
<trkpt lat="47.52428055" lon="-2.75808334"><ele></ele><time>2014-5-9T16:25:0Z</time></trkpt>
<trkpt lat="47.52447367" lon="-2.75812626"><ele></ele><time>2014-5-9T16:25:3Z</time></trkpt>
<trkpt lat="47.52458096" lon="-2.75831938"><ele></ele><time>2014-5-9T16:25:6Z</time></trkpt>
<trkpt lat="47.52470970" lon="-2.75881290"><ele></ele><time>2014-5-9T16:25:9Z</time></trkpt>
<trkpt lat="47.52479553" lon="-2.75932789"><ele></ele><time>2014-5-9T16:25:12Z</time></trkpt>
<trkpt lat="47.52496719" lon="-2.75967121"><ele></ele><time>2014-5-9T16:25:15Z</time></trkpt>
<trkpt lat="47.52524614" lon="-2.75988579"><ele></ele><time>2014-5-9T16:25:18Z</time></trkpt>
<trkpt lat="47.52548218" lon="-2.76014328"><ele></ele><time>2014-5-9T16:25:21Z</time></trkpt>
<trkpt lat="47.52582550" lon="-2.76059389"><ele></ele><time>2014-5-9T16:25:24Z</time></trkpt>
<trkpt lat="47.52584696" lon="-2.76061535"><ele></ele><time>2014-5-9T16:25:27Z</time></trkpt>
<trkpt lat="47.52582550" lon="-2.76072264"><ele></ele><time>2014-5-9T16:25:30Z</time></trkpt>
<trkpt lat="47.52580404" lon="-2.76106596"><ele></ele><time>2014-5-9T16:25:33Z</time></trkpt>
<trkpt lat="47.52582550" lon="-2.76192427"><ele></ele><time>2014-5-9T16:25:36Z</time></trkpt>
<trkpt lat="47.52580404" lon="-2.76306152"><ele></ele><time>2014-5-9T16:25:39Z</time></trkpt>
<trkpt lat="47.52569675" lon="-2.76359797"><ele></ele><time>2014-5-9T16:25:42Z</time></trkpt>
<trkpt lat="47.52567530" lon="-2.76372671"><ele></ele><time>2014-5-9T16:25:45Z</time></trkpt>
<trkpt lat="47.52571821" lon="-2.76396275"><ele></ele><time>2014-5-9T16:25:48Z</time></trkpt>
<trkpt lat="47.52608299" lon="-2.76424170"><ele></ele><time>2014-5-9T16:25:51Z</time></trkpt>
<trkpt lat="47.52612591" lon="-2.76430607"><ele></ele><time>2014-5-9T16:25:54Z</time></trkpt>
<trkpt lat="47.52619028" lon="-2.76490688"><ele></ele><time>2014-5-9T16:25:57Z</time></trkpt>
<trkpt lat="47.52621174" lon="-2.76518583"><ele></ele><time>2014-5-9T16:26:0Z</time></trkpt>
<trkpt lat="47.52634048" lon="-2.76546478"><ele></ele><time>2014-5-9T16:26:3Z</time></trkpt>
<trkpt lat="47.52631903" lon="-2.76557207"><ele></ele><time>2014-5-9T16:26:6Z</time></trkpt>
<trkpt lat="47.52629757" lon="-2.76602268"><ele></ele><time>2014-5-9T16:26:9Z</time></trkpt>
<trkpt lat="47.52631903" lon="-2.76628017"><ele></ele><time>2014-5-9T16:26:12Z</time></trkpt>
<trkpt lat="47.52644777" lon="-2.76651621"><ele></ele><time>2014-5-9T16:26:15Z</time></trkpt>
<trkpt lat="47.52653360" lon="-2.76658058"><ele></ele><time>2014-5-9T16:26:18Z</time></trkpt>
<trkpt lat="47.52655506" lon="-2.76685953"><ele></ele><time>2014-5-9T16:26:21Z</time></trkpt>
<trkpt lat="47.52651215" lon="-2.76703119"><ele></ele><time>2014-5-9T16:26:24Z</time></trkpt>
<trkpt lat="47.52646923" lon="-2.76746035"><ele></ele><time>2014-5-9T16:26:27Z</time></trkpt>
<trkpt lat="47.52642632" lon="-2.76784658"><ele></ele><time>2014-5-9T16:26:30Z</time></trkpt>
<trkpt lat="47.52642632" lon="-2.76814699"><ele></ele><time>2014-5-9T16:26:33Z</time></trkpt>
<trkpt lat="47.52653360" lon="-2.76831865"><ele></ele><time>2014-5-9T16:26:36Z</time></trkpt>
<trkpt lat="47.52649069" lon="-2.76906967"><ele></ele><time>2014-5-9T16:26:39Z</time></trkpt>
<trkpt lat="47.52651215" lon="-2.76954174"><ele></ele><time>2014-5-9T16:26:42Z</time></trkpt>
<trkpt lat="47.52666235" lon="-2.76971340"><ele></ele><time>2014-5-9T16:26:45Z</time></trkpt>
<trkpt lat="47.52685547" lon="-2.76952028"><ele></ele><time>2014-5-9T16:26:48Z</time></trkpt>
<trkpt lat="47.52719879" lon="-2.76913404"><ele></ele><time>2014-5-9T16:26:51Z</time></trkpt>
<trkpt lat="47.52754211" lon="-2.76911259"><ele></ele><time>2014-5-9T16:26:54Z</time></trkpt>
<trkpt lat="47.52758503" lon="-2.76926279"><ele></ele><time>2014-5-9T16:26:57Z</time></trkpt>
<trkpt lat="47.52758503" lon="-2.76928425"><ele></ele><time>2014-5-9T16:27:0Z</time></trkpt>
<trkpt lat="47.52752066" lon="-2.76939154"><ele></ele><time>2014-5-9T16:27:3Z</time></trkpt>
<trkpt lat="47.52741337" lon="-2.76527166"><ele></ele><time>2014-5-9T16:27:6Z</time></trkpt>
<trkpt lat="47.52698421" lon="-2.76529312"><ele></ele><time>2014-5-9T16:27:9Z</time></trkpt>
<trkpt lat="47.52638340" lon="-2.76537895"><ele></ele><time>2014-5-9T16:27:12Z</time></trkpt>
<trkpt lat="47.52625465" lon="-2.76544333"><ele></ele><time>2014-5-9T16:27:15Z</time></trkpt>
<trkpt lat="47.52619028" lon="-2.76535749"><ele></ele><time>2014-5-9T16:27:18Z</time></trkpt>
<trkpt lat="47.52616882" lon="-2.76529312"><ele></ele><time>2014-5-9T16:27:21Z</time></trkpt>
<trkpt lat="47.52610445" lon="-2.76520729"><ele></ele><time>2014-5-9T16:27:24Z</time></trkpt>
<trkpt lat="47.52608299" lon="-2.76439190"><ele></ele><time>2014-5-9T16:27:27Z</time></trkpt>
<trkpt lat="47.52606153" lon="-2.76424170"><ele></ele><time>2014-5-9T16:27:30Z</time></trkpt>
<trkpt lat="47.52591133" lon="-2.76409149"><ele></ele><time>2014-5-9T16:27:33Z</time></trkpt>
<trkpt lat="47.52561092" lon="-2.76383400"><ele></ele><time>2014-5-9T16:27:36Z</time></trkpt>
<trkpt lat="47.52561092" lon="-2.76361942"><ele></ele><time>2014-5-9T16:27:39Z</time></trkpt>
<trkpt lat="47.52569675" lon="-2.76336193"><ele></ele><time>2014-5-9T16:27:42Z</time></trkpt>
<trkpt lat="47.52569675" lon="-2.76323318"><ele></ele><time>2014-5-9T16:27:45Z</time></trkpt>
<trkpt lat="47.52580404" lon="-2.76235342"><ele></ele><time>2014-5-9T16:27:48Z</time></trkpt>
<trkpt lat="47.52576113" lon="-2.76119471"><ele></ele><time>2014-5-9T16:27:51Z</time></trkpt>
<trkpt lat="47.52578259" lon="-2.76072264"><ele></ele><time>2014-5-9T16:27:54Z</time></trkpt>
<trkpt lat="47.52580404" lon="-2.76070118"><ele></ele><time>2014-5-9T16:27:57Z</time></trkpt>
<trkpt lat="47.52580404" lon="-2.76059389"><ele></ele><time>2014-5-9T16:28:0Z</time></trkpt>
<trkpt lat="47.52571821" lon="-2.76042223"><ele></ele><time>2014-5-9T16:28:3Z</time></trkpt>
<trkpt lat="47.52524614" lon="-2.75988579"><ele></ele><time>2014-5-9T16:28:6Z</time></trkpt>
<trkpt lat="47.52518177" lon="-2.75984287"><ele></ele><time>2014-5-9T16:28:9Z</time></trkpt>
<trkpt lat="47.52509594" lon="-2.75982141"><ele></ele><time>2014-5-9T16:28:12Z</time></trkpt>
<trkpt lat="47.52494574" lon="-2.75973558"><ele></ele><time>2014-5-9T16:28:15Z</time></trkpt>
<trkpt lat="47.52475262" lon="-2.75939226"><ele></ele><time>2014-5-9T16:28:18Z</time></trkpt>
<trkpt lat="47.52468824" lon="-2.75919914"><ele></ele><time>2014-5-9T16:28:21Z</time></trkpt>
<trkpt lat="47.52464533" lon="-2.75892019"><ele></ele><time>2014-5-9T16:28:24Z</time></trkpt>
<trkpt lat="47.52455950" lon="-2.75829792"><ele></ele><time>2014-5-9T16:28:27Z</time></trkpt>
<trkpt lat="47.52440929" lon="-2.75816917"><ele></ele><time>2014-5-9T16:28:30Z</time></trkpt>
<trkpt lat="47.52423763" lon="-2.75816917"><ele></ele><time>2014-5-9T16:28:33Z</time></trkpt>
<trkpt lat="47.52419472" lon="-2.75816917"><ele></ele><time>2014-5-9T16:28:36Z</time></trkpt>
<trkpt lat="47.52419472" lon="-2.75816917"><ele></ele><time>2014-5-9T16:28:39Z</time></trkpt>
<trkpt lat="47.52419472" lon="-2.75819063"><ele></ele><time>2014-5-9T16:28:42Z</time></trkpt>
<trkpt lat="47.52417326" lon="-2.75816917"><ele></ele><time>2014-5-9T16:28:45Z</time></trkpt>
<trkpt lat="47.52367973" lon="-2.75737524"><ele></ele><time>2014-5-9T16:28:48Z</time></trkpt>
<trkpt lat="47.52273560" lon="-2.75647402"><ele></ele><time>2014-5-9T16:28:51Z</time></trkpt>
<trkpt lat="47.52185583" lon="-2.75600195"><ele></ele><time>2014-5-9T16:28:54Z</time></trkpt>
<trkpt lat="47.52099752" lon="-2.75604486"><ele></ele><time>2014-5-9T16:28:57Z</time></trkpt>
<trkpt lat="47.52033234" lon="-2.75587320"><ele></ele><time>2014-5-9T16:29:0Z</time></trkpt>
<trkpt lat="47.51992464" lon="-2.75570154"><ele></ele><time>2014-5-9T16:29:3Z</time></trkpt>
<trkpt lat="47.51923800" lon="-2.75568008"><ele></ele><time>2014-5-9T16:29:6Z</time></trkpt>
<trkpt lat="47.51876593" lon="-2.75550842"><ele></ele><time>2014-5-9T16:29:9Z</time></trkpt>
<trkpt lat="47.51822948" lon="-2.75495052"><ele></ele><time>2014-5-9T16:29:12Z</time></trkpt>
<trkpt lat="47.51814365" lon="-2.75486469"><ele></ele><time>2014-5-9T16:29:15Z</time></trkpt>
<trkpt lat="47.51797199" lon="-2.75480032"><ele></ele><time>2014-5-9T16:29:18Z</time></trkpt>
<trkpt lat="47.51739264" lon="-2.75488615"><ele></ele><time>2014-5-9T16:29:21Z</time></trkpt>
<trkpt lat="47.51707077" lon="-2.75465012"><ele></ele><time>2014-5-9T16:29:24Z</time></trkpt>
<trkpt lat="47.51700640" lon="-2.75439262"><ele></ele><time>2014-5-9T16:29:27Z</time></trkpt>
<trkpt lat="47.51692057" lon="-2.75321245"><ele></ele><time>2014-5-9T16:29:30Z</time></trkpt>
<trkpt lat="47.51685619" lon="-2.75216103"><ele></ele><time>2014-5-9T16:29:33Z</time></trkpt>
<trkpt lat="47.51666307" lon="-2.75147438"><ele></ele><time>2014-5-9T16:29:36Z</time></trkpt>
<trkpt lat="47.51604080" lon="-2.75046587"><ele></ele><time>2014-5-9T16:29:39Z</time></trkpt>
<trkpt lat="47.51550436" lon="-2.75012255"><ele></ele><time>2014-5-9T16:29:42Z</time></trkpt>
<trkpt lat="47.51395941" lon="-2.74969339"><ele></ele><time>2014-5-9T16:29:45Z</time></trkpt>
<trkpt lat="47.51252174" lon="-2.74939299"><ele></ele><time>2014-5-9T16:29:48Z</time></trkpt>
<trkpt lat="47.51228571" lon="-2.74945736"><ele></ele><time>2014-5-9T16:29:51Z</time></trkpt>
<trkpt lat="47.51140594" lon="-2.74984360"><ele></ele><time>2014-5-9T16:29:54Z</time></trkpt>
<trkpt lat="47.51056910" lon="-2.75007963"><ele></ele><time>2014-5-9T16:29:57Z</time></trkpt>
<trkpt lat="47.51029015" lon="-2.75016546"><ele></ele><time>2014-5-9T16:30:0Z</time></trkpt>
<trkpt lat="47.50992537" lon="-2.75044441"><ele></ele><time>2014-5-9T16:30:3Z</time></trkpt>
<trkpt lat="47.50958204" lon="-2.75076628"><ele></ele><time>2014-5-9T16:30:6Z</time></trkpt>
<trkpt lat="47.50913143" lon="-2.75089502"><ele></ele><time>2014-5-9T16:30:9Z</time></trkpt>
<trkpt lat="47.50810146" lon="-2.75076628"><ele></ele><time>2014-5-9T16:30:12Z</time></trkpt>
<trkpt lat="47.50720024" lon="-2.75063753"><ele></ele><time>2014-5-9T16:30:15Z</time></trkpt>
<trkpt lat="47.50638485" lon="-2.75057316"><ele></ele><time>2014-5-9T16:30:18Z</time></trkpt>
<trkpt lat="47.50556946" lon="-2.75070190"><ele></ele><time>2014-5-9T16:30:21Z</time></trkpt>
<trkpt lat="47.50426054" lon="-2.75100231"><ele></ele><time>2014-5-9T16:30:24Z</time></trkpt>
<trkpt lat="47.50327349" lon="-2.75121689"><ele></ele><time>2014-5-9T16:30:27Z</time></trkpt>
<trkpt lat="47.50265121" lon="-2.75138855"><ele></ele><time>2014-5-9T16:30:30Z</time></trkpt>
<trkpt lat="47.50202894" lon="-2.75188208"><ele></ele><time>2014-5-9T16:30:33Z</time></trkpt>
<trkpt lat="47.50132084" lon="-2.75226831"><ele></ele><time>2014-5-9T16:30:36Z</time></trkpt>
<trkpt lat="47.50056982" lon="-2.75233269"><ele></ele><time>2014-5-9T16:30:39Z</time></trkpt>
<trkpt lat="47.49934673" lon="-2.75239706"><ele></ele><time>2014-5-9T16:30:42Z</time></trkpt>
<trkpt lat="47.49906778" lon="-2.75267601"><ele></ele><time>2014-5-9T16:30:45Z</time></trkpt>
<trkpt lat="47.49863863" lon="-2.75325537"><ele></ele><time>2014-5-9T16:30:48Z</time></trkpt>
<trkpt lat="47.49855280" lon="-2.75377035"><ele></ele><time>2014-5-9T16:30:51Z</time></trkpt>
<trkpt lat="47.49848843" lon="-2.75454283"><ele></ele><time>2014-5-9T16:30:54Z</time></trkpt>
<trkpt lat="47.49820948" lon="-2.75529385"><ele></ele><time>2014-5-9T16:30:57Z</time></trkpt>
<trkpt lat="47.49799490" lon="-2.75557280"><ele></ele><time>2014-5-9T16:31:0Z</time></trkpt>
<trkpt lat="47.49780178" lon="-2.75591612"><ele></ele><time>2014-5-9T16:31:3Z</time></trkpt>
<trkpt lat="47.49773741" lon="-2.75602341"><ele></ele><time>2014-5-9T16:31:6Z</time></trkpt>
<trkpt lat="47.49754429" lon="-2.75598049"><ele></ele><time>2014-5-9T16:31:9Z</time></trkpt>
<trkpt lat="47.49735117" lon="-2.75621653"><ele></ele><time>2014-5-9T16:31:12Z</time></trkpt>
<trkpt lat="47.49732971" lon="-2.75636673"><ele></ele><time>2014-5-9T16:31:15Z</time></trkpt>
<trkpt lat="47.49735117" lon="-2.75658131"><ele></ele><time>2014-5-9T16:31:18Z</time></trkpt>
<trkpt lat="47.49735117" lon="-2.75671005"><ele></ele><time>2014-5-9T16:31:21Z</time></trkpt>
<trkpt lat="47.49735117" lon="-2.75686026"><ele></ele><time>2014-5-9T16:31:24Z</time></trkpt>
<trkpt lat="47.49737263" lon="-2.75707483"><ele></ele><time>2014-5-9T16:31:27Z</time></trkpt>
<trkpt lat="47.49739408" lon="-2.75731087"><ele></ele><time>2014-5-9T16:31:30Z</time></trkpt>
<trkpt lat="47.49741554" lon="-2.75739670"><ele></ele><time>2014-5-9T16:31:33Z</time></trkpt>
<trkpt lat="47.49743700" lon="-2.75748253"><ele></ele><time>2014-5-9T16:31:36Z</time></trkpt>
<trkpt lat="47.49743700" lon="-2.75752544"><ele></ele><time>2014-5-9T16:31:39Z</time></trkpt>
<trkpt lat="47.49745846" lon="-2.75763273"><ele></ele><time>2014-5-9T16:31:42Z</time></trkpt>
<trkpt lat="47.49743700" lon="-2.75782585"><ele></ele><time>2014-5-9T16:31:45Z</time></trkpt>
<trkpt lat="47.49747992" lon="-2.75827646"><ele></ele><time>2014-5-9T16:31:48Z</time></trkpt>
<trkpt lat="47.49754429" lon="-2.75892019"><ele></ele><time>2014-5-9T16:31:51Z</time></trkpt>
<trkpt lat="47.49763012" lon="-2.75949955"><ele></ele><time>2014-5-9T16:31:54Z</time></trkpt>
<trkpt lat="47.49767303" lon="-2.75956392"><ele></ele><time>2014-5-9T16:31:57Z</time></trkpt>
<trkpt lat="47.49769449" lon="-2.75967121"><ele></ele><time>2014-5-9T16:32:0Z</time></trkpt>
<trkpt lat="47.49769449" lon="-2.75971413"><ele></ele><time>2014-5-9T16:32:3Z</time></trkpt>
<trkpt lat="47.49769449" lon="-2.75997162"><ele></ele><time>2014-5-9T16:32:6Z</time></trkpt>
<trkpt lat="47.49771595" lon="-2.76040077"><ele></ele><time>2014-5-9T16:32:9Z</time></trkpt>
<trkpt lat="47.49773741" lon="-2.76091576"><ele></ele><time>2014-5-9T16:32:12Z</time></trkpt>
<trkpt lat="47.49775887" lon="-2.76132345"><ele></ele><time>2014-5-9T16:32:15Z</time></trkpt>
<trkpt lat="47.49773741" lon="-2.76192427"><ele></ele><time>2014-5-9T16:32:18Z</time></trkpt>
<trkpt lat="47.49778032" lon="-2.76246071"><ele></ele><time>2014-5-9T16:32:21Z</time></trkpt>
<trkpt lat="47.49782324" lon="-2.76301861"><ele></ele><time>2014-5-9T16:32:24Z</time></trkpt>
<trkpt lat="47.49782324" lon="-2.76361942"><ele></ele><time>2014-5-9T16:32:27Z</time></trkpt>
<trkpt lat="47.49782324" lon="-2.76366234"><ele></ele><time>2014-5-9T16:32:30Z</time></trkpt>
<trkpt lat="47.49786615" lon="-2.76370525"><ele></ele><time>2014-5-9T16:32:33Z</time></trkpt>
<trkpt lat="47.49786615" lon="-2.76404858"><ele></ele><time>2014-5-9T16:32:36Z</time></trkpt>
<trkpt lat="47.49788761" lon="-2.76458502"><ele></ele><time>2014-5-9T16:32:39Z</time></trkpt>
<trkpt lat="47.49790907" lon="-2.76507854"><ele></ele><time>2014-5-9T16:32:42Z</time></trkpt>
<trkpt lat="47.49790907" lon="-2.76510000"><ele></ele><time>2014-5-9T16:32:45Z</time></trkpt>
<trkpt lat="47.49786615" lon="-2.76529312"><ele></ele><time>2014-5-9T16:32:48Z</time></trkpt>
<trkpt lat="47.49784470" lon="-2.76542187"><ele></ele><time>2014-5-9T16:32:51Z</time></trkpt>
<trkpt lat="47.49788761" lon="-2.76625872"><ele></ele><time>2014-5-9T16:32:54Z</time></trkpt>
<trkpt lat="47.49790907" lon="-2.76692390"><ele></ele><time>2014-5-9T16:32:57Z</time></trkpt>
<trkpt lat="47.49790907" lon="-2.76741743"><ele></ele><time>2014-5-9T16:33:0Z</time></trkpt>
<trkpt lat="47.49788761" lon="-2.76763201"><ele></ele><time>2014-5-9T16:33:3Z</time></trkpt>
<trkpt lat="47.49775887" lon="-2.76765347"><ele></ele><time>2014-5-9T16:33:6Z</time></trkpt>
<trkpt lat="47.49763012" lon="-2.76767492"><ele></ele><time>2014-5-9T16:33:9Z</time></trkpt>
<trkpt lat="47.49750137" lon="-2.76793242"><ele></ele><time>2014-5-9T16:33:12Z</time></trkpt>
<trkpt lat="47.49752283" lon="-2.76846886"><ele></ele><time>2014-5-9T16:33:15Z</time></trkpt>
<trkpt lat="47.49750137" lon="-2.76915550"><ele></ele><time>2014-5-9T16:33:18Z</time></trkpt>
<trkpt lat="47.49743700" lon="-2.77001381"><ele></ele><time>2014-5-9T16:33:21Z</time></trkpt>
<trkpt lat="47.49739408" lon="-2.77076483"><ele></ele><time>2014-5-9T16:33:24Z</time></trkpt>
<trkpt lat="47.49728680" lon="-2.77153730"><ele></ele><time>2014-5-9T16:33:27Z</time></trkpt>
<trkpt lat="47.49711514" lon="-2.77211666"><ele></ele><time>2014-5-9T16:33:30Z</time></trkpt>
<trkpt lat="47.49698639" lon="-2.77256727"><ele></ele><time>2014-5-9T16:33:33Z</time></trkpt>
<trkpt lat="47.49687910" lon="-2.77297497"><ele></ele><time>2014-5-9T16:33:36Z</time></trkpt>
<trkpt lat="47.49681473" lon="-2.77336121"><ele></ele><time>2014-5-9T16:33:39Z</time></trkpt>
<trkpt lat="47.49672890" lon="-2.77372599"><ele></ele><time>2014-5-9T16:33:42Z</time></trkpt>
<trkpt lat="47.49666452" lon="-2.77430534"><ele></ele><time>2014-5-9T16:33:45Z</time></trkpt>
<trkpt lat="47.49657869" lon="-2.77497053"><ele></ele><time>2014-5-9T16:33:48Z</time></trkpt>
<trkpt lat="47.49649286" lon="-2.77557135"><ele></ele><time>2014-5-9T16:33:51Z</time></trkpt>
<trkpt lat="47.49634266" lon="-2.77634382"><ele></ele><time>2014-5-9T16:33:54Z</time></trkpt>
<trkpt lat="47.49623537" lon="-2.77690172"><ele></ele><time>2014-5-9T16:33:57Z</time></trkpt>
<trkpt lat="47.49604225" lon="-2.77767420"><ele></ele><time>2014-5-9T16:34:0Z</time></trkpt>
<trkpt lat="47.49584913" lon="-2.77840376"><ele></ele><time>2014-5-9T16:34:3Z</time></trkpt>
<trkpt lat="47.49565601" lon="-2.77911186"><ele></ele><time>2014-5-9T16:34:6Z</time></trkpt>
<trkpt lat="47.49548435" lon="-2.77979851"><ele></ele><time>2014-5-9T16:34:9Z</time></trkpt>
<trkpt lat="47.49526978" lon="-2.78044224"><ele></ele><time>2014-5-9T16:34:12Z</time></trkpt>
<trkpt lat="47.49501228" lon="-2.78110743"><ele></ele><time>2014-5-9T16:34:15Z</time></trkpt>
<trkpt lat="47.49469042" lon="-2.78185844"><ele></ele><time>2014-5-9T16:34:18Z</time></trkpt>
<trkpt lat="47.49441147" lon="-2.78243780"><ele></ele><time>2014-5-9T16:34:21Z</time></trkpt>
<trkpt lat="47.49406815" lon="-2.78310299"><ele></ele><time>2014-5-9T16:34:24Z</time></trkpt>
<trkpt lat="47.49381065" lon="-2.78361797"><ele></ele><time>2014-5-9T16:34:27Z</time></trkpt>
<trkpt lat="47.49357462" lon="-2.78409004"><ele></ele><time>2014-5-9T16:34:30Z</time></trkpt>
<trkpt lat="47.49325275" lon="-2.78466940"><ele></ele><time>2014-5-9T16:34:33Z</time></trkpt>
<trkpt lat="47.49288797" lon="-2.78529167"><ele></ele><time>2014-5-9T16:34:36Z</time></trkpt>
<trkpt lat="47.49260902" lon="-2.78582811"><ele></ele><time>2014-5-9T16:34:39Z</time></trkpt>
<trkpt lat="47.49228716" lon="-2.78642893"><ele></ele><time>2014-5-9T16:34:42Z</time></trkpt>
<trkpt lat="47.49207258" lon="-2.78692245"><ele></ele><time>2014-5-9T16:34:45Z</time></trkpt>
<trkpt lat="47.49179363" lon="-2.78705120"><ele></ele><time>2014-5-9T16:34:48Z</time></trkpt>
<trkpt lat="47.49140739" lon="-2.78726578"><ele></ele><time>2014-5-9T16:34:51Z</time></trkpt>
<trkpt lat="47.49136448" lon="-2.78728724"><ele></ele><time>2014-5-9T16:34:54Z</time></trkpt>
<trkpt lat="47.49121428" lon="-2.78748035"><ele></ele><time>2014-5-9T16:34:57Z</time></trkpt>
<trkpt lat="47.49114990" lon="-2.78758764"><ele></ele><time>2014-5-9T16:35:0Z</time></trkpt>
<trkpt lat="47.49102116" lon="-2.78836012"><ele></ele><time>2014-5-9T16:35:3Z</time></trkpt>
<trkpt lat="47.49082804" lon="-2.78958321"><ele></ele><time>2014-5-9T16:35:6Z</time></trkpt>
<trkpt lat="47.49069929" lon="-2.79020548"><ele></ele><time>2014-5-9T16:35:9Z</time></trkpt>
<trkpt lat="47.49067783" lon="-2.79039860"><ele></ele><time>2014-5-9T16:35:12Z</time></trkpt>
<trkpt lat="47.49039888" lon="-2.79166460"><ele></ele><time>2014-5-9T16:35:15Z</time></trkpt>
<trkpt lat="47.49033451" lon="-2.79190063"><ele></ele><time>2014-5-9T16:35:18Z</time></trkpt>
<trkpt lat="47.49014139" lon="-2.79202938"><ele></ele><time>2014-5-9T16:35:21Z</time></trkpt>
<trkpt lat="47.49009848" lon="-2.79198647"><ele></ele><time>2014-5-9T16:35:24Z</time></trkpt>
<trkpt lat="47.48956203" lon="-2.79140711"><ele></ele><time>2014-5-9T16:35:27Z</time></trkpt>
<trkpt lat="47.48936892" lon="-2.79153585"><ele></ele><time>2014-5-9T16:35:30Z</time></trkpt>
<trkpt lat="47.48917580" lon="-2.79172897"><ele></ele><time>2014-5-9T16:35:33Z</time></trkpt>
<trkpt lat="47.48904705" lon="-2.79192209"><ele></ele><time>2014-5-9T16:35:36Z</time></trkpt>
<trkpt lat="47.48874664" lon="-2.79243708"><ele></ele><time>2014-5-9T16:35:39Z</time></trkpt>
<trkpt lat="47.48842478" lon="-2.79260874"><ele></ele><time>2014-5-9T16:35:42Z</time></trkpt>
<trkpt lat="47.48773813" lon="-2.79303789"><ele></ele><time>2014-5-9T16:35:45Z</time></trkpt>
<trkpt lat="47.48713732" lon="-2.79312372"><ele></ele><time>2014-5-9T16:35:48Z</time></trkpt>
<trkpt lat="47.48683691" lon="-2.79312372"><ele></ele><time>2014-5-9T16:35:51Z</time></trkpt>
<trkpt lat="47.48662233" lon="-2.79310226"><ele></ele><time>2014-5-9T16:35:54Z</time></trkpt>
<trkpt lat="47.48647213" lon="-2.79303789"><ele></ele><time>2014-5-9T16:35:57Z</time></trkpt>
<trkpt lat="47.48627901" lon="-2.79267311"><ele></ele><time>2014-5-9T16:36:0Z</time></trkpt>
<trkpt lat="47.48623610" lon="-2.79252291"><ele></ele><time>2014-5-9T16:36:3Z</time></trkpt>
<trkpt lat="47.48604298" lon="-2.79228687"><ele></ele><time>2014-5-9T16:36:6Z</time></trkpt>
<trkpt lat="47.48574257" lon="-2.79222250"><ele></ele><time>2014-5-9T16:36:9Z</time></trkpt>
<trkpt lat="47.48537779" lon="-2.79241562"><ele></ele><time>2014-5-9T16:36:12Z</time></trkpt>
<trkpt lat="47.48516321" lon="-2.79263020"><ele></ele><time>2014-5-9T16:36:15Z</time></trkpt>
<trkpt lat="47.48490572" lon="-2.79280186"><ele></ele><time>2014-5-9T16:36:18Z</time></trkpt>
<trkpt lat="47.48456240" lon="-2.79316664"><ele></ele><time>2014-5-9T16:36:21Z</time></trkpt>
<trkpt lat="47.48441219" lon="-2.79355288"><ele></ele><time>2014-5-9T16:36:24Z</time></trkpt>
<trkpt lat="47.48428345" lon="-2.79391766"><ele></ele><time>2014-5-9T16:36:27Z</time></trkpt>
<trkpt lat="47.48428345" lon="-2.79391766"><ele></ele><time>2014-5-9T16:36:30Z</time></trkpt>
<trkpt lat="47.48428345" lon="-2.79391766"><ele></ele><time>2014-5-9T16:36:33Z</time></trkpt>
<trkpt lat="47.48441219" lon="-2.79419661"><ele></ele><time>2014-5-9T16:36:36Z</time></trkpt>
<trkpt lat="47.48460531" lon="-2.79428244"><ele></ele><time>2014-5-9T16:36:39Z</time></trkpt>
<trkpt lat="47.48479843" lon="-2.79421806"><ele></ele><time>2014-5-9T16:36:42Z</time></trkpt>
<trkpt lat="47.48503447" lon="-2.79419661"><ele></ele><time>2014-5-9T16:36:45Z</time></trkpt>
<trkpt lat="47.48516321" lon="-2.79462576"><ele></ele><time>2014-5-9T16:36:48Z</time></trkpt>
<trkpt lat="47.48522758" lon="-2.79473305"><ele></ele><time>2014-5-9T16:36:51Z</time></trkpt>
<trkpt lat="47.48537779" lon="-2.79529095"><ele></ele><time>2014-5-9T16:36:54Z</time></trkpt>
<trkpt lat="47.48546362" lon="-2.79602051"><ele></ele><time>2014-5-9T16:36:57Z</time></trkpt>
<trkpt lat="47.48552799" lon="-2.79668570"><ele></ele><time>2014-5-9T16:37:0Z</time></trkpt>
<trkpt lat="47.48554945" lon="-2.79679298"><ele></ele><time>2014-5-9T16:37:3Z</time></trkpt>
<trkpt lat="47.48554945" lon="-2.79700756"><ele></ele><time>2014-5-9T16:37:6Z</time></trkpt>
<trkpt lat="47.48559237" lon="-2.79732943"><ele></ele><time>2014-5-9T16:37:9Z</time></trkpt>
<trkpt lat="47.48580694" lon="-2.79758692"><ele></ele><time>2014-5-9T16:37:12Z</time></trkpt>
<trkpt lat="47.48615026" lon="-2.79771566"><ele></ele><time>2014-5-9T16:37:15Z</time></trkpt>
<trkpt lat="47.48647213" lon="-2.79805899"><ele></ele><time>2014-5-9T16:37:18Z</time></trkpt>
<trkpt lat="47.48666525" lon="-2.79853106"><ele></ele><time>2014-5-9T16:37:21Z</time></trkpt>
<trkpt lat="47.48683691" lon="-2.79881001"><ele></ele><time>2014-5-9T16:37:24Z</time></trkpt>
<trkpt lat="47.48707294" lon="-2.79900312"><ele></ele><time>2014-5-9T16:37:27Z</time></trkpt>
<trkpt lat="47.48743773" lon="-2.79915333"><ele></ele><time>2014-5-9T16:37:30Z</time></trkpt>
<trkpt lat="47.48752356" lon="-2.79917479"><ele></ele><time>2014-5-9T16:37:33Z</time></trkpt>
<trkpt lat="47.48808146" lon="-2.79902458"><ele></ele><time>2014-5-9T16:37:36Z</time></trkpt>
<trkpt lat="47.48818874" lon="-2.79902458"><ele></ele><time>2014-5-9T16:37:39Z</time></trkpt>
<trkpt lat="47.48883247" lon="-2.79932499"><ele></ele><time>2014-5-9T16:37:42Z</time></trkpt>
<trkpt lat="47.48915434" lon="-2.79960394"><ele></ele><time>2014-5-9T16:37:45Z</time></trkpt>
<trkpt lat="47.48934746" lon="-2.79971123"><ele></ele><time>2014-5-9T16:37:48Z</time></trkpt>
<trkpt lat="47.48932600" lon="-2.79981852"><ele></ele><time>2014-5-9T16:37:51Z</time></trkpt>
<trkpt lat="47.48939037" lon="-2.80022621"><ele></ele><time>2014-5-9T16:37:54Z</time></trkpt>
<trkpt lat="47.48964787" lon="-2.80078411"><ele></ele><time>2014-5-9T16:37:57Z</time></trkpt>
<trkpt lat="47.49003410" lon="-2.80099869"><ele></ele><time>2014-5-9T16:38:0Z</time></trkpt>
<trkpt lat="47.49050617" lon="-2.80093431"><ele></ele><time>2014-5-9T16:38:3Z</time></trkpt>
<trkpt lat="47.49099970" lon="-2.80067682"><ele></ele><time>2014-5-9T16:38:6Z</time></trkpt>
<trkpt lat="47.49142885" lon="-2.80041933"><ele></ele><time>2014-5-9T16:38:9Z</time></trkpt>
<trkpt lat="47.49202967" lon="-2.80018330"><ele></ele><time>2014-5-9T16:38:12Z</time></trkpt>
<trkpt lat="47.49241590" lon="-2.80007601"><ele></ele><time>2014-5-9T16:38:15Z</time></trkpt>
<trkpt lat="47.49271631" lon="-2.79996872"><ele></ele><time>2014-5-9T16:38:18Z</time></trkpt>
<trkpt lat="47.49303818" lon="-2.79977560"><ele></ele><time>2014-5-9T16:38:21Z</time></trkpt>
<trkpt lat="47.49325275" lon="-2.79971123"><ele></ele><time>2014-5-9T16:38:24Z</time></trkpt>
<trkpt lat="47.49366045" lon="-2.79958248"><ele></ele><time>2014-5-9T16:38:27Z</time></trkpt>
<trkpt lat="47.49398232" lon="-2.79941082"><ele></ele><time>2014-5-9T16:38:30Z</time></trkpt>
<trkpt lat="47.49419689" lon="-2.79953957"><ele></ele><time>2014-5-9T16:38:33Z</time></trkpt>
<trkpt lat="47.49449730" lon="-2.79979706"><ele></ele><time>2014-5-9T16:38:36Z</time></trkpt>
<trkpt lat="47.49484062" lon="-2.79979706"><ele></ele><time>2014-5-9T16:38:39Z</time></trkpt>
<trkpt lat="47.49518394" lon="-2.79973269"><ele></ele><time>2014-5-9T16:38:42Z</time></trkpt>
<trkpt lat="47.49559164" lon="-2.79953957"><ele></ele><time>2014-5-9T16:38:45Z</time></trkpt>
<trkpt lat="47.49608517" lon="-2.79926062"><ele></ele><time>2014-5-9T16:38:48Z</time></trkpt>
<trkpt lat="47.49649286" lon="-2.79889584"><ele></ele><time>2014-5-9T16:38:51Z</time></trkpt>
<trkpt lat="47.49700785" lon="-2.79848814"><ele></ele><time>2014-5-9T16:38:54Z</time></trkpt>
<trkpt lat="47.49756575" lon="-2.79810190"><ele></ele><time>2014-5-9T16:38:57Z</time></trkpt>
<trkpt lat="47.49801636" lon="-2.79780149"><ele></ele><time>2014-5-9T16:39:0Z</time></trkpt>
<trkpt lat="47.49844551" lon="-2.79771566"><ele></ele><time>2014-5-9T16:39:3Z</time></trkpt>
<trkpt lat="47.49883175" lon="-2.79752254"><ele></ele><time>2014-5-9T16:39:6Z</time></trkpt>
<trkpt lat="47.49926090" lon="-2.79724360"><ele></ele><time>2014-5-9T16:39:9Z</time></trkpt>
<trkpt lat="47.49979734" lon="-2.79720068"><ele></ele><time>2014-5-9T16:39:12Z</time></trkpt>
<trkpt lat="47.50014067" lon="-2.79758692"><ele></ele><time>2014-5-9T16:39:15Z</time></trkpt>
<trkpt lat="47.50063419" lon="-2.79790878"><ele></ele><time>2014-5-9T16:39:18Z</time></trkpt>
<trkpt lat="47.50140667" lon="-2.79820919"><ele></ele><time>2014-5-9T16:39:21Z</time></trkpt>
<trkpt lat="47.50202894" lon="-2.79823065"><ele></ele><time>2014-5-9T16:39:24Z</time></trkpt>
<trkpt lat="47.50282288" lon="-2.79833794"><ele></ele><time>2014-5-9T16:39:27Z</time></trkpt>
<trkpt lat="47.50342369" lon="-2.79855251"><ele></ele><time>2014-5-9T16:39:30Z</time></trkpt>
<trkpt lat="47.50361681" lon="-2.79859543"><ele></ele><time>2014-5-9T16:39:33Z</time></trkpt>
<trkpt lat="47.50411034" lon="-2.79850960"><ele></ele><time>2014-5-9T16:39:36Z</time></trkpt>
<trkpt lat="47.50421762" lon="-2.79838085"><ele></ele><time>2014-5-9T16:39:39Z</time></trkpt>
<trkpt lat="47.50417471" lon="-2.79790878"><ele></ele><time>2014-5-9T16:39:42Z</time></trkpt>
<trkpt lat="47.50417471" lon="-2.79737234"><ele></ele><time>2014-5-9T16:39:45Z</time></trkpt>
<trkpt lat="47.50415325" lon="-2.79705048"><ele></ele><time>2014-5-9T16:39:48Z</time></trkpt>
<trkpt lat="47.50426054" lon="-2.79687881"><ele></ele><time>2014-5-9T16:39:51Z</time></trkpt>
<trkpt lat="47.50464678" lon="-2.79687881"><ele></ele><time>2014-5-9T16:39:54Z</time></trkpt>
<trkpt lat="47.50518322" lon="-2.79664278"><ele></ele><time>2014-5-9T16:39:57Z</time></trkpt>
<trkpt lat="47.50569820" lon="-2.79664278"><ele></ele><time>2014-5-9T16:40:0Z</time></trkpt>
<trkpt lat="47.50610590" lon="-2.79668570"><ele></ele><time>2014-5-9T16:40:3Z</time></trkpt>
<trkpt lat="47.50627756" lon="-2.79664278"><ele></ele><time>2014-5-9T16:40:6Z</time></trkpt>
<trkpt lat="47.50642776" lon="-2.79657841"><ele></ele><time>2014-5-9T16:40:9Z</time></trkpt>
<trkpt lat="47.50694275" lon="-2.79679298"><ele></ele><time>2014-5-9T16:40:12Z</time></trkpt>
<trkpt lat="47.50765085" lon="-2.79739380"><ele></ele><time>2014-5-9T16:40:15Z</time></trkpt>
<trkpt lat="47.50827312" lon="-2.79786587"><ele></ele><time>2014-5-9T16:40:18Z</time></trkpt>
<trkpt lat="47.50891685" lon="-2.79848814"><ele></ele><time>2014-5-9T16:40:21Z</time></trkpt>
<trkpt lat="47.50902414" lon="-2.79859543"><ele></ele><time>2014-5-9T16:40:24Z</time></trkpt>
<trkpt lat="47.50975370" lon="-2.79900312"><ele></ele><time>2014-5-9T16:40:27Z</time></trkpt>
<trkpt lat="47.51011848" lon="-2.79917479"><ele></ele><time>2014-5-9T16:40:30Z</time></trkpt>
<trkpt lat="47.51026869" lon="-2.79934645"><ele></ele><time>2014-5-9T16:40:33Z</time></trkpt>
<trkpt lat="47.51063347" lon="-2.79988289"><ele></ele><time>2014-5-9T16:40:36Z</time></trkpt>
<trkpt lat="47.51078367" lon="-2.79983997"><ele></ele><time>2014-5-9T16:40:39Z</time></trkpt>
<trkpt lat="47.51091242" lon="-2.79975414"><ele></ele><time>2014-5-9T16:40:42Z</time></trkpt>
<trkpt lat="47.51127720" lon="-2.79951811"><ele></ele><time>2014-5-9T16:40:45Z</time></trkpt>
<trkpt lat="47.51159906" lon="-2.79908895"><ele></ele><time>2014-5-9T16:40:48Z</time></trkpt>
<trkpt lat="47.51219988" lon="-2.79893875"><ele></ele><time>2014-5-9T16:40:51Z</time></trkpt>
<trkpt lat="47.51277924" lon="-2.79896021"><ele></ele><time>2014-5-9T16:40:54Z</time></trkpt>
<trkpt lat="47.51344442" lon="-2.79917479"><ele></ele><time>2014-5-9T16:40:57Z</time></trkpt>
<trkpt lat="47.51357317" lon="-2.79921770"><ele></ele><time>2014-5-9T16:41:0Z</time></trkpt>
<trkpt lat="47.51359463" lon="-2.79921770"><ele></ele><time>2014-5-9T16:41:3Z</time></trkpt>
<trkpt lat="47.51370192" lon="-2.79921770"><ele></ele><time>2014-5-9T16:41:6Z</time></trkpt>
<trkpt lat="47.51430273" lon="-2.79943228"><ele></ele><time>2014-5-9T16:41:9Z</time></trkpt>
<trkpt lat="47.51490355" lon="-2.79966831"><ele></ele><time>2014-5-9T16:41:12Z</time></trkpt>
<trkpt lat="47.51563311" lon="-2.80022621"><ele></ele><time>2014-5-9T16:41:15Z</time></trkpt>
<trkpt lat="47.51599789" lon="-2.80041933"><ele></ele><time>2014-5-9T16:41:18Z</time></trkpt>
<trkpt lat="47.51629829" lon="-2.80033350"><ele></ele><time>2014-5-9T16:41:21Z</time></trkpt>
<trkpt lat="47.51702785" lon="-2.79975414"><ele></ele><time>2014-5-9T16:41:24Z</time></trkpt>
<trkpt lat="47.51713514" lon="-2.79968977"><ele></ele><time>2014-5-9T16:41:27Z</time></trkpt>
<trkpt lat="47.51754284" lon="-2.79971123"><ele></ele><time>2014-5-9T16:41:30Z</time></trkpt>
<trkpt lat="47.51816511" lon="-2.79975414"><ele></ele><time>2014-5-9T16:41:33Z</time></trkpt>
<trkpt lat="47.51868010" lon="-2.79949665"><ele></ele><time>2014-5-9T16:41:36Z</time></trkpt>
<trkpt lat="47.51906633" lon="-2.79917479"><ele></ele><time>2014-5-9T16:41:39Z</time></trkpt>
<trkpt lat="47.51962423" lon="-2.79902458"><ele></ele><time>2014-5-9T16:41:42Z</time></trkpt>
<trkpt lat="47.51975298" lon="-2.79870272"><ele></ele><time>2014-5-9T16:41:45Z</time></trkpt>
<trkpt lat="47.51973152" lon="-2.79863834"><ele></ele><time>2014-5-9T16:41:48Z</time></trkpt>
<trkpt lat="47.51971006" lon="-2.79842377"><ele></ele><time>2014-5-9T16:41:51Z</time></trkpt>
<trkpt lat="47.51977444" lon="-2.79788733"><ele></ele><time>2014-5-9T16:41:54Z</time></trkpt>
<trkpt lat="47.51996756" lon="-2.79762983"><ele></ele><time>2014-5-9T16:41:57Z</time></trkpt>
<trkpt lat="47.52065420" lon="-2.79715776"><ele></ele><time>2014-5-9T16:42:0Z</time></trkpt>
<trkpt lat="47.52157688" lon="-2.79657841"><ele></ele><time>2014-5-9T16:42:3Z</time></trkpt>
<trkpt lat="47.52237082" lon="-2.79584885"><ele></ele><time>2014-5-9T16:42:6Z</time></trkpt>
<trkpt lat="47.52320766" lon="-2.79484034"><ele></ele><time>2014-5-9T16:42:9Z</time></trkpt>
<trkpt lat="47.52365828" lon="-2.79423952"><ele></ele><time>2014-5-9T16:42:12Z</time></trkpt>
<trkpt lat="47.52406597" lon="-2.79402494"><ele></ele><time>2014-5-9T16:42:15Z</time></trkpt>
<trkpt lat="47.52417326" lon="-2.79372454"><ele></ele><time>2014-5-9T16:42:18Z</time></trkpt>
<trkpt lat="47.52402306" lon="-2.79284477"><ele></ele><time>2014-5-9T16:42:21Z</time></trkpt>
<trkpt lat="47.52395868" lon="-2.79250145"><ele></ele><time>2014-5-9T16:42:24Z</time></trkpt>
<trkpt lat="47.52382994" lon="-2.79151440"><ele></ele><time>2014-5-9T16:42:27Z</time></trkpt>
<trkpt lat="47.52367973" lon="-2.79052734"><ele></ele><time>2014-5-9T16:42:30Z</time></trkpt>
<trkpt lat="47.52361536" lon="-2.78996944"><ele></ele><time>2014-5-9T16:42:33Z</time></trkpt>
<trkpt lat="47.52367973" lon="-2.78964758"><ele></ele><time>2014-5-9T16:42:36Z</time></trkpt>
<trkpt lat="47.52376556" lon="-2.78939009"><ele></ele><time>2014-5-9T16:42:39Z</time></trkpt>
<trkpt lat="47.52408743" lon="-2.78887510"><ele></ele><time>2014-5-9T16:42:42Z</time></trkpt>
<trkpt lat="47.52408743" lon="-2.78885365"><ele></ele><time>2014-5-9T16:42:45Z</time></trkpt>
<trkpt lat="47.52415180" lon="-2.78866053"><ele></ele><time>2014-5-9T16:42:48Z</time></trkpt>
<trkpt lat="47.52415180" lon="-2.78823137"><ele></ele><time>2014-5-9T16:42:51Z</time></trkpt>
<trkpt lat="47.52417326" lon="-2.78823137"><ele></ele><time>2014-5-9T16:42:54Z</time></trkpt>
<trkpt lat="47.52425909" lon="-2.78765202"><ele></ele><time>2014-5-9T16:42:57Z</time></trkpt>
<trkpt lat="47.52434492" lon="-2.78743744"><ele></ele><time>2014-5-9T16:43:0Z</time></trkpt>
<trkpt lat="47.52443075" lon="-2.78694391"><ele></ele><time>2014-5-9T16:43:3Z</time></trkpt>
<trkpt lat="47.52447367" lon="-2.78621435"><ele></ele><time>2014-5-9T16:43:6Z</time></trkpt>
<trkpt lat="47.52460241" lon="-2.78524876"><ele></ele><time>2014-5-9T16:43:9Z</time></trkpt>
<trkpt lat="47.52485991" lon="-2.78439045"><ele></ele><time>2014-5-9T16:43:12Z</time></trkpt>
<trkpt lat="47.52513885" lon="-2.78389692"><ele></ele><time>2014-5-9T16:43:15Z</time></trkpt>
<trkpt lat="47.52533197" lon="-2.78372526"><ele></ele><time>2014-5-9T16:43:18Z</time></trkpt>
<trkpt lat="47.52539635" lon="-2.78366089"><ele></ele><time>2014-5-9T16:43:21Z</time></trkpt>
<trkpt lat="47.52558947" lon="-2.78316736"><ele></ele><time>2014-5-9T16:43:24Z</time></trkpt>
<trkpt lat="47.52558947" lon="-2.78303862"><ele></ele><time>2014-5-9T16:43:27Z</time></trkpt>
<trkpt lat="47.52552509" lon="-2.78172970"><ele></ele><time>2014-5-9T16:43:30Z</time></trkpt>
<trkpt lat="47.52548218" lon="-2.78052807"><ele></ele><time>2014-5-9T16:43:33Z</time></trkpt>
<trkpt lat="47.52541780" lon="-2.77898312"><ele></ele><time>2014-5-9T16:43:36Z</time></trkpt>
<trkpt lat="47.52537489" lon="-2.77763128"><ele></ele><time>2014-5-9T16:43:39Z</time></trkpt>
<trkpt lat="47.52537489" lon="-2.77754545"><ele></ele><time>2014-5-9T16:43:42Z</time></trkpt>
<trkpt lat="47.52563238" lon="-2.77600050"><ele></ele><time>2014-5-9T16:43:45Z</time></trkpt>
<trkpt lat="47.52586842" lon="-2.77458429"><ele></ele><time>2014-5-9T16:43:48Z</time></trkpt>
<trkpt lat="47.52608299" lon="-2.77316809"><ele></ele><time>2014-5-9T16:43:51Z</time></trkpt>
<trkpt lat="47.52610445" lon="-2.77310371"><ele></ele><time>2014-5-9T16:43:54Z</time></trkpt>
<trkpt lat="47.52606153" lon="-2.77288914"><ele></ele><time>2014-5-9T16:43:57Z</time></trkpt>
<trkpt lat="47.52604008" lon="-2.77284622"><ele></ele><time>2014-5-9T16:44:0Z</time></trkpt>
<trkpt lat="47.52616882" lon="-2.77250290"><ele></ele><time>2014-5-9T16:44:3Z</time></trkpt>
<trkpt lat="47.52619028" lon="-2.77243853"><ele></ele><time>2014-5-9T16:44:6Z</time></trkpt>
<trkpt lat="47.52644777" lon="-2.77123690"><ele></ele><time>2014-5-9T16:44:9Z</time></trkpt>
<trkpt lat="47.52651215" lon="-2.77100086"><ele></ele><time>2014-5-9T16:44:12Z</time></trkpt>
<trkpt lat="47.52659798" lon="-2.77050734"><ele></ele><time>2014-5-9T16:44:15Z</time></trkpt>
<trkpt lat="47.52674818" lon="-2.76962757"><ele></ele><time>2014-5-9T16:44:18Z</time></trkpt>
<trkpt lat="47.52683401" lon="-2.76949883"><ele></ele><time>2014-5-9T16:44:21Z</time></trkpt>
<trkpt lat="47.52713442" lon="-2.76928425"><ele></ele><time>2014-5-9T16:44:24Z</time></trkpt>
<trkpt lat="47.52734900" lon="-2.76898384"><ele></ele><time>2014-5-9T16:44:27Z</time></trkpt>
<trkpt lat="47.52754211" lon="-2.76909113"><ele></ele><time>2014-5-9T16:44:30Z</time></trkpt>
<trkpt lat="47.52754211" lon="-2.76919842"><ele></ele><time>2014-5-9T16:44:33Z</time></trkpt>
<trkpt lat="47.52752066" lon="-2.76930571"><ele></ele><time>2014-5-9T16:44:36Z</time></trkpt>
<trkpt lat="47.52752066" lon="-2.76930571"><ele></ele><time>2014-5-9T16:44:39Z</time></trkpt>
<trkpt lat="47.52305746" lon="-2.77608633"><ele></ele><time>2014-5-9T16:44:42Z</time></trkpt>
<trkpt lat="47.52226353" lon="-2.77664423"><ele></ele><time>2014-5-9T16:44:45Z</time></trkpt>
<trkpt lat="47.52187729" lon="-2.77730942"><ele></ele><time>2014-5-9T16:44:48Z</time></trkpt>
<trkpt lat="47.52179146" lon="-2.77756691"><ele></ele><time>2014-5-9T16:44:51Z</time></trkpt>
<trkpt lat="47.52127647" lon="-2.77887583"><ele></ele><time>2014-5-9T16:44:54Z</time></trkpt>
<trkpt lat="47.52164125" lon="-2.77608633"><ele></ele><time>2014-5-9T16:44:57Z</time></trkpt>
<trkpt lat="47.52166271" lon="-2.77531385"><ele></ele><time>2014-5-9T16:45:0Z</time></trkpt>
<trkpt lat="47.52181292" lon="-2.77321100"><ele></ele><time>2014-5-9T16:45:3Z</time></trkpt>
<trkpt lat="47.52200603" lon="-2.76958466"><ele></ele><time>2014-5-9T16:45:6Z</time></trkpt>
<trkpt lat="47.52202749" lon="-2.76816845"><ele></ele><time>2014-5-9T16:45:9Z</time></trkpt>
<trkpt lat="47.52202749" lon="-2.76803970"><ele></ele><time>2014-5-9T16:45:12Z</time></trkpt>
<trkpt lat="47.52168417" lon="-2.76758909"><ele></ele><time>2014-5-9T16:45:15Z</time></trkpt>
<trkpt lat="47.52149105" lon="-2.76756763"><ele></ele><time>2014-5-9T16:45:18Z</time></trkpt>
<trkpt lat="47.51998901" lon="-2.76761055"><ele></ele><time>2014-5-9T16:45:21Z</time></trkpt>
<trkpt lat="47.51964569" lon="-2.76776075"><ele></ele><time>2014-5-9T16:45:24Z</time></trkpt>
<trkpt lat="47.51784325" lon="-2.76883364"><ele></ele><time>2014-5-9T16:45:27Z</time></trkpt>
<trkpt lat="47.51752138" lon="-2.76874781"><ele></ele><time>2014-5-9T16:45:30Z</time></trkpt>
<trkpt lat="47.51606226" lon="-2.76643038"><ele></ele><time>2014-5-9T16:45:33Z</time></trkpt>
<trkpt lat="47.51559019" lon="-2.76625872"><ele></ele><time>2014-5-9T16:45:36Z</time></trkpt>
<trkpt lat="47.51488209" lon="-2.76636600"><ele></ele><time>2014-5-9T16:45:39Z</time></trkpt>
<trkpt lat="47.51372337" lon="-2.76645184"><ele></ele><time>2014-5-9T16:45:42Z</time></trkpt>
<trkpt lat="47.51297235" lon="-2.76673079"><ele></ele><time>2014-5-9T16:45:45Z</time></trkpt>
<trkpt lat="47.51239300" lon="-2.76746035"><ele></ele><time>2014-5-9T16:45:48Z</time></trkpt>
<trkpt lat="47.51164198" lon="-2.76913404"><ele></ele><time>2014-5-9T16:45:51Z</time></trkpt>
<trkpt lat="47.51054764" lon="-2.77020693"><ele></ele><time>2014-5-9T16:45:54Z</time></trkpt>
<trkpt lat="47.50861645" lon="-2.77196646"><ele></ele><time>2014-5-9T16:45:57Z</time></trkpt>
<trkpt lat="47.50743628" lon="-2.77198792"><ele></ele><time>2014-5-9T16:46:0Z</time></trkpt>
<trkpt lat="47.50672817" lon="-2.77196646"><ele></ele><time>2014-5-9T16:46:3Z</time></trkpt>
<trkpt lat="47.50537634" lon="-2.77224541"><ele></ele><time>2014-5-9T16:46:6Z</time></trkpt>
<trkpt lat="47.50490427" lon="-2.77263165"><ele></ele><time>2014-5-9T16:46:9Z</time></trkpt>
<trkpt lat="47.50400305" lon="-2.77273893"><ele></ele><time>2014-5-9T16:46:12Z</time></trkpt>
<trkpt lat="47.50389576" lon="-2.77273893"><ele></ele><time>2014-5-9T16:46:15Z</time></trkpt>
<trkpt lat="47.50305891" lon="-2.77235270"><ele></ele><time>2014-5-9T16:46:18Z</time></trkpt>
<trkpt lat="47.50271559" lon="-2.77205229"><ele></ele><time>2014-5-9T16:46:21Z</time></trkpt>
<trkpt lat="47.50256538" lon="-2.77190208"><ele></ele><time>2014-5-9T16:46:24Z</time></trkpt>
<trkpt lat="47.50256538" lon="-2.77183771"><ele></ele><time>2014-5-9T16:46:27Z</time></trkpt>
<trkpt lat="47.50232935" lon="-2.77177334"><ele></ele><time>2014-5-9T16:46:30Z</time></trkpt>
<trkpt lat="47.50215769" lon="-2.77173042"><ele></ele><time>2014-5-9T16:46:33Z</time></trkpt>
<trkpt lat="47.50207186" lon="-2.77134418"><ele></ele><time>2014-5-9T16:46:36Z</time></trkpt>
<trkpt lat="47.50192165" lon="-2.77078629"><ele></ele><time>2014-5-9T16:46:39Z</time></trkpt>
<trkpt lat="47.50134230" lon="-2.76994944"><ele></ele><time>2014-5-9T16:46:42Z</time></trkpt>
<trkpt lat="47.50108480" lon="-2.76891947"><ele></ele><time>2014-5-9T16:46:45Z</time></trkpt>
<trkpt lat="47.50089169" lon="-2.76814699"><ele></ele><time>2014-5-9T16:46:48Z</time></trkpt>
<trkpt lat="47.50076294" lon="-2.76788950"><ele></ele><time>2014-5-9T16:46:51Z</time></trkpt>
<trkpt lat="47.50007629" lon="-2.76720285"><ele></ele><time>2014-5-9T16:46:54Z</time></trkpt>
<trkpt lat="47.49953985" lon="-2.76677370"><ele></ele><time>2014-5-9T16:46:57Z</time></trkpt>
<trkpt lat="47.49902487" lon="-2.76679516"><ele></ele><time>2014-5-9T16:47:0Z</time></trkpt>
<trkpt lat="47.49814510" lon="-2.76756763"><ele></ele><time>2014-5-9T16:47:3Z</time></trkpt>
<trkpt lat="47.49810219" lon="-2.76763201"><ele></ele><time>2014-5-9T16:47:6Z</time></trkpt>
<trkpt lat="47.49790907" lon="-2.76801825"><ele></ele><time>2014-5-9T16:47:9Z</time></trkpt>
<trkpt lat="47.49786615" lon="-2.76806116"><ele></ele><time>2014-5-9T16:47:12Z</time></trkpt>
<trkpt lat="47.49782324" lon="-2.76808262"><ele></ele><time>2014-5-9T16:47:15Z</time></trkpt>
<trkpt lat="47.49782324" lon="-2.76803970"><ele></ele><time>2014-5-9T16:47:18Z</time></trkpt>
<trkpt lat="47.49784470" lon="-2.76803970"><ele></ele><time>2014-5-9T16:47:21Z</time></trkpt>
<trkpt lat="47.49782324" lon="-2.76799679"><ele></ele><time>2014-5-9T16:47:24Z</time></trkpt>
<trkpt lat="47.49780178" lon="-2.76799679"><ele></ele><time>2014-5-9T16:47:27Z</time></trkpt>
<trkpt lat="47.49780178" lon="-2.76801825"><ele></ele><time>2014-5-9T16:47:30Z</time></trkpt>
<trkpt lat="47.49780178" lon="-2.76799679"><ele></ele><time>2014-5-9T16:47:33Z</time></trkpt>
<trkpt lat="47.49778032" lon="-2.76795387"><ele></ele><time>2014-5-9T16:47:36Z</time></trkpt>
<trkpt lat="47.49782324" lon="-2.76786804"><ele></ele><time>2014-5-9T16:47:39Z</time></trkpt>
<trkpt lat="47.49782324" lon="-2.76746035"><ele></ele><time>2014-5-9T16:47:42Z</time></trkpt>
<trkpt lat="47.49782324" lon="-2.76703119"><ele></ele><time>2014-5-9T16:47:45Z</time></trkpt>
<trkpt lat="47.49784470" lon="-2.76640892"><ele></ele><time>2014-5-9T16:47:48Z</time></trkpt>
<trkpt lat="47.49784470" lon="-2.76602268"><ele></ele><time>2014-5-9T16:47:51Z</time></trkpt>
<trkpt lat="47.49782324" lon="-2.76567936"><ele></ele><time>2014-5-9T16:47:54Z</time></trkpt>
<trkpt lat="47.49782324" lon="-2.76529312"><ele></ele><time>2014-5-9T16:47:57Z</time></trkpt>
<trkpt lat="47.49790907" lon="-2.76516438"><ele></ele><time>2014-5-9T16:48:0Z</time></trkpt>
<trkpt lat="47.49793053" lon="-2.76488543"><ele></ele><time>2014-5-9T16:48:3Z</time></trkpt>
<trkpt lat="47.49788761" lon="-2.76475668"><ele></ele><time>2014-5-9T16:48:6Z</time></trkpt>
<trkpt lat="47.49790907" lon="-2.76452065"><ele></ele><time>2014-5-9T16:48:9Z</time></trkpt>
<trkpt lat="47.49790907" lon="-2.76434898"><ele></ele><time>2014-5-9T16:48:12Z</time></trkpt>
<trkpt lat="47.49793053" lon="-2.76387691"><ele></ele><time>2014-5-9T16:48:15Z</time></trkpt>
<trkpt lat="47.49790907" lon="-2.76344776"><ele></ele><time>2014-5-9T16:48:18Z</time></trkpt>
<trkpt lat="47.49788761" lon="-2.76308298"><ele></ele><time>2014-5-9T16:48:21Z</time></trkpt>
<trkpt lat="47.49782324" lon="-2.76276112"><ele></ele><time>2014-5-9T16:48:24Z</time></trkpt>
<trkpt lat="47.49778032" lon="-2.76246071"><ele></ele><time>2014-5-9T16:48:27Z</time></trkpt>
<trkpt lat="47.49778032" lon="-2.76205301"><ele></ele><time>2014-5-9T16:48:30Z</time></trkpt>
<trkpt lat="47.49778032" lon="-2.76168823"><ele></ele><time>2014-5-9T16:48:33Z</time></trkpt>
<trkpt lat="47.49778032" lon="-2.76125908"><ele></ele><time>2014-5-9T16:48:36Z</time></trkpt>
<trkpt lat="47.49778032" lon="-2.76091576"><ele></ele><time>2014-5-9T16:48:39Z</time></trkpt>
<trkpt lat="47.49771595" lon="-2.76052952"><ele></ele><time>2014-5-9T16:48:42Z</time></trkpt>
<trkpt lat="47.49769449" lon="-2.76010036"><ele></ele><time>2014-5-9T16:48:45Z</time></trkpt>
<trkpt lat="47.49765158" lon="-2.75975704"><ele></ele><time>2014-5-9T16:48:48Z</time></trkpt>
<trkpt lat="47.49758720" lon="-2.75937080"><ele></ele><time>2014-5-9T16:48:51Z</time></trkpt>
<trkpt lat="47.49750137" lon="-2.75900602"><ele></ele><time>2014-5-9T16:48:54Z</time></trkpt>
<trkpt lat="47.49752283" lon="-2.75896311"><ele></ele><time>2014-5-9T16:48:57Z</time></trkpt>
<trkpt lat="47.49752283" lon="-2.75889874"><ele></ele><time>2014-5-9T16:49:0Z</time></trkpt>
<trkpt lat="47.49750137" lon="-2.75870562"><ele></ele><time>2014-5-9T16:49:3Z</time></trkpt>
<trkpt lat="47.49750137" lon="-2.75855541"><ele></ele><time>2014-5-9T16:49:6Z</time></trkpt>
<trkpt lat="47.49750137" lon="-2.75831938"><ele></ele><time>2014-5-9T16:49:9Z</time></trkpt>
<trkpt lat="47.49747992" lon="-2.75804043"><ele></ele><time>2014-5-9T16:49:12Z</time></trkpt>
<trkpt lat="47.49743700" lon="-2.75765419"><ele></ele><time>2014-5-9T16:49:15Z</time></trkpt>
<trkpt lat="47.49747992" lon="-2.75741816"><ele></ele><time>2014-5-9T16:49:18Z</time></trkpt>
<trkpt lat="47.49741554" lon="-2.75718212"><ele></ele><time>2014-5-9T16:49:21Z</time></trkpt>
<trkpt lat="47.49745846" lon="-2.75688171"><ele></ele><time>2014-5-9T16:49:24Z</time></trkpt>
<trkpt lat="47.49750137" lon="-2.75666714"><ele></ele><time>2014-5-9T16:49:27Z</time></trkpt>
<trkpt lat="47.49756575" lon="-2.75647402"><ele></ele><time>2014-5-9T16:49:30Z</time></trkpt>
<trkpt lat="47.49763012" lon="-2.75617361"><ele></ele><time>2014-5-9T16:49:33Z</time></trkpt>
<trkpt lat="47.49778032" lon="-2.75602341"><ele></ele><time>2014-5-9T16:49:36Z</time></trkpt>
<trkpt lat="47.49795198" lon="-2.75576591"><ele></ele><time>2014-5-9T16:49:39Z</time></trkpt>
<trkpt lat="47.49803782" lon="-2.75561571"><ele></ele><time>2014-5-9T16:49:42Z</time></trkpt>
<trkpt lat="47.49818802" lon="-2.75535822"><ele></ele><time>2014-5-9T16:49:45Z</time></trkpt>
<trkpt lat="47.49827385" lon="-2.75516510"><ele></ele><time>2014-5-9T16:49:48Z</time></trkpt>
<trkpt lat="47.49827385" lon="-2.75512218"><ele></ele><time>2014-5-9T16:49:51Z</time></trkpt>
<trkpt lat="47.49835968" lon="-2.75501490"><ele></ele><time>2014-5-9T16:49:54Z</time></trkpt>
<trkpt lat="47.49838114" lon="-2.75497198"><ele></ele><time>2014-5-9T16:49:57Z</time></trkpt>
<trkpt lat="47.49848843" lon="-2.75462866"><ele></ele><time>2014-5-9T16:50:0Z</time></trkpt>
<trkpt lat="47.49857426" lon="-2.75419950"><ele></ele><time>2014-5-9T16:50:3Z</time></trkpt>
<trkpt lat="47.49859571" lon="-2.75379181"><ele></ele><time>2014-5-9T16:50:6Z</time></trkpt>
<trkpt lat="47.49870300" lon="-2.75344849"><ele></ele><time>2014-5-9T16:50:9Z</time></trkpt>
<trkpt lat="47.49893904" lon="-2.75301933"><ele></ele><time>2014-5-9T16:50:12Z</time></trkpt>
<trkpt lat="47.49885321" lon="-2.75271893"><ele></ele><time>2014-5-9T16:50:15Z</time></trkpt>
<trkpt lat="47.49872446" lon="-2.75224686"><ele></ele><time>2014-5-9T16:50:18Z</time></trkpt>
<trkpt lat="47.49876738" lon="-2.75177479"><ele></ele><time>2014-5-9T16:50:21Z</time></trkpt>
<trkpt lat="47.49891758" lon="-2.75108814"><ele></ele><time>2014-5-9T16:50:24Z</time></trkpt>
<trkpt lat="47.49900341" lon="-2.75044441"><ele></ele><time>2014-5-9T16:50:27Z</time></trkpt>
<trkpt lat="47.49900341" lon="-2.74945736"><ele></ele><time>2014-5-9T16:50:30Z</time></trkpt>
<trkpt lat="47.49893904" lon="-2.74947882"><ele></ele><time>2014-5-9T16:50:33Z</time></trkpt>
<trkpt lat="47.49908924" lon="-2.74941444"><ele></ele><time>2014-5-9T16:50:36Z</time></trkpt>
<trkpt lat="47.49928236" lon="-2.74928570"><ele></ele><time>2014-5-9T16:50:39Z</time></trkpt>
<trkpt lat="47.49958277" lon="-2.74896383"><ele></ele><time>2014-5-9T16:50:42Z</time></trkpt>
<trkpt lat="47.49947548" lon="-2.74786949"><ele></ele><time>2014-5-9T16:50:45Z</time></trkpt>
<trkpt lat="47.49945402" lon="-2.74774075"><ele></ele><time>2014-5-9T16:50:48Z</time></trkpt>
<trkpt lat="47.49934673" lon="-2.74769783"><ele></ele><time>2014-5-9T16:50:51Z</time></trkpt>
<trkpt lat="47.49932528" lon="-2.74769783"><ele></ele><time>2014-5-9T16:50:54Z</time></trkpt>
<trkpt lat="47.49932528" lon="-2.74767637"><ele></ele><time>2014-5-9T16:50:57Z</time></trkpt>
<trkpt lat="47.49932528" lon="-2.74765491"><ele></ele><time>2014-5-9T16:51:0Z</time></trkpt>
<trkpt lat="47.49938965" lon="-2.74774075"><ele></ele><time>2014-5-9T16:51:3Z</time></trkpt>
<trkpt lat="47.49941111" lon="-2.74791241"><ele></ele><time>2014-5-9T16:51:6Z</time></trkpt>
<trkpt lat="47.49934673" lon="-2.74806261"><ele></ele><time>2014-5-9T16:51:9Z</time></trkpt>
<trkpt lat="47.49928236" lon="-2.74844885"><ele></ele><time>2014-5-9T16:51:12Z</time></trkpt>
<trkpt lat="47.49923944" lon="-2.74859905"><ele></ele><time>2014-5-9T16:51:15Z</time></trkpt>
<trkpt lat="47.49917507" lon="-2.74900675"><ele></ele><time>2014-5-9T16:51:18Z</time></trkpt>
<trkpt lat="47.49902487" lon="-2.74943590"><ele></ele><time>2014-5-9T16:51:21Z</time></trkpt>
<trkpt lat="47.49893904" lon="-2.74971485"><ele></ele><time>2014-5-9T16:51:24Z</time></trkpt>
<trkpt lat="47.49876738" lon="-2.75027275"><ele></ele><time>2014-5-9T16:51:27Z</time></trkpt>
<trkpt lat="47.49872446" lon="-2.75063753"><ele></ele><time>2014-5-9T16:51:30Z</time></trkpt>
<trkpt lat="47.49874592" lon="-2.75100231"><ele></ele><time>2014-5-9T16:51:33Z</time></trkpt>
<trkpt lat="47.49870300" lon="-2.75138855"><ele></ele><time>2014-5-9T16:51:36Z</time></trkpt>
<trkpt lat="47.49866009" lon="-2.75181770"><ele></ele><time>2014-5-9T16:51:39Z</time></trkpt>
<trkpt lat="47.49863863" lon="-2.75198936"><ele></ele><time>2014-5-9T16:51:42Z</time></trkpt>
<trkpt lat="47.49861717" lon="-2.75205374"><ele></ele><time>2014-5-9T16:51:45Z</time></trkpt>
<trkpt lat="47.49859571" lon="-2.75235415"><ele></ele><time>2014-5-9T16:51:48Z</time></trkpt>
<trkpt lat="47.49857426" lon="-2.75243998"><ele></ele><time>2014-5-9T16:51:51Z</time></trkpt>
<trkpt lat="47.49861717" lon="-2.75276184"><ele></ele><time>2014-5-9T16:51:54Z</time></trkpt>
<trkpt lat="47.49868155" lon="-2.75321245"><ele></ele><time>2014-5-9T16:51:57Z</time></trkpt>
<trkpt lat="47.49861717" lon="-2.75357723"><ele></ele><time>2014-5-9T16:52:0Z</time></trkpt>
<trkpt lat="47.49857426" lon="-2.75394201"><ele></ele><time>2014-5-9T16:52:3Z</time></trkpt>
<trkpt lat="47.49850988" lon="-2.75428534"><ele></ele><time>2014-5-9T16:52:6Z</time></trkpt>
<trkpt lat="47.49844551" lon="-2.75454283"><ele></ele><time>2014-5-9T16:52:9Z</time></trkpt>
<trkpt lat="47.49835968" lon="-2.75471449"><ele></ele><time>2014-5-9T16:52:12Z</time></trkpt>
<trkpt lat="47.49831676" lon="-2.75484324"><ele></ele><time>2014-5-9T16:52:15Z</time></trkpt>
<trkpt lat="47.49823093" lon="-2.75505781"><ele></ele><time>2014-5-9T16:52:18Z</time></trkpt>
<trkpt lat="47.49818802" lon="-2.75516510"><ele></ele><time>2014-5-9T16:52:21Z</time></trkpt>
<trkpt lat="47.49808073" lon="-2.75542259"><ele></ele><time>2014-5-9T16:52:24Z</time></trkpt>
<trkpt lat="47.49797344" lon="-2.75559425"><ele></ele><time>2014-5-9T16:52:27Z</time></trkpt>
<trkpt lat="47.49786615" lon="-2.75583029"><ele></ele><time>2014-5-9T16:52:30Z</time></trkpt>
<trkpt lat="47.49775887" lon="-2.75602341"><ele></ele><time>2014-5-9T16:52:33Z</time></trkpt>
<trkpt lat="47.49769449" lon="-2.75615215"><ele></ele><time>2014-5-9T16:52:36Z</time></trkpt>
<trkpt lat="47.49758720" lon="-2.75636673"><ele></ele><time>2014-5-9T16:52:39Z</time></trkpt>
<trkpt lat="47.49754429" lon="-2.75658131"><ele></ele><time>2014-5-9T16:52:42Z</time></trkpt>
<trkpt lat="47.49754429" lon="-2.75673151"><ele></ele><time>2014-5-9T16:52:45Z</time></trkpt>
<trkpt lat="47.49747992" lon="-2.75686026"><ele></ele><time>2014-5-9T16:52:48Z</time></trkpt>
<trkpt lat="47.49743700" lon="-2.75707483"><ele></ele><time>2014-5-9T16:52:51Z</time></trkpt>
<trkpt lat="47.49743700" lon="-2.75728941"><ele></ele><time>2014-5-9T16:52:54Z</time></trkpt>
<trkpt lat="47.49743700" lon="-2.75743961"><ele></ele><time>2014-5-9T16:52:57Z</time></trkpt>
<trkpt lat="47.49745846" lon="-2.75746107"><ele></ele><time>2014-5-9T16:53:0Z</time></trkpt>
<trkpt lat="47.49747992" lon="-2.75746107"><ele></ele><time>2014-5-9T16:53:3Z</time></trkpt>
<trkpt lat="47.49750137" lon="-2.75756836"><ele></ele><time>2014-5-9T16:53:6Z</time></trkpt>
<trkpt lat="47.49750137" lon="-2.75756836"><ele></ele><time>2014-5-9T16:53:9Z</time></trkpt>
<trkpt lat="47.49747992" lon="-2.75782585"><ele></ele><time>2014-5-9T16:53:12Z</time></trkpt>
<trkpt lat="47.49750137" lon="-2.75810480"><ele></ele><time>2014-5-9T16:53:15Z</time></trkpt>
<trkpt lat="47.49752283" lon="-2.75819063"><ele></ele><time>2014-5-9T16:53:18Z</time></trkpt>
<trkpt lat="47.49752283" lon="-2.75827646"><ele></ele><time>2014-5-9T16:53:21Z</time></trkpt>
<trkpt lat="47.49754429" lon="-2.75857687"><ele></ele><time>2014-5-9T16:53:24Z</time></trkpt>
<trkpt lat="47.49756575" lon="-2.75883436"><ele></ele><time>2014-5-9T16:53:27Z</time></trkpt>
<trkpt lat="47.49760866" lon="-2.75911331"><ele></ele><time>2014-5-9T16:53:30Z</time></trkpt>
<trkpt lat="47.49763012" lon="-2.75937080"><ele></ele><time>2014-5-9T16:53:33Z</time></trkpt>
<trkpt lat="47.49769449" lon="-2.75958538"><ele></ele><time>2014-5-9T16:53:36Z</time></trkpt>
<trkpt lat="47.49769449" lon="-2.75973558"><ele></ele><time>2014-5-9T16:53:39Z</time></trkpt>
<trkpt lat="47.49767303" lon="-2.75975704"><ele></ele><time>2014-5-9T16:53:42Z</time></trkpt>
<trkpt lat="47.49769449" lon="-2.75999308"><ele></ele><time>2014-5-9T16:53:45Z</time></trkpt>
<trkpt lat="47.49771595" lon="-2.76025057"><ele></ele><time>2014-5-9T16:53:48Z</time></trkpt>
<trkpt lat="47.49771595" lon="-2.76052952"><ele></ele><time>2014-5-9T16:53:51Z</time></trkpt>
<trkpt lat="47.49773741" lon="-2.76074409"><ele></ele><time>2014-5-9T16:53:54Z</time></trkpt>
<trkpt lat="47.49773741" lon="-2.76085138"><ele></ele><time>2014-5-9T16:53:57Z</time></trkpt>
<trkpt lat="47.49773741" lon="-2.76106596"><ele></ele><time>2014-5-9T16:54:0Z</time></trkpt>
<trkpt lat="47.49775887" lon="-2.76134491"><ele></ele><time>2014-5-9T16:54:3Z</time></trkpt>
<trkpt lat="47.49773741" lon="-2.76158094"><ele></ele><time>2014-5-9T16:54:6Z</time></trkpt>
<trkpt lat="47.49771595" lon="-2.76164532"><ele></ele><time>2014-5-9T16:54:9Z</time></trkpt>
<trkpt lat="47.49769449" lon="-2.76190281"><ele></ele><time>2014-5-9T16:54:12Z</time></trkpt>
<trkpt lat="47.49769449" lon="-2.76213884"><ele></ele><time>2014-5-9T16:54:15Z</time></trkpt>
<trkpt lat="47.49771595" lon="-2.76237488"><ele></ele><time>2014-5-9T16:54:18Z</time></trkpt>
<trkpt lat="47.49775887" lon="-2.76263237"><ele></ele><time>2014-5-9T16:54:21Z</time></trkpt>
<trkpt lat="47.49778032" lon="-2.76286840"><ele></ele><time>2014-5-9T16:54:24Z</time></trkpt>
<trkpt lat="47.49780178" lon="-2.76308298"><ele></ele><time>2014-5-9T16:54:27Z</time></trkpt>
<trkpt lat="47.49780178" lon="-2.76334047"><ele></ele><time>2014-5-9T16:54:30Z</time></trkpt>
<trkpt lat="47.49782324" lon="-2.76346922"><ele></ele><time>2014-5-9T16:54:33Z</time></trkpt>
<trkpt lat="47.49786615" lon="-2.76357651"><ele></ele><time>2014-5-9T16:54:36Z</time></trkpt>
<trkpt lat="47.49786615" lon="-2.76366234"><ele></ele><time>2014-5-9T16:54:39Z</time></trkpt>
<trkpt lat="47.49788761" lon="-2.76370525"><ele></ele><time>2014-5-9T16:54:42Z</time></trkpt>
<trkpt lat="47.49788761" lon="-2.76396275"><ele></ele><time>2014-5-9T16:54:45Z</time></trkpt>
<trkpt lat="47.49790907" lon="-2.76413441"><ele></ele><time>2014-5-9T16:54:48Z</time></trkpt>
<trkpt lat="47.49790907" lon="-2.76439190"><ele></ele><time>2014-5-9T16:54:51Z</time></trkpt>
<trkpt lat="47.49790907" lon="-2.76460648"><ele></ele><time>2014-5-9T16:54:54Z</time></trkpt>
<trkpt lat="47.49790907" lon="-2.76486397"><ele></ele><time>2014-5-9T16:54:57Z</time></trkpt>
<trkpt lat="47.49793053" lon="-2.76512146"><ele></ele><time>2014-5-9T16:55:0Z</time></trkpt>
<trkpt lat="47.49786615" lon="-2.76529312"><ele></ele><time>2014-5-9T16:55:3Z</time></trkpt>
<trkpt lat="47.49782324" lon="-2.76542187"><ele></ele><time>2014-5-9T16:55:6Z</time></trkpt>
<trkpt lat="47.49782324" lon="-2.76563644"><ele></ele><time>2014-5-9T16:55:9Z</time></trkpt>
<trkpt lat="47.49784470" lon="-2.76585102"><ele></ele><time>2014-5-9T16:55:12Z</time></trkpt>
<trkpt lat="47.49784470" lon="-2.76608706"><ele></ele><time>2014-5-9T16:55:15Z</time></trkpt>
<trkpt lat="47.49784470" lon="-2.76610851"><ele></ele><time>2014-5-9T16:55:18Z</time></trkpt>
<trkpt lat="47.49784470" lon="-2.76615143"><ele></ele><time>2014-5-9T16:55:21Z</time></trkpt>
<trkpt lat="47.49786615" lon="-2.76634455"><ele></ele><time>2014-5-9T16:55:24Z</time></trkpt>
<trkpt lat="47.49784470" lon="-2.76651621"><ele></ele><time>2014-5-9T16:55:27Z</time></trkpt>
<trkpt lat="47.49784470" lon="-2.76675224"><ele></ele><time>2014-5-9T16:55:30Z</time></trkpt>
<trkpt lat="47.49784470" lon="-2.76696682"><ele></ele><time>2014-5-9T16:55:33Z</time></trkpt>
<trkpt lat="47.49784470" lon="-2.76720285"><ele></ele><time>2014-5-9T16:55:36Z</time></trkpt>
<trkpt lat="47.49782324" lon="-2.76743889"><ele></ele><time>2014-5-9T16:55:39Z</time></trkpt>
<trkpt lat="47.49782324" lon="-2.76763201"><ele></ele><time>2014-5-9T16:55:42Z</time></trkpt>
<trkpt lat="47.49782324" lon="-2.76784658"><ele></ele><time>2014-5-9T16:55:45Z</time></trkpt>
<trkpt lat="47.49780178" lon="-2.76799679"><ele></ele><time>2014-5-9T16:55:48Z</time></trkpt>
<trkpt lat="47.49780178" lon="-2.76799679"><ele></ele><time>2014-5-9T16:55:51Z</time></trkpt>
<trkpt lat="47.49780178" lon="-2.76799679"><ele></ele><time>2014-5-9T16:55:54Z</time></trkpt>
<trkpt lat="47.49780178" lon="-2.76799679"><ele></ele><time>2014-5-9T16:55:57Z</time></trkpt>
<trkpt lat="47.49784470" lon="-2.76803970"><ele></ele><time>2014-5-9T16:56:0Z</time></trkpt>
<trkpt lat="47.49786615" lon="-2.76803970"><ele></ele><time>2014-5-9T16:56:3Z</time></trkpt>
<trkpt lat="47.49786615" lon="-2.76801825"><ele></ele><time>2014-5-9T16:56:6Z</time></trkpt>
<trkpt lat="47.49788761" lon="-2.76801825"><ele></ele><time>2014-5-9T16:56:9Z</time></trkpt>
<trkpt lat="47.49788761" lon="-2.76786804"><ele></ele><time>2014-5-9T16:56:12Z</time></trkpt>
<trkpt lat="47.49793053" lon="-2.76778221"><ele></ele><time>2014-5-9T16:56:15Z</time></trkpt>
<trkpt lat="47.49805927" lon="-2.76758909"><ele></ele><time>2014-5-9T16:56:18Z</time></trkpt>
<trkpt lat="47.49885321" lon="-2.76690245"><ele></ele><time>2014-5-9T16:56:21Z</time></trkpt>
<trkpt lat="47.49915361" lon="-2.76664495"><ele></ele><time>2014-5-9T16:56:24Z</time></trkpt>
<trkpt lat="47.49934673" lon="-2.76664495"><ele></ele><time>2014-5-9T16:56:27Z</time></trkpt>
<trkpt lat="47.50011921" lon="-2.76720285"><ele></ele><time>2014-5-9T16:56:30Z</time></trkpt>
<trkpt lat="47.50061274" lon="-2.76761055"><ele></ele><time>2014-5-9T16:56:33Z</time></trkpt>
<trkpt lat="47.50099897" lon="-2.76823282"><ele></ele><time>2014-5-9T16:56:36Z</time></trkpt>
<trkpt lat="47.50129938" lon="-2.76945591"><ele></ele><time>2014-5-9T16:56:39Z</time></trkpt>
<trkpt lat="47.50174999" lon="-2.77024984"><ele></ele><time>2014-5-9T16:56:42Z</time></trkpt>
<trkpt lat="47.50220060" lon="-2.77089357"><ele></ele><time>2014-5-9T16:56:45Z</time></trkpt>
<trkpt lat="47.50235081" lon="-2.77145147"><ele></ele><time>2014-5-9T16:56:48Z</time></trkpt>
<trkpt lat="47.50237226" lon="-2.77149439"><ele></ele><time>2014-5-9T16:56:51Z</time></trkpt>
<trkpt lat="47.50256538" lon="-2.77160168"><ele></ele><time>2014-5-9T16:56:54Z</time></trkpt>
<trkpt lat="47.50277996" lon="-2.77164459"><ele></ele><time>2014-5-9T16:56:57Z</time></trkpt>
<trkpt lat="47.50316620" lon="-2.77198792"><ele></ele><time>2014-5-9T16:57:0Z</time></trkpt>
<trkpt lat="47.50436783" lon="-2.77276039"><ele></ele><time>2014-5-9T16:57:3Z</time></trkpt>
<trkpt lat="47.50458241" lon="-2.77284622"><ele></ele><time>2014-5-9T16:57:6Z</time></trkpt>
<trkpt lat="47.50505447" lon="-2.77265310"><ele></ele><time>2014-5-9T16:57:9Z</time></trkpt>
<trkpt lat="47.50533342" lon="-2.77239561"><ele></ele><time>2014-5-9T16:57:12Z</time></trkpt>
<trkpt lat="47.50674963" lon="-2.77198792"><ele></ele><time>2014-5-9T16:57:15Z</time></trkpt>
<trkpt lat="47.50844479" lon="-2.77185917"><ele></ele><time>2014-5-9T16:57:18Z</time></trkpt>
<trkpt lat="47.50893831" lon="-2.77158022"><ele></ele><time>2014-5-9T16:57:21Z</time></trkpt>
<trkpt lat="47.51020432" lon="-2.77040005"><ele></ele><time>2014-5-9T16:57:24Z</time></trkpt>
<trkpt lat="47.51151323" lon="-2.76915550"><ele></ele><time>2014-5-9T16:57:27Z</time></trkpt>
<trkpt lat="47.51159906" lon="-2.76904821"><ele></ele><time>2014-5-9T16:57:30Z</time></trkpt>
<trkpt lat="47.51219988" lon="-2.76784658"><ele></ele><time>2014-5-9T16:57:33Z</time></trkpt>
<trkpt lat="47.51256466" lon="-2.76707411"><ele></ele><time>2014-5-9T16:57:36Z</time></trkpt>
<trkpt lat="47.51305819" lon="-2.76666641"><ele></ele><time>2014-5-9T16:57:39Z</time></trkpt>
<trkpt lat="47.51458168" lon="-2.76640892"><ele></ele><time>2014-5-9T16:57:42Z</time></trkpt>
<trkpt lat="47.51511812" lon="-2.76643038"><ele></ele><time>2014-5-9T16:57:45Z</time></trkpt>
<trkpt lat="47.51586914" lon="-2.76628017"><ele></ele><time>2014-5-9T16:57:48Z</time></trkpt>
<trkpt lat="47.51631975" lon="-2.76658058"><ele></ele><time>2014-5-9T16:57:51Z</time></trkpt>
<trkpt lat="47.51726389" lon="-2.76748180"><ele></ele><time>2014-5-9T16:57:54Z</time></trkpt>
<trkpt lat="47.51857281" lon="-2.76864052"><ele></ele><time>2014-5-9T16:57:57Z</time></trkpt>
<trkpt lat="47.51930237" lon="-2.76876926"><ele></ele><time>2014-5-9T16:58:0Z</time></trkpt>
<trkpt lat="47.51986027" lon="-2.76840448"><ele></ele><time>2014-5-9T16:58:3Z</time></trkpt>
<trkpt lat="47.52095461" lon="-2.76752472"><ele></ele><time>2014-5-9T16:58:6Z</time></trkpt>
<trkpt lat="47.52153397" lon="-2.76752472"><ele></ele><time>2014-5-9T16:58:9Z</time></trkpt>
<trkpt lat="47.52177000" lon="-2.76748180"><ele></ele><time>2014-5-9T16:58:12Z</time></trkpt>
<trkpt lat="47.52185583" lon="-2.76743889"><ele></ele><time>2014-5-9T16:58:15Z</time></trkpt>
<trkpt lat="47.52187729" lon="-2.76739597"><ele></ele><time>2014-5-9T16:58:18Z</time></trkpt>
<trkpt lat="47.52215624" lon="-2.76713848"><ele></ele><time>2014-5-9T16:58:21Z</time></trkpt>
<trkpt lat="47.52239227" lon="-2.76728868"><ele></ele><time>2014-5-9T16:58:24Z</time></trkpt>
<trkpt lat="47.52275705" lon="-2.76754618"><ele></ele><time>2014-5-9T16:58:27Z</time></trkpt>
<trkpt lat="47.52307892" lon="-2.76758909"><ele></ele><time>2014-5-9T16:58:30Z</time></trkpt>
<trkpt lat="47.52340078" lon="-2.76784658"><ele></ele><time>2014-5-9T16:58:33Z</time></trkpt>
<trkpt lat="47.52404451" lon="-2.76883364"><ele></ele><time>2014-5-9T16:58:36Z</time></trkpt>
<trkpt lat="47.52428055" lon="-2.76900530"><ele></ele><time>2014-5-9T16:58:39Z</time></trkpt>
<trkpt lat="47.52468824" lon="-2.76962757"><ele></ele><time>2014-5-9T16:58:42Z</time></trkpt>
<trkpt lat="47.52479553" lon="-2.76971340"><ele></ele><time>2014-5-9T16:58:45Z</time></trkpt>
<trkpt lat="47.52507448" lon="-2.76977777"><ele></ele><time>2014-5-9T16:58:48Z</time></trkpt>
<trkpt lat="47.52576113" lon="-2.76971340"><ele></ele><time>2014-5-9T16:58:51Z</time></trkpt>
<trkpt lat="47.52582550" lon="-2.76967049"><ele></ele><time>2014-5-9T16:58:54Z</time></trkpt>
<trkpt lat="47.52634048" lon="-2.76986361"><ele></ele><time>2014-5-9T16:58:57Z</time></trkpt>
<trkpt lat="47.52666235" lon="-2.76999235"><ele></ele><time>2014-5-9T16:59:0Z</time></trkpt>
<trkpt lat="47.52670527" lon="-2.77001381"><ele></ele><time>2014-5-9T16:59:3Z</time></trkpt>
<trkpt lat="47.52674818" lon="-2.76992798"><ele></ele><time>2014-5-9T16:59:6Z</time></trkpt>
<trkpt lat="47.52691984" lon="-2.76949883"><ele></ele><time>2014-5-9T16:59:9Z</time></trkpt>
<trkpt lat="47.52719879" lon="-2.76926279"><ele></ele><time>2014-5-9T16:59:12Z</time></trkpt>
<trkpt lat="47.52730608" lon="-2.76906967"><ele></ele><time>2014-5-9T16:59:15Z</time></trkpt>
<trkpt lat="47.52732754" lon="-2.76909113"><ele></ele><time>2014-5-9T16:59:18Z</time></trkpt>
<trkpt lat="47.52743483" lon="-2.76921988"><ele></ele><time>2014-5-9T16:59:21Z</time></trkpt>
<trkpt lat="47.52747774" lon="-2.76928425"><ele></ele><time>2014-5-9T16:59:24Z</time></trkpt>
<trkpt lat="0.00000000" lon="0.00000000"><ele></ele><time>2014-5-9T16:59:27Z</time></trkpt>
</trkseg></trk></gpx>